<?xml version="1.0" encoding="UTF-8" standalone="no" ?>
<gpx xmlns="http://www.topografix.com/GPX/1/1" xmlns:xsi="http://www.w3.org/2001/XMLSchema-instance" xsi:schemaLocation="http://www.topografix.com/GPX/1/1 http://www.topografix.com/GPX/1/1/gpx.xsd" version="1.1" creator="VisuGPX - https://www.visugpx.com">
  <metadata>
    <name>Gentleman bourg les Vce</name>
    <desc><![CDATA[boucle a parcourir 4 fois]]></desc>
  </metadata>
  <trk>
    <name><![CDATA[Gentleman bourg les Vce]]></name>
    <cmt><![CDATA[Thierry]]></cmt>
    <trkseg>
      <trkpt lat="44.95925" lon="4.90823">
        <ele>139.99699401856</ele>
        <time>2009-10-18T07:53:27Z</time>
      </trkpt>
      <trkpt lat="44.95945" lon="4.9086">
        <ele>140.5</ele>
        <time>2009-10-18T07:53:36Z</time>
      </trkpt>
      <trkpt lat="44.95951" lon="4.90872">
        <ele>140.08999633789</ele>
        <time>2009-10-18T07:53:39Z</time>
      </trkpt>
      <trkpt lat="44.95972" lon="4.90906">
        <ele>141.68200683594</ele>
        <time>2009-10-18T07:53:47Z</time>
      </trkpt>
      <trkpt lat="44.95974" lon="4.9091">
        <ele>140.89599609375</ele>
        <time>2009-10-18T07:53:48Z</time>
      </trkpt>
      <trkpt lat="44.95982" lon="4.90923">
        <ele>141.29699707031</ele>
        <time>2009-10-18T07:53:51Z</time>
      </trkpt>
      <trkpt lat="44.95986" lon="4.90933">
        <ele>141.28799438477</ele>
        <time>2009-10-18T07:53:53Z</time>
      </trkpt>
      <trkpt lat="44.95995" lon="4.90956">
        <ele>140.80499267578</ele>
        <time>2009-10-18T07:53:57Z</time>
      </trkpt>
      <trkpt lat="44.96" lon="4.90987">
        <ele>140.96699523926</ele>
        <time>2009-10-18T07:54:01Z</time>
      </trkpt>
      <trkpt lat="44.96014" lon="4.91019">
        <ele>141.47799682617</ele>
        <time>2009-10-18T07:54:06Z</time>
      </trkpt>
      <trkpt lat="44.96019" lon="4.91022">
        <ele>141.23599243164</ele>
        <time>2009-10-18T07:54:07Z</time>
      </trkpt>
      <trkpt lat="44.96034" lon="4.91019">
        <ele>142.83700561523</ele>
        <time>2009-10-18T07:54:10Z</time>
      </trkpt>
      <trkpt lat="44.96045" lon="4.91004">
        <ele>143.29200744629</ele>
        <time>2009-10-18T07:54:13Z</time>
      </trkpt>
      <trkpt lat="44.96052" lon="4.90992">
        <ele>142.95700073242</ele>
        <time>2009-10-18T07:54:15Z</time>
      </trkpt>
      <trkpt lat="44.96076" lon="4.9097">
        <ele>142.85099792481</ele>
        <time>2009-10-18T07:54:20Z</time>
      </trkpt>
      <trkpt lat="44.96087" lon="4.90966">
        <ele>143.54600524902</ele>
        <time>2009-10-18T07:54:22Z</time>
      </trkpt>
      <trkpt lat="44.96098" lon="4.90964">
        <ele>142.95100402832</ele>
        <time>2009-10-18T07:54:24Z</time>
      </trkpt>
      <trkpt lat="44.96145" lon="4.90969">
        <ele>142.54100036621</ele>
        <time>2009-10-18T07:54:33Z</time>
      </trkpt>
      <trkpt lat="44.96211" lon="4.90982">
        <ele>144.04400634766</ele>
        <time>2009-10-18T07:54:46Z</time>
      </trkpt>
      <trkpt lat="44.96236" lon="4.90987">
        <ele>145.86199951172</ele>
        <time>2009-10-18T07:54:51Z</time>
      </trkpt>
      <trkpt lat="44.96281" lon="4.90995">
        <ele>142.92799377441</ele>
        <time>2009-10-18T07:55:00Z</time>
      </trkpt>
      <trkpt lat="44.96296" lon="4.90998">
        <ele>144.38499450684</ele>
        <time>2009-10-18T07:55:03Z</time>
      </trkpt>
      <trkpt lat="44.96337" lon="4.91007">
        <ele>144.93699645996</ele>
        <time>2009-10-18T07:55:12Z</time>
      </trkpt>
      <trkpt lat="44.96355" lon="4.91012">
        <ele>144.2619934082</ele>
        <time>2009-10-18T07:55:16Z</time>
      </trkpt>
      <trkpt lat="44.96363" lon="4.91014">
        <ele>145.62199401856</ele>
        <time>2009-10-18T07:55:18Z</time>
      </trkpt>
      <trkpt lat="44.96403" lon="4.91027">
        <ele>145.00999450684</ele>
        <time>2009-10-18T07:55:27Z</time>
      </trkpt>
      <trkpt lat="44.96433" lon="4.91045">
        <ele>145.18200683594</ele>
        <time>2009-10-18T07:55:34Z</time>
      </trkpt>
      <trkpt lat="44.96444" lon="4.91057">
        <ele>145.83299255371</ele>
        <time>2009-10-18T07:55:37Z</time>
      </trkpt>
      <trkpt lat="44.96463" lon="4.91063">
        <ele>145.68699645996</ele>
        <time>2009-10-18T07:55:41Z</time>
      </trkpt>
      <trkpt lat="44.96468" lon="4.91061">
        <ele>146.67300415039</ele>
        <time>2009-10-18T07:55:42Z</time>
      </trkpt>
      <trkpt lat="44.96477" lon="4.91056">
        <ele>146.81799316406</ele>
        <time>2009-10-18T07:55:44Z</time>
      </trkpt>
      <trkpt lat="44.96522" lon="4.91051">
        <ele>145.55599975586</ele>
        <time>2009-10-18T07:55:53Z</time>
      </trkpt>
      <trkpt lat="44.96549" lon="4.91049">
        <ele>146.44799804688</ele>
        <time>2009-10-18T07:55:58Z</time>
      </trkpt>
      <trkpt lat="44.96576" lon="4.9106">
        <ele>145.67999267578</ele>
        <time>2009-10-18T07:56:03Z</time>
      </trkpt>
      <trkpt lat="44.96603" lon="4.91068">
        <ele>144.42700195312</ele>
        <time>2009-10-18T07:56:08Z</time>
      </trkpt>
      <trkpt lat="44.96608" lon="4.91065">
        <ele>144.54899597168</ele>
        <time>2009-10-18T07:56:09Z</time>
      </trkpt>
      <trkpt lat="44.9665" lon="4.91048">
        <ele>144.10299682617</ele>
        <time>2009-10-18T07:56:16Z</time>
      </trkpt>
      <trkpt lat="44.9669" lon="4.91048">
        <ele>146.49499511719</ele>
        <time>2009-10-18T07:56:22Z</time>
      </trkpt>
      <trkpt lat="44.96758" lon="4.91049">
        <ele>144.24800109863</ele>
        <time>2009-10-18T07:56:33Z</time>
      </trkpt>
      <trkpt lat="44.96808" lon="4.91049">
        <ele>146.02799987793</ele>
        <time>2009-10-18T07:56:42Z</time>
      </trkpt>
      <trkpt lat="44.9684" lon="4.91039">
        <ele>146.87899780273</ele>
        <time>2009-10-18T07:56:48Z</time>
      </trkpt>
      <trkpt lat="44.96889" lon="4.91015">
        <ele>146.88600158691</ele>
        <time>2009-10-18T07:56:57Z</time>
      </trkpt>
      <trkpt lat="44.96953" lon="4.90983">
        <ele>146.52200317383</ele>
        <time>2009-10-18T07:57:08Z</time>
      </trkpt>
      <trkpt lat="44.96964" lon="4.90977">
        <ele>146.53999328613</ele>
        <time>2009-10-18T07:57:10Z</time>
      </trkpt>
      <trkpt lat="44.96976" lon="4.90971">
        <ele>146.38999938965</ele>
        <time>2009-10-18T07:57:12Z</time>
      </trkpt>
      <trkpt lat="44.97017" lon="4.9095">
        <ele>146.84100341797</ele>
        <time>2009-10-18T07:57:19Z</time>
      </trkpt>
      <trkpt lat="44.97023" lon="4.90948">
        <ele>146.32299804688</ele>
        <time>2009-10-18T07:57:20Z</time>
      </trkpt>
      <trkpt lat="44.97041" lon="4.90941">
        <ele>147.17399597168</ele>
        <time>2009-10-18T07:57:23Z</time>
      </trkpt>
      <trkpt lat="44.9707" lon="4.90946">
        <ele>147.00700378418</ele>
        <time>2009-10-18T07:57:28Z</time>
      </trkpt>
      <trkpt lat="44.97081" lon="4.90953">
        <ele>147.04899597168</ele>
        <time>2009-10-18T07:57:30Z</time>
      </trkpt>
      <trkpt lat="44.97111" lon="4.90985">
        <ele>145.2619934082</ele>
        <time>2009-10-18T07:57:36Z</time>
      </trkpt>
      <trkpt lat="44.97139" lon="4.90997">
        <ele>145.66999816894</ele>
        <time>2009-10-18T07:57:40Z</time>
      </trkpt>
      <trkpt lat="44.97154" lon="4.90992">
        <ele>144.94099426269</ele>
        <time>2009-10-18T07:57:42Z</time>
      </trkpt>
      <trkpt lat="44.97167" lon="4.90981">
        <ele>144.78399658203</ele>
        <time>2009-10-18T07:57:44Z</time>
      </trkpt>
      <trkpt lat="44.97173" lon="4.90974">
        <ele>144.58599853516</ele>
        <time>2009-10-18T07:57:45Z</time>
      </trkpt>
      <trkpt lat="44.97179" lon="4.90966">
        <ele>144.69900512695</ele>
        <time>2009-10-18T07:57:46Z</time>
      </trkpt>
      <trkpt lat="44.97235" lon="4.90874">
        <ele>144.76699829102</ele>
        <time>2009-10-18T07:57:57Z</time>
      </trkpt>
      <trkpt lat="44.97272" lon="4.90811">
        <ele>143.93099975586</ele>
        <time>2009-10-18T07:58:05Z</time>
      </trkpt>
      <trkpt lat="44.97313" lon="4.90734">
        <ele>142.47999572754</ele>
        <time>2009-10-18T07:58:14Z</time>
      </trkpt>
      <trkpt lat="44.97346" lon="4.90667">
        <ele>142.93499755859</ele>
        <time>2009-10-18T07:58:22Z</time>
      </trkpt>
      <trkpt lat="44.9737" lon="4.90616">
        <ele>141.55799865723</ele>
        <time>2009-10-18T07:58:28Z</time>
      </trkpt>
      <trkpt lat="44.97384" lon="4.9059">
        <ele>140.72900390625</ele>
        <time>2009-10-18T07:58:31Z</time>
      </trkpt>
      <trkpt lat="44.97388" lon="4.90581">
        <ele>141.77499389648</ele>
        <time>2009-10-18T07:58:32Z</time>
      </trkpt>
      <trkpt lat="44.97393" lon="4.90573">
        <ele>141.12300109863</ele>
        <time>2009-10-18T07:58:33Z</time>
      </trkpt>
      <trkpt lat="44.97405" lon="4.90558">
        <ele>140.40299987793</ele>
        <time>2009-10-18T07:58:35Z</time>
      </trkpt>
      <trkpt lat="44.97438" lon="4.90535">
        <ele>139.91499328613</ele>
        <time>2009-10-18T07:58:40Z</time>
      </trkpt>
      <trkpt lat="44.97478" lon="4.90507">
        <ele>139.76100158691</ele>
        <time>2009-10-18T07:58:47Z</time>
      </trkpt>
      <trkpt lat="44.97535" lon="4.90468">
        <ele>139.05799865723</ele>
        <time>2009-10-18T07:58:56Z</time>
      </trkpt>
      <trkpt lat="44.97594" lon="4.90427">
        <ele>137.16799926758</ele>
        <time>2009-10-18T07:59:04Z</time>
      </trkpt>
      <trkpt lat="44.97632" lon="4.904">
        <ele>134.60600280762</ele>
        <time>2009-10-18T07:59:09Z</time>
      </trkpt>
      <trkpt lat="44.97647" lon="4.90389">
        <ele>133.92399597168</ele>
        <time>2009-10-18T07:59:11Z</time>
      </trkpt>
      <trkpt lat="44.97655" lon="4.90383">
        <ele>134.06599426269</ele>
        <time>2009-10-18T07:59:12Z</time>
      </trkpt>
      <trkpt lat="44.97662" lon="4.90376">
        <ele>133.20300292969</ele>
        <time>2009-10-18T07:59:13Z</time>
      </trkpt>
      <trkpt lat="44.97686" lon="4.90346">
        <ele>133.0059967041</ele>
        <time>2009-10-18T07:59:17Z</time>
      </trkpt>
      <trkpt lat="44.97711" lon="4.90313">
        <ele>132.35099792481</ele>
        <time>2009-10-18T07:59:21Z</time>
      </trkpt>
      <trkpt lat="44.97738" lon="4.90282">
        <ele>131.25799560547</ele>
        <time>2009-10-18T07:59:25Z</time>
      </trkpt>
      <trkpt lat="44.97774" lon="4.90234">
        <ele>129.09399414062</ele>
        <time>2009-10-18T07:59:31Z</time>
      </trkpt>
      <trkpt lat="44.97791" lon="4.90213">
        <ele>127.61599731445</ele>
        <time>2009-10-18T07:59:34Z</time>
      </trkpt>
      <trkpt lat="44.97802" lon="4.90199">
        <ele>128.30700683594</ele>
        <time>2009-10-18T07:59:36Z</time>
      </trkpt>
      <trkpt lat="44.97808" lon="4.90193">
        <ele>127.40200042725</ele>
        <time>2009-10-18T07:59:37Z</time>
      </trkpt>
      <trkpt lat="44.97858" lon="4.90134">
        <ele>127.50099945068</ele>
        <time>2009-10-18T07:59:46Z</time>
      </trkpt>
      <trkpt lat="44.97869" lon="4.90124">
        <ele>128.2799987793</ele>
        <time>2009-10-18T07:59:48Z</time>
      </trkpt>
      <trkpt lat="44.97903" lon="4.90113">
        <ele>127.91999816894</ele>
        <time>2009-10-18T07:59:53Z</time>
      </trkpt>
      <trkpt lat="44.97942" lon="4.90117">
        <ele>126.14399719238</ele>
        <time>2009-10-18T07:59:59Z</time>
      </trkpt>
      <trkpt lat="44.97975" lon="4.90121">
        <ele>128.42500305176</ele>
        <time>2009-10-18T08:00:04Z</time>
      </trkpt>
      <trkpt lat="44.97995" lon="4.90124">
        <ele>127.75800323486</ele>
        <time>2009-10-18T08:00:07Z</time>
      </trkpt>
      <trkpt lat="44.98023" lon="4.90126">
        <ele>127.53099822998</ele>
        <time>2009-10-18T08:00:11Z</time>
      </trkpt>
      <trkpt lat="44.98095" lon="4.90133">
        <ele>128.03300476074</ele>
        <time>2009-10-18T08:00:21Z</time>
      </trkpt>
      <trkpt lat="44.98154" lon="4.90142">
        <ele>127.63999938965</ele>
        <time>2009-10-18T08:00:30Z</time>
      </trkpt>
      <trkpt lat="44.98206" lon="4.90158">
        <ele>127.46700286865</ele>
        <time>2009-10-18T08:00:39Z</time>
      </trkpt>
      <trkpt lat="44.98233" lon="4.90169">
        <ele>126.79699707031</ele>
        <time>2009-10-18T08:00:44Z</time>
      </trkpt>
      <trkpt lat="44.98253" lon="4.90163">
        <ele>127.64199829102</ele>
        <time>2009-10-18T08:00:48Z</time>
      </trkpt>
      <trkpt lat="44.98259" lon="4.90148">
        <ele>127.38500213623</ele>
        <time>2009-10-18T08:00:50Z</time>
      </trkpt>
      <trkpt lat="44.98275" lon="4.90071">
        <ele>127.49299621582</ele>
        <time>2009-10-18T08:00:59Z</time>
      </trkpt>
      <trkpt lat="44.98278" lon="4.90062">
        <ele>127.4879989624</ele>
        <time>2009-10-18T08:01:00Z</time>
      </trkpt>
      <trkpt lat="44.98292" lon="4.90029">
        <ele>127.81900024414</ele>
        <time>2009-10-18T08:01:04Z</time>
      </trkpt>
      <trkpt lat="44.98317" lon="4.90009">
        <ele>126.99700164795</ele>
        <time>2009-10-18T08:01:08Z</time>
      </trkpt>
      <trkpt lat="44.98337" lon="4.90018">
        <ele>125.40399932861</ele>
        <time>2009-10-18T08:01:11Z</time>
      </trkpt>
      <trkpt lat="44.98385" lon="4.90076">
        <ele>125.97599792481</ele>
        <time>2009-10-18T08:01:20Z</time>
      </trkpt>
      <trkpt lat="44.98413" lon="4.90117">
        <ele>126.34700012207</ele>
        <time>2009-10-18T08:01:26Z</time>
      </trkpt>
      <trkpt lat="44.98457" lon="4.90182">
        <ele>126.9700012207</ele>
        <time>2009-10-18T08:01:35Z</time>
      </trkpt>
      <trkpt lat="44.98509" lon="4.9026">
        <ele>127.50499725342</ele>
        <time>2009-10-18T08:01:47Z</time>
      </trkpt>
      <trkpt lat="44.98545" lon="4.90313">
        <ele>127.7320022583</ele>
        <time>2009-10-18T08:01:55Z</time>
      </trkpt>
      <trkpt lat="44.9858" lon="4.90362">
        <ele>128.91999816894</ele>
        <time>2009-10-18T08:02:02Z</time>
      </trkpt>
      <trkpt lat="44.98636" lon="4.90437">
        <ele>129.6190032959</ele>
        <time>2009-10-18T08:02:13Z</time>
      </trkpt>
      <trkpt lat="44.98651" lon="4.90456">
        <ele>128.16700744629</ele>
        <time>2009-10-18T08:02:16Z</time>
      </trkpt>
      <trkpt lat="44.98711" lon="4.90531">
        <ele>129.97099304199</ele>
        <time>2009-10-18T08:02:28Z</time>
      </trkpt>
      <trkpt lat="44.98764" lon="4.90597">
        <ele>128.99000549316</ele>
        <time>2009-10-18T08:02:38Z</time>
      </trkpt>
      <trkpt lat="44.98828" lon="4.90676">
        <ele>129.12600708008</ele>
        <time>2009-10-18T08:02:51Z</time>
      </trkpt>
      <trkpt lat="44.98873" lon="4.90732">
        <ele>128.76499938965</ele>
        <time>2009-10-18T08:03:00Z</time>
      </trkpt>
      <trkpt lat="44.98919" lon="4.90792">
        <ele>129.07499694824</ele>
        <time>2009-10-18T08:03:09Z</time>
      </trkpt>
      <trkpt lat="44.98959" lon="4.90845">
        <ele>128.7799987793</ele>
        <time>2009-10-18T08:03:17Z</time>
      </trkpt>
      <trkpt lat="44.98996" lon="4.90898">
        <ele>128.65899658203</ele>
        <time>2009-10-18T08:03:25Z</time>
      </trkpt>
      <trkpt lat="44.99033" lon="4.9095">
        <ele>129.42100524902</ele>
        <time>2009-10-18T08:03:33Z</time>
      </trkpt>
      <trkpt lat="44.99066" lon="4.90993">
        <ele>129.20899963379</ele>
        <time>2009-10-18T08:03:40Z</time>
      </trkpt>
      <trkpt lat="44.99099" lon="4.91034">
        <ele>130.05499267578</ele>
        <time>2009-10-18T08:03:47Z</time>
      </trkpt>
      <trkpt lat="44.99135" lon="4.91076">
        <ele>130.49800109863</ele>
        <time>2009-10-18T08:03:54Z</time>
      </trkpt>
      <trkpt lat="44.9916" lon="4.91104">
        <ele>131.18899536133</ele>
        <time>2009-10-18T08:03:59Z</time>
      </trkpt>
      <trkpt lat="44.9917" lon="4.91115">
        <ele>130.84599304199</ele>
        <time>2009-10-18T08:04:01Z</time>
      </trkpt>
      <trkpt lat="44.99177" lon="4.91147">
        <ele>132.38000488281</ele>
        <time>2009-10-18T08:04:05Z</time>
      </trkpt>
      <trkpt lat="44.99179" lon="4.91169">
        <ele>133.26300048828</ele>
        <time>2009-10-18T08:04:08Z</time>
      </trkpt>
      <trkpt lat="44.9919" lon="4.91217">
        <ele>136.03999328613</ele>
        <time>2009-10-18T08:04:16Z</time>
      </trkpt>
      <trkpt lat="44.99193" lon="4.91234">
        <ele>136.93299865723</ele>
        <time>2009-10-18T08:04:19Z</time>
      </trkpt>
      <trkpt lat="44.99196" lon="4.91251">
        <ele>137.86999511719</ele>
        <time>2009-10-18T08:04:22Z</time>
      </trkpt>
      <trkpt lat="44.99198" lon="4.91262">
        <ele>138.32299804688</ele>
        <time>2009-10-18T08:04:24Z</time>
      </trkpt>
      <trkpt lat="44.99201" lon="4.91279">
        <ele>139.23300170898</ele>
        <time>2009-10-18T08:04:27Z</time>
      </trkpt>
      <trkpt lat="44.99203" lon="4.91295">
        <ele>140.25700378418</ele>
        <time>2009-10-18T08:04:30Z</time>
      </trkpt>
      <trkpt lat="44.99204" lon="4.91301">
        <ele>140.70300292969</ele>
        <time>2009-10-18T08:04:31Z</time>
      </trkpt>
      <trkpt lat="44.99203" lon="4.91318">
        <ele>141.81700134277</ele>
        <time>2009-10-18T08:04:34Z</time>
      </trkpt>
      <trkpt lat="44.99203" lon="4.91323">
        <ele>141.98599243164</ele>
        <time>2009-10-18T08:04:35Z</time>
      </trkpt>
      <trkpt lat="44.99201" lon="4.91335">
        <ele>142.7859954834</ele>
        <time>2009-10-18T08:04:37Z</time>
      </trkpt>
      <trkpt lat="44.99199" lon="4.91346">
        <ele>143.55900573731</ele>
        <time>2009-10-18T08:04:39Z</time>
      </trkpt>
      <trkpt lat="44.99193" lon="4.91378">
        <ele>145.32899475098</ele>
        <time>2009-10-18T08:04:45Z</time>
      </trkpt>
      <trkpt lat="44.99189" lon="4.91395">
        <ele>146.11799621582</ele>
        <time>2009-10-18T08:04:48Z</time>
      </trkpt>
      <trkpt lat="44.99183" lon="4.91433">
        <ele>148.02499389648</ele>
        <time>2009-10-18T08:04:55Z</time>
      </trkpt>
      <trkpt lat="44.99172" lon="4.91472">
        <ele>150.87100219727</ele>
        <time>2009-10-18T08:05:03Z</time>
      </trkpt>
      <trkpt lat="44.99165" lon="4.9151">
        <ele>151.80599975586</ele>
        <time>2009-10-18T08:05:11Z</time>
      </trkpt>
      <trkpt lat="44.99162" lon="4.91547">
        <ele>154.20100402832</ele>
        <time>2009-10-18T08:05:18Z</time>
      </trkpt>
      <trkpt lat="44.99163" lon="4.91569">
        <ele>155.75500488281</ele>
        <time>2009-10-18T08:05:22Z</time>
      </trkpt>
      <trkpt lat="44.99165" lon="4.91599">
        <ele>157.46699523926</ele>
        <time>2009-10-18T08:05:28Z</time>
      </trkpt>
      <trkpt lat="44.99168" lon="4.91635">
        <ele>160.1130065918</ele>
        <time>2009-10-18T08:05:35Z</time>
      </trkpt>
      <trkpt lat="44.99174" lon="4.9166">
        <ele>161.59399414062</ele>
        <time>2009-10-18T08:05:40Z</time>
      </trkpt>
      <trkpt lat="44.99184" lon="4.91687">
        <ele>162.86099243164</ele>
        <time>2009-10-18T08:05:46Z</time>
      </trkpt>
      <trkpt lat="44.99199" lon="4.91719">
        <ele>163.74699401856</ele>
        <time>2009-10-18T08:05:53Z</time>
      </trkpt>
      <trkpt lat="44.99219" lon="4.91752">
        <ele>166.34800720215</ele>
        <time>2009-10-18T08:06:01Z</time>
      </trkpt>
      <trkpt lat="44.99225" lon="4.91776">
        <ele>167.60099792481</ele>
        <time>2009-10-18T08:06:06Z</time>
      </trkpt>
      <trkpt lat="44.99221" lon="4.91797">
        <ele>169.40199279785</ele>
        <time>2009-10-18T08:06:11Z</time>
      </trkpt>
      <trkpt lat="44.99215" lon="4.91812">
        <ele>170.84599304199</ele>
        <time>2009-10-18T08:06:15Z</time>
      </trkpt>
      <trkpt lat="44.99213" lon="4.91816">
        <ele>171.26300048828</ele>
        <time>2009-10-18T08:06:16Z</time>
      </trkpt>
      <trkpt lat="44.99202" lon="4.91833">
        <ele>172.79299926758</ele>
        <time>2009-10-18T08:06:21Z</time>
      </trkpt>
      <trkpt lat="44.99199" lon="4.9184">
        <ele>173.91799926758</ele>
        <time>2009-10-18T08:06:23Z</time>
      </trkpt>
      <trkpt lat="44.99197" lon="4.91844">
        <ele>174.10400390625</ele>
        <time>2009-10-18T08:06:24Z</time>
      </trkpt>
      <trkpt lat="44.99195" lon="4.91848">
        <ele>174.39900207519</ele>
        <time>2009-10-18T08:06:25Z</time>
      </trkpt>
      <trkpt lat="44.99192" lon="4.91856">
        <ele>174.78500366211</ele>
        <time>2009-10-18T08:06:27Z</time>
      </trkpt>
      <trkpt lat="44.9919" lon="4.9186">
        <ele>175.14799499512</ele>
        <time>2009-10-18T08:06:28Z</time>
      </trkpt>
      <trkpt lat="44.99186" lon="4.91872">
        <ele>176.47700500488</ele>
        <time>2009-10-18T08:06:31Z</time>
      </trkpt>
      <trkpt lat="44.99182" lon="4.91885">
        <ele>177.05700683594</ele>
        <time>2009-10-18T08:06:34Z</time>
      </trkpt>
      <trkpt lat="44.99179" lon="4.91894">
        <ele>177.26600646973</ele>
        <time>2009-10-18T08:06:36Z</time>
      </trkpt>
      <trkpt lat="44.99176" lon="4.91903">
        <ele>178.06199645996</ele>
        <time>2009-10-18T08:06:38Z</time>
      </trkpt>
      <trkpt lat="44.99169" lon="4.91928">
        <ele>179.90899658203</ele>
        <time>2009-10-18T08:06:43Z</time>
      </trkpt>
      <trkpt lat="44.99154" lon="4.91974">
        <ele>180.89399719238</ele>
        <time>2009-10-18T08:06:52Z</time>
      </trkpt>
      <trkpt lat="44.9915" lon="4.91985">
        <ele>180.75199890137</ele>
        <time>2009-10-18T08:06:54Z</time>
      </trkpt>
      <trkpt lat="44.99143" lon="4.92013">
        <ele>181.60899353027</ele>
        <time>2009-10-18T08:06:59Z</time>
      </trkpt>
      <trkpt lat="44.99151" lon="4.92029">
        <ele>182.25300598144</ele>
        <time>2009-10-18T08:07:03Z</time>
      </trkpt>
      <trkpt lat="44.99181" lon="4.92055">
        <ele>181.74899291992</ele>
        <time>2009-10-18T08:07:10Z</time>
      </trkpt>
      <trkpt lat="44.99212" lon="4.92081">
        <ele>182.2859954834</ele>
        <time>2009-10-18T08:07:16Z</time>
      </trkpt>
      <trkpt lat="44.99252" lon="4.92114">
        <ele>182.00300598144</ele>
        <time>2009-10-18T08:07:24Z</time>
      </trkpt>
      <trkpt lat="44.9929" lon="4.92146">
        <ele>181.68600463867</ele>
        <time>2009-10-18T08:07:31Z</time>
      </trkpt>
      <trkpt lat="44.99325" lon="4.92176">
        <ele>181.60499572754</ele>
        <time>2009-10-18T08:07:37Z</time>
      </trkpt>
      <trkpt lat="44.99374" lon="4.92217">
        <ele>182.20700073242</ele>
        <time>2009-10-18T08:07:45Z</time>
      </trkpt>
      <trkpt lat="44.99379" lon="4.92221">
        <ele>182.47200012207</ele>
        <time>2009-10-18T08:07:46Z</time>
      </trkpt>
      <trkpt lat="44.99428" lon="4.92263">
        <ele>183.26400756836</ele>
        <time>2009-10-18T08:07:55Z</time>
      </trkpt>
      <trkpt lat="44.99437" lon="4.92283">
        <ele>182.71899414062</ele>
        <time>2009-10-18T08:07:58Z</time>
      </trkpt>
      <trkpt lat="44.99436" lon="4.92291">
        <ele>182.69200134277</ele>
        <time>2009-10-18T08:07:59Z</time>
      </trkpt>
      <trkpt lat="44.99419" lon="4.92372">
        <ele>184.08399963379</ele>
        <time>2009-10-18T08:08:08Z</time>
      </trkpt>
      <trkpt lat="44.99402" lon="4.92455">
        <ele>184.08599853516</ele>
        <time>2009-10-18T08:08:16Z</time>
      </trkpt>
      <trkpt lat="44.9938" lon="4.92564">
        <ele>183.43899536133</ele>
        <time>2009-10-18T08:08:26Z</time>
      </trkpt>
      <trkpt lat="44.99357" lon="4.92675">
        <ele>184.13299560547</ele>
        <time>2009-10-18T08:08:36Z</time>
      </trkpt>
      <trkpt lat="44.99336" lon="4.92764">
        <ele>183.61799621582</ele>
        <time>2009-10-18T08:08:44Z</time>
      </trkpt>
      <trkpt lat="44.99313" lon="4.92853">
        <ele>183.84599304199</ele>
        <time>2009-10-18T08:08:52Z</time>
      </trkpt>
      <trkpt lat="44.9929" lon="4.92942">
        <ele>183.4700012207</ele>
        <time>2009-10-18T08:09:00Z</time>
      </trkpt>
      <trkpt lat="44.99263" lon="4.93035">
        <ele>184.23300170898</ele>
        <time>2009-10-18T08:09:08Z</time>
      </trkpt>
      <trkpt lat="44.99236" lon="4.93139">
        <ele>184.65299987793</ele>
        <time>2009-10-18T08:09:17Z</time>
      </trkpt>
      <trkpt lat="44.99232" lon="4.93176">
        <ele>184.52200317383</ele>
        <time>2009-10-18T08:09:20Z</time>
      </trkpt>
      <trkpt lat="44.99235" lon="4.93223">
        <ele>184.9109954834</ele>
        <time>2009-10-18T08:09:24Z</time>
      </trkpt>
      <trkpt lat="44.99226" lon="4.93246">
        <ele>185.19900512695</ele>
        <time>2009-10-18T08:09:27Z</time>
      </trkpt>
      <trkpt lat="44.99218" lon="4.93245">
        <ele>185.48699951172</ele>
        <time>2009-10-18T08:09:28Z</time>
      </trkpt>
      <trkpt lat="44.99156" lon="4.93238">
        <ele>185.30999755859</ele>
        <time>2009-10-18T08:09:36Z</time>
      </trkpt>
      <trkpt lat="44.99105" lon="4.93234">
        <ele>185.0950012207</ele>
        <time>2009-10-18T08:09:42Z</time>
      </trkpt>
      <trkpt lat="44.99033" lon="4.9323">
        <ele>184.83000183106</ele>
        <time>2009-10-18T08:09:50Z</time>
      </trkpt>
      <trkpt lat="44.98967" lon="4.93224">
        <ele>185.51300048828</ele>
        <time>2009-10-18T08:09:57Z</time>
      </trkpt>
      <trkpt lat="44.98901" lon="4.93223">
        <ele>186.13999938965</ele>
        <time>2009-10-18T08:10:04Z</time>
      </trkpt>
      <trkpt lat="44.98848" lon="4.93214">
        <ele>186.11700439453</ele>
        <time>2009-10-18T08:10:10Z</time>
      </trkpt>
      <trkpt lat="44.98793" lon="4.93189">
        <ele>186.19700622559</ele>
        <time>2009-10-18T08:10:17Z</time>
      </trkpt>
      <trkpt lat="44.98709" lon="4.93149">
        <ele>186.46699523926</ele>
        <time>2009-10-18T08:10:28Z</time>
      </trkpt>
      <trkpt lat="44.98644" lon="4.93117">
        <ele>186.71699523926</ele>
        <time>2009-10-18T08:10:36Z</time>
      </trkpt>
      <trkpt lat="44.98587" lon="4.9309">
        <ele>186.01300048828</ele>
        <time>2009-10-18T08:10:43Z</time>
      </trkpt>
      <trkpt lat="44.98579" lon="4.93086">
        <ele>185.74699401856</ele>
        <time>2009-10-18T08:10:44Z</time>
      </trkpt>
      <trkpt lat="44.98516" lon="4.93052">
        <ele>186.71800231934</ele>
        <time>2009-10-18T08:10:52Z</time>
      </trkpt>
      <trkpt lat="44.98493" lon="4.93039">
        <ele>184.58599853516</ele>
        <time>2009-10-18T08:10:55Z</time>
      </trkpt>
      <trkpt lat="44.98463" lon="4.9302">
        <ele>185.98199462891</ele>
        <time>2009-10-18T08:10:59Z</time>
      </trkpt>
      <trkpt lat="44.98456" lon="4.93014">
        <ele>185.98300170898</ele>
        <time>2009-10-18T08:11:00Z</time>
      </trkpt>
      <trkpt lat="44.98421" lon="4.92967">
        <ele>185.80499267578</ele>
        <time>2009-10-18T08:11:06Z</time>
      </trkpt>
      <trkpt lat="44.98388" lon="4.92925">
        <ele>185.3690032959</ele>
        <time>2009-10-18T08:11:12Z</time>
      </trkpt>
      <trkpt lat="44.98362" lon="4.92886">
        <ele>185.77600097656</ele>
        <time>2009-10-18T08:11:17Z</time>
      </trkpt>
      <trkpt lat="44.98329" lon="4.92816">
        <ele>186.22799682617</ele>
        <time>2009-10-18T08:11:25Z</time>
      </trkpt>
      <trkpt lat="44.98304" lon="4.92748">
        <ele>184.91999816894</ele>
        <time>2009-10-18T08:11:32Z</time>
      </trkpt>
      <trkpt lat="44.98267" lon="4.92688">
        <ele>185.45199584961</ele>
        <time>2009-10-18T08:11:39Z</time>
      </trkpt>
      <trkpt lat="44.98207" lon="4.92606">
        <ele>185.55299377441</ele>
        <time>2009-10-18T08:11:49Z</time>
      </trkpt>
      <trkpt lat="44.98188" lon="4.92584">
        <ele>185.0359954834</ele>
        <time>2009-10-18T08:11:52Z</time>
      </trkpt>
      <trkpt lat="44.9815" lon="4.92561">
        <ele>184.21499633789</ele>
        <time>2009-10-18T08:11:57Z</time>
      </trkpt>
      <trkpt lat="44.98096" lon="4.92529">
        <ele>184.91999816894</ele>
        <time>2009-10-18T08:12:04Z</time>
      </trkpt>
      <trkpt lat="44.98047" lon="4.92483">
        <ele>185.08700561523</ele>
        <time>2009-10-18T08:12:11Z</time>
      </trkpt>
      <trkpt lat="44.97994" lon="4.92425">
        <ele>184.78700256348</ele>
        <time>2009-10-18T08:12:19Z</time>
      </trkpt>
      <trkpt lat="44.97933" lon="4.92366">
        <ele>184.05900573731</ele>
        <time>2009-10-18T08:12:28Z</time>
      </trkpt>
      <trkpt lat="44.97914" lon="4.92345">
        <ele>184.07499694824</ele>
        <time>2009-10-18T08:12:31Z</time>
      </trkpt>
      <trkpt lat="44.9789" lon="4.92297">
        <ele>183.9640045166</ele>
        <time>2009-10-18T08:12:36Z</time>
      </trkpt>
      <trkpt lat="44.97865" lon="4.92219">
        <ele>182.98199462891</ele>
        <time>2009-10-18T08:12:43Z</time>
      </trkpt>
      <trkpt lat="44.97833" lon="4.92126">
        <ele>183.19400024414</ele>
        <time>2009-10-18T08:12:51Z</time>
      </trkpt>
      <trkpt lat="44.97796" lon="4.92016">
        <ele>182.43499755859</ele>
        <time>2009-10-18T08:13:00Z</time>
      </trkpt>
      <trkpt lat="44.9777" lon="4.91938">
        <ele>181.90299987793</ele>
        <time>2009-10-18T08:13:06Z</time>
      </trkpt>
      <trkpt lat="44.97735" lon="4.91867">
        <ele>180.86099243164</ele>
        <time>2009-10-18T08:13:12Z</time>
      </trkpt>
      <trkpt lat="44.97713" lon="4.91815">
        <ele>176.82600402832</ele>
        <time>2009-10-18T08:13:16Z</time>
      </trkpt>
      <trkpt lat="44.97701" lon="4.91787">
        <ele>174.53900146484</ele>
        <time>2009-10-18T08:13:18Z</time>
      </trkpt>
      <trkpt lat="44.97674" lon="4.91752">
        <ele>172.18600463867</ele>
        <time>2009-10-18T08:13:21Z</time>
      </trkpt>
      <trkpt lat="44.97663" lon="4.91745">
        <ele>171.68800354004</ele>
        <time>2009-10-18T08:13:22Z</time>
      </trkpt>
      <trkpt lat="44.97572" lon="4.91704">
        <ele>164.52000427246</ele>
        <time>2009-10-18T08:13:29Z</time>
      </trkpt>
      <trkpt lat="44.97506" lon="4.91678">
        <ele>160.47799682617</ele>
        <time>2009-10-18T08:13:34Z</time>
      </trkpt>
      <trkpt lat="44.97418" lon="4.9164">
        <ele>158.64999389648</ele>
        <time>2009-10-18T08:13:41Z</time>
      </trkpt>
      <trkpt lat="44.97347" lon="4.91603">
        <ele>155.42900085449</ele>
        <time>2009-10-18T08:13:47Z</time>
      </trkpt>
      <trkpt lat="44.97297" lon="4.91547">
        <ele>153.31399536133</ele>
        <time>2009-10-18T08:13:52Z</time>
      </trkpt>
      <trkpt lat="44.9726" lon="4.91525">
        <ele>151.55000305176</ele>
        <time>2009-10-18T08:13:55Z</time>
      </trkpt>
      <trkpt lat="44.97181" lon="4.91499">
        <ele>148.59899902344</ele>
        <time>2009-10-18T08:14:01Z</time>
      </trkpt>
      <trkpt lat="44.97124" lon="4.91488">
        <ele>146.80499267578</ele>
        <time>2009-10-18T08:14:05Z</time>
      </trkpt>
      <trkpt lat="44.97068" lon="4.91488">
        <ele>148.47099304199</ele>
        <time>2009-10-18T08:14:09Z</time>
      </trkpt>
      <trkpt lat="44.97015" lon="4.91483">
        <ele>150.44200134277</ele>
        <time>2009-10-18T08:14:13Z</time>
      </trkpt>
      <trkpt lat="44.96957" lon="4.91495">
        <ele>155.06100463867</ele>
        <time>2009-10-18T08:14:18Z</time>
      </trkpt>
      <trkpt lat="44.96946" lon="4.91499">
        <ele>155.2799987793</ele>
        <time>2009-10-18T08:14:19Z</time>
      </trkpt>
      <trkpt lat="44.96896" lon="4.91507">
        <ele>153.1609954834</ele>
        <time>2009-10-18T08:14:24Z</time>
      </trkpt>
      <trkpt lat="44.96886" lon="4.91507">
        <ele>153.03199768066</ele>
        <time>2009-10-18T08:14:25Z</time>
      </trkpt>
      <trkpt lat="44.96816" lon="4.91517">
        <ele>150.74099731445</ele>
        <time>2009-10-18T08:14:32Z</time>
      </trkpt>
      <trkpt lat="44.96772" lon="4.91531">
        <ele>149.2559967041</ele>
        <time>2009-10-18T08:14:37Z</time>
      </trkpt>
      <trkpt lat="44.96705" lon="4.91551">
        <ele>150.35600280762</ele>
        <time>2009-10-18T08:14:45Z</time>
      </trkpt>
      <trkpt lat="44.96681" lon="4.91556">
        <ele>149.51100158691</ele>
        <time>2009-10-18T08:14:48Z</time>
      </trkpt>
      <trkpt lat="44.96627" lon="4.91581">
        <ele>148.94799804688</ele>
        <time>2009-10-18T08:14:55Z</time>
      </trkpt>
      <trkpt lat="44.96573" lon="4.91604">
        <ele>149.09800720215</ele>
        <time>2009-10-18T08:15:02Z</time>
      </trkpt>
      <trkpt lat="44.96527" lon="4.91606">
        <ele>150.87199401856</ele>
        <time>2009-10-18T08:15:08Z</time>
      </trkpt>
      <trkpt lat="44.96489" lon="4.91592">
        <ele>153.46899414062</ele>
        <time>2009-10-18T08:15:14Z</time>
      </trkpt>
      <trkpt lat="44.9644" lon="4.91569">
        <ele>152.50100708008</ele>
        <time>2009-10-18T08:15:22Z</time>
      </trkpt>
      <trkpt lat="44.96403" lon="4.91546">
        <ele>150.95300292969</ele>
        <time>2009-10-18T08:15:27Z</time>
      </trkpt>
      <trkpt lat="44.96364" lon="4.91529">
        <ele>150.52000427246</ele>
        <time>2009-10-18T08:15:32Z</time>
      </trkpt>
      <trkpt lat="44.96334" lon="4.9152">
        <ele>149.97799682617</ele>
        <time>2009-10-18T08:15:36Z</time>
      </trkpt>
      <trkpt lat="44.96291" lon="4.91503">
        <ele>149.55299377441</ele>
        <time>2009-10-18T08:15:42Z</time>
      </trkpt>
      <trkpt lat="44.96268" lon="4.9148">
        <ele>150.21899414062</ele>
        <time>2009-10-18T08:15:46Z</time>
      </trkpt>
      <trkpt lat="44.96264" lon="4.91471">
        <ele>150.42599487305</ele>
        <time>2009-10-18T08:15:47Z</time>
      </trkpt>
      <trkpt lat="44.9624" lon="4.91434">
        <ele>150.05400085449</ele>
        <time>2009-10-18T08:15:52Z</time>
      </trkpt>
      <trkpt lat="44.96221" lon="4.91418">
        <ele>149.65100097656</ele>
        <time>2009-10-18T08:15:55Z</time>
      </trkpt>
      <trkpt lat="44.96199" lon="4.91388">
        <ele>149.59899902344</ele>
        <time>2009-10-18T08:15:59Z</time>
      </trkpt>
      <trkpt lat="44.96161" lon="4.913">
        <ele>148.63999938965</ele>
        <time>2009-10-18T08:16:08Z</time>
      </trkpt>
      <trkpt lat="44.96138" lon="4.9124">
        <ele>148.21000671387</ele>
        <time>2009-10-18T08:16:14Z</time>
      </trkpt>
      <trkpt lat="44.96107" lon="4.91174">
        <ele>148.14199829102</ele>
        <time>2009-10-18T08:16:21Z</time>
      </trkpt>
      <trkpt lat="44.96067" lon="4.91094">
        <ele>148.14199829102</ele>
        <time>2009-10-18T08:16:30Z</time>
      </trkpt>
      <trkpt lat="44.9604" lon="4.91036">
        <ele>147.89300537109</ele>
        <time>2009-10-18T08:16:37Z</time>
      </trkpt>
      <trkpt lat="44.96037" lon="4.91006">
        <ele>148.11599731445</ele>
        <time>2009-10-18T08:16:41Z</time>
      </trkpt>
      <trkpt lat="44.96039" lon="4.91">
        <ele>148.92300415039</ele>
        <time>2009-10-18T08:16:42Z</time>
      </trkpt>
      <trkpt lat="44.96044" lon="4.90988">
        <ele>148.7799987793</ele>
        <time>2009-10-18T08:16:44Z</time>
      </trkpt>
      <trkpt lat="44.96064" lon="4.90966">
        <ele>148.41900634766</ele>
        <time>2009-10-18T08:16:48Z</time>
      </trkpt>
      <trkpt lat="44.961" lon="4.90955">
        <ele>148.38800048828</ele>
        <time>2009-10-18T08:16:54Z</time>
      </trkpt>
      <trkpt lat="44.96136" lon="4.9096">
        <ele>149.29600524902</ele>
        <time>2009-10-18T08:17:01Z</time>
      </trkpt>
      <trkpt lat="44.96175" lon="4.90969">
        <ele>149.15899658203</ele>
        <time>2009-10-18T08:17:10Z</time>
      </trkpt>
      <trkpt lat="44.96211" lon="4.90977">
        <ele>148.90800476074</ele>
        <time>2009-10-18T08:17:19Z</time>
      </trkpt>
      <trkpt lat="44.96247" lon="4.90984">
        <ele>150.14300537109</ele>
        <time>2009-10-18T08:17:27Z</time>
      </trkpt>
      <trkpt lat="44.9628" lon="4.90991">
        <ele>152.31100463867</ele>
        <time>2009-10-18T08:17:34Z</time>
      </trkpt>
      <trkpt lat="44.96318" lon="4.91">
        <ele>151.90400695801</ele>
        <time>2009-10-18T08:17:41Z</time>
      </trkpt>
      <trkpt lat="44.96342" lon="4.91005">
        <ele>152.78500366211</ele>
        <time>2009-10-18T08:17:45Z</time>
      </trkpt>
      <trkpt lat="44.96379" lon="4.91016">
        <ele>152.60099792481</ele>
        <time>2009-10-18T08:17:51Z</time>
      </trkpt>
      <trkpt lat="44.96423" lon="4.91034">
        <ele>151.03900146484</ele>
        <time>2009-10-18T08:17:58Z</time>
      </trkpt>
      <trkpt lat="44.96429" lon="4.91038">
        <ele>150.80900573731</ele>
        <time>2009-10-18T08:17:59Z</time>
      </trkpt>
      <trkpt lat="44.96445" lon="4.91053">
        <ele>152.03500366211</ele>
        <time>2009-10-18T08:18:02Z</time>
      </trkpt>
      <trkpt lat="44.96471" lon="4.91056">
        <ele>153.88200378418</ele>
        <time>2009-10-18T08:18:06Z</time>
      </trkpt>
      <trkpt lat="44.96525" lon="4.91049">
        <ele>152.125</ele>
        <time>2009-10-18T08:18:14Z</time>
      </trkpt>
      <trkpt lat="44.96546" lon="4.91048">
        <ele>151.15400695801</ele>
        <time>2009-10-18T08:18:17Z</time>
      </trkpt>
      <trkpt lat="44.96574" lon="4.91058">
        <ele>150.33200073242</ele>
        <time>2009-10-18T08:18:21Z</time>
      </trkpt>
      <trkpt lat="44.96608" lon="4.91065">
        <ele>152.45599365234</ele>
        <time>2009-10-18T08:18:26Z</time>
      </trkpt>
      <trkpt lat="44.96635" lon="4.91051">
        <ele>150.17900085449</ele>
        <time>2009-10-18T08:18:30Z</time>
      </trkpt>
      <trkpt lat="44.96672" lon="4.91046">
        <ele>150.07000732422</ele>
        <time>2009-10-18T08:18:35Z</time>
      </trkpt>
      <trkpt lat="44.96729" lon="4.91048">
        <ele>148.66700744629</ele>
        <time>2009-10-18T08:18:43Z</time>
      </trkpt>
      <trkpt lat="44.96758" lon="4.91047">
        <ele>150.0119934082</ele>
        <time>2009-10-18T08:18:47Z</time>
      </trkpt>
      <trkpt lat="44.96804" lon="4.91049">
        <ele>150.5299987793</ele>
        <time>2009-10-18T08:18:54Z</time>
      </trkpt>
      <trkpt lat="44.96817" lon="4.91048">
        <ele>150.18699645996</ele>
        <time>2009-10-18T08:18:56Z</time>
      </trkpt>
      <trkpt lat="44.96869" lon="4.91025">
        <ele>152.96299743652</ele>
        <time>2009-10-18T08:19:04Z</time>
      </trkpt>
      <trkpt lat="44.9692" lon="4.91">
        <ele>152.77499389648</ele>
        <time>2009-10-18T08:19:11Z</time>
      </trkpt>
      <trkpt lat="44.96998" lon="4.90961">
        <ele>151.99200439453</ele>
        <time>2009-10-18T08:19:22Z</time>
      </trkpt>
      <trkpt lat="44.9704" lon="4.90942">
        <ele>152.6549987793</ele>
        <time>2009-10-18T08:19:28Z</time>
      </trkpt>
      <trkpt lat="44.9707" lon="4.90943">
        <ele>152.84100341797</ele>
        <time>2009-10-18T08:19:32Z</time>
      </trkpt>
      <trkpt lat="44.97088" lon="4.90957">
        <ele>152.80900573731</ele>
        <time>2009-10-18T08:19:35Z</time>
      </trkpt>
      <trkpt lat="44.97117" lon="4.90987">
        <ele>150.49600219727</ele>
        <time>2009-10-18T08:19:40Z</time>
      </trkpt>
      <trkpt lat="44.97148" lon="4.90994">
        <ele>150.07299804688</ele>
        <time>2009-10-18T08:19:44Z</time>
      </trkpt>
      <trkpt lat="44.9717" lon="4.9098">
        <ele>150.05000305176</ele>
        <time>2009-10-18T08:19:47Z</time>
      </trkpt>
      <trkpt lat="44.97176" lon="4.90972">
        <ele>151.50700378418</ele>
        <time>2009-10-18T08:19:48Z</time>
      </trkpt>
      <trkpt lat="44.97212" lon="4.90912">
        <ele>149.97900390625</ele>
        <time>2009-10-18T08:19:55Z</time>
      </trkpt>
      <trkpt lat="44.97263" lon="4.90828">
        <ele>149.26100158691</ele>
        <time>2009-10-18T08:20:04Z</time>
      </trkpt>
      <trkpt lat="44.97315" lon="4.9073">
        <ele>149.91299438477</ele>
        <time>2009-10-18T08:20:14Z</time>
      </trkpt>
      <trkpt lat="44.97356" lon="4.90645">
        <ele>149.94400024414</ele>
        <time>2009-10-18T08:20:23Z</time>
      </trkpt>
      <trkpt lat="44.97375" lon="4.90604">
        <ele>146.57000732422</ele>
        <time>2009-10-18T08:20:27Z</time>
      </trkpt>
      <trkpt lat="44.97398" lon="4.90564">
        <ele>146.77699279785</ele>
        <time>2009-10-18T08:20:31Z</time>
      </trkpt>
      <trkpt lat="44.97427" lon="4.90538">
        <ele>145.69599914551</ele>
        <time>2009-10-18T08:20:35Z</time>
      </trkpt>
      <trkpt lat="44.97475" lon="4.90504">
        <ele>146.42100524902</ele>
        <time>2009-10-18T08:20:42Z</time>
      </trkpt>
      <trkpt lat="44.97523" lon="4.90472">
        <ele>146.19799804688</ele>
        <time>2009-10-18T08:20:48Z</time>
      </trkpt>
      <trkpt lat="44.97587" lon="4.90429">
        <ele>143.90899658203</ele>
        <time>2009-10-18T08:20:55Z</time>
      </trkpt>
      <trkpt lat="44.97662" lon="4.90374">
        <ele>141.23500061035</ele>
        <time>2009-10-18T08:21:03Z</time>
      </trkpt>
      <trkpt lat="44.9767" lon="4.90365">
        <ele>140.50900268555</ele>
        <time>2009-10-18T08:21:04Z</time>
      </trkpt>
      <trkpt lat="44.97718" lon="4.90302">
        <ele>138.00399780273</ele>
        <time>2009-10-18T08:21:10Z</time>
      </trkpt>
      <trkpt lat="44.97751" lon="4.90261">
        <ele>136.7440032959</ele>
        <time>2009-10-18T08:21:14Z</time>
      </trkpt>
      <trkpt lat="44.97807" lon="4.90188">
        <ele>133.98599243164</ele>
        <time>2009-10-18T08:21:21Z</time>
      </trkpt>
      <trkpt lat="44.97824" lon="4.9017">
        <ele>135.69599914551</ele>
        <time>2009-10-18T08:21:23Z</time>
      </trkpt>
      <trkpt lat="44.97863" lon="4.90127">
        <ele>134.80900573731</ele>
        <time>2009-10-18T08:21:28Z</time>
      </trkpt>
      <trkpt lat="44.97897" lon="4.90108">
        <ele>134.85299682617</ele>
        <time>2009-10-18T08:21:32Z</time>
      </trkpt>
      <trkpt lat="44.97915" lon="4.90108">
        <ele>135.19500732422</ele>
        <time>2009-10-18T08:21:34Z</time>
      </trkpt>
      <trkpt lat="44.9799" lon="4.90118">
        <ele>134.16499328613</ele>
        <time>2009-10-18T08:21:43Z</time>
      </trkpt>
      <trkpt lat="44.98061" lon="4.90126">
        <ele>133.64799499512</ele>
        <time>2009-10-18T08:21:52Z</time>
      </trkpt>
      <trkpt lat="44.98122" lon="4.90132">
        <ele>133.27000427246</ele>
        <time>2009-10-18T08:22:00Z</time>
      </trkpt>
      <trkpt lat="44.98189" lon="4.90147">
        <ele>133.74099731445</ele>
        <time>2009-10-18T08:22:09Z</time>
      </trkpt>
      <trkpt lat="44.98234" lon="4.90163">
        <ele>134.99800109863</ele>
        <time>2009-10-18T08:22:15Z</time>
      </trkpt>
      <trkpt lat="44.98254" lon="4.90154">
        <ele>134.27900695801</ele>
        <time>2009-10-18T08:22:18Z</time>
      </trkpt>
      <trkpt lat="44.9826" lon="4.90135">
        <ele>134.49000549316</ele>
        <time>2009-10-18T08:22:20Z</time>
      </trkpt>
      <trkpt lat="44.98277" lon="4.90058">
        <ele>134.59599304199</ele>
        <time>2009-10-18T08:22:27Z</time>
      </trkpt>
      <trkpt lat="44.983" lon="4.90013">
        <ele>134.35299682617</ele>
        <time>2009-10-18T08:22:32Z</time>
      </trkpt>
      <trkpt lat="44.98314" lon="4.90005">
        <ele>133.44200134277</ele>
        <time>2009-10-18T08:22:34Z</time>
      </trkpt>
      <trkpt lat="44.98335" lon="4.90013">
        <ele>131.78799438477</ele>
        <time>2009-10-18T08:22:37Z</time>
      </trkpt>
      <trkpt lat="44.98341" lon="4.90019">
        <ele>131.5950012207</ele>
        <time>2009-10-18T08:22:38Z</time>
      </trkpt>
      <trkpt lat="44.98377" lon="4.90058">
        <ele>132.36500549316</ele>
        <time>2009-10-18T08:22:44Z</time>
      </trkpt>
      <trkpt lat="44.98425" lon="4.9013">
        <ele>132.55000305176</ele>
        <time>2009-10-18T08:22:53Z</time>
      </trkpt>
      <trkpt lat="44.98462" lon="4.90184">
        <ele>132.44599914551</ele>
        <time>2009-10-18T08:23:00Z</time>
      </trkpt>
      <trkpt lat="44.98508" lon="4.90255">
        <ele>133.21099853516</ele>
        <time>2009-10-18T08:23:09Z</time>
      </trkpt>
      <trkpt lat="44.98573" lon="4.90351">
        <ele>135.14799499512</ele>
        <time>2009-10-18T08:23:22Z</time>
      </trkpt>
      <trkpt lat="44.98613" lon="4.90407">
        <ele>134.24600219727</ele>
        <time>2009-10-18T08:23:30Z</time>
      </trkpt>
      <trkpt lat="44.98639" lon="4.90439">
        <ele>135.05499267578</ele>
        <time>2009-10-18T08:23:35Z</time>
      </trkpt>
      <trkpt lat="44.98691" lon="4.90505">
        <ele>133.77000427246</ele>
        <time>2009-10-18T08:23:45Z</time>
      </trkpt>
      <trkpt lat="44.9874" lon="4.90565">
        <ele>134.36500549316</ele>
        <time>2009-10-18T08:23:54Z</time>
      </trkpt>
      <trkpt lat="44.98783" lon="4.90619">
        <ele>134.17799377441</ele>
        <time>2009-10-18T08:24:02Z</time>
      </trkpt>
      <trkpt lat="44.98834" lon="4.90681">
        <ele>135.32000732422</ele>
        <time>2009-10-18T08:24:11Z</time>
      </trkpt>
      <trkpt lat="44.98882" lon="4.90742">
        <ele>134.69299316406</ele>
        <time>2009-10-18T08:24:20Z</time>
      </trkpt>
      <trkpt lat="44.98938" lon="4.90817">
        <ele>135.83399963379</ele>
        <time>2009-10-18T08:24:31Z</time>
      </trkpt>
      <trkpt lat="44.98953" lon="4.90837">
        <ele>134.24200439453</ele>
        <time>2009-10-18T08:24:34Z</time>
      </trkpt>
      <trkpt lat="44.99006" lon="4.90911">
        <ele>134.03199768066</ele>
        <time>2009-10-18T08:24:45Z</time>
      </trkpt>
      <trkpt lat="44.99042" lon="4.90961">
        <ele>135.10000610352</ele>
        <time>2009-10-18T08:24:52Z</time>
      </trkpt>
      <trkpt lat="44.99092" lon="4.91025">
        <ele>135.52099609375</ele>
        <time>2009-10-18T08:25:02Z</time>
      </trkpt>
      <trkpt lat="44.99144" lon="4.91086">
        <ele>135.76899719238</ele>
        <time>2009-10-18T08:25:12Z</time>
      </trkpt>
      <trkpt lat="44.9917" lon="4.91114">
        <ele>136.00199890137</ele>
        <time>2009-10-18T08:25:17Z</time>
      </trkpt>
      <trkpt lat="44.99178" lon="4.91144">
        <ele>137.3869934082</ele>
        <time>2009-10-18T08:25:21Z</time>
      </trkpt>
      <trkpt lat="44.99186" lon="4.91187">
        <ele>139.67100524902</ele>
        <time>2009-10-18T08:25:29Z</time>
      </trkpt>
      <trkpt lat="44.99192" lon="4.91222">
        <ele>141.78799438477</ele>
        <time>2009-10-18T08:25:37Z</time>
      </trkpt>
      <trkpt lat="44.99199" lon="4.91254">
        <ele>142.36999511719</ele>
        <time>2009-10-18T08:25:44Z</time>
      </trkpt>
      <trkpt lat="44.99201" lon="4.91268">
        <ele>144.31700134277</ele>
        <time>2009-10-18T08:25:47Z</time>
      </trkpt>
      <trkpt lat="44.99205" lon="4.91302">
        <ele>145.68400573731</ele>
        <time>2009-10-18T08:25:55Z</time>
      </trkpt>
      <trkpt lat="44.99203" lon="4.91328">
        <ele>147.22700500488</ele>
        <time>2009-10-18T08:26:01Z</time>
      </trkpt>
      <trkpt lat="44.992" lon="4.91349">
        <ele>149.13999938965</ele>
        <time>2009-10-18T08:26:06Z</time>
      </trkpt>
      <trkpt lat="44.99195" lon="4.91377">
        <ele>150.42999267578</ele>
        <time>2009-10-18T08:26:13Z</time>
      </trkpt>
      <trkpt lat="44.99191" lon="4.91402">
        <ele>151.8690032959</ele>
        <time>2009-10-18T08:26:19Z</time>
      </trkpt>
      <trkpt lat="44.99185" lon="4.91426">
        <ele>153.28300476074</ele>
        <time>2009-10-18T08:26:25Z</time>
      </trkpt>
      <trkpt lat="44.99175" lon="4.91462">
        <ele>155.53900146484</ele>
        <time>2009-10-18T08:26:33Z</time>
      </trkpt>
      <trkpt lat="44.99166" lon="4.91502">
        <ele>157.25700378418</ele>
        <time>2009-10-18T08:26:42Z</time>
      </trkpt>
      <trkpt lat="44.99162" lon="4.91528">
        <ele>158.52400207519</ele>
        <time>2009-10-18T08:26:48Z</time>
      </trkpt>
      <trkpt lat="44.99162" lon="4.9156">
        <ele>159.90699768066</ele>
        <time>2009-10-18T08:26:55Z</time>
      </trkpt>
      <trkpt lat="44.99167" lon="4.91597">
        <ele>162.09800720215</ele>
        <time>2009-10-18T08:27:03Z</time>
      </trkpt>
      <trkpt lat="44.99172" lon="4.91634">
        <ele>164.71200561523</ele>
        <time>2009-10-18T08:27:11Z</time>
      </trkpt>
      <trkpt lat="44.99173" lon="4.91641">
        <ele>165.33799743652</ele>
        <time>2009-10-18T08:27:13Z</time>
      </trkpt>
      <trkpt lat="44.99177" lon="4.91671">
        <ele>167.3690032959</ele>
        <time>2009-10-18T08:27:20Z</time>
      </trkpt>
      <trkpt lat="44.99184" lon="4.91692">
        <ele>168.22300720215</ele>
        <time>2009-10-18T08:27:25Z</time>
      </trkpt>
      <trkpt lat="44.99191" lon="4.91711">
        <ele>168.86799621582</ele>
        <time>2009-10-18T08:27:30Z</time>
      </trkpt>
      <trkpt lat="44.99202" lon="4.91729">
        <ele>170.15800476074</ele>
        <time>2009-10-18T08:27:35Z</time>
      </trkpt>
      <trkpt lat="44.9922" lon="4.91754">
        <ele>171.79499816894</ele>
        <time>2009-10-18T08:27:42Z</time>
      </trkpt>
      <trkpt lat="44.99224" lon="4.91774">
        <ele>172.88400268555</ele>
        <time>2009-10-18T08:27:47Z</time>
      </trkpt>
      <trkpt lat="44.99221" lon="4.91792">
        <ele>175.47099304199</ele>
        <time>2009-10-18T08:27:52Z</time>
      </trkpt>
      <trkpt lat="44.99211" lon="4.91816">
        <ele>177.41299438477</ele>
        <time>2009-10-18T08:28:00Z</time>
      </trkpt>
      <trkpt lat="44.99197" lon="4.91846">
        <ele>180.27200317383</ele>
        <time>2009-10-18T08:28:09Z</time>
      </trkpt>
      <trkpt lat="44.99184" lon="4.91878">
        <ele>182.89900207519</ele>
        <time>2009-10-18T08:28:15Z</time>
      </trkpt>
      <trkpt lat="44.9917" lon="4.91926">
        <ele>184.19900512695</ele>
        <time>2009-10-18T08:28:24Z</time>
      </trkpt>
      <trkpt lat="44.99161" lon="4.9196">
        <ele>185.32699584961</ele>
        <time>2009-10-18T08:28:30Z</time>
      </trkpt>
      <trkpt lat="44.99147" lon="4.92007">
        <ele>186.32600402832</ele>
        <time>2009-10-18T08:28:38Z</time>
      </trkpt>
      <trkpt lat="44.9915" lon="4.92029">
        <ele>186.95899963379</ele>
        <time>2009-10-18T08:28:42Z</time>
      </trkpt>
      <trkpt lat="44.99197" lon="4.92065">
        <ele>187.26899719238</ele>
        <time>2009-10-18T08:28:52Z</time>
      </trkpt>
      <trkpt lat="44.99236" lon="4.92098">
        <ele>187.70399475098</ele>
        <time>2009-10-18T08:29:01Z</time>
      </trkpt>
      <trkpt lat="44.9926" lon="4.92119">
        <ele>187.12100219727</ele>
        <time>2009-10-18T08:29:07Z</time>
      </trkpt>
      <trkpt lat="44.99303" lon="4.92156">
        <ele>186.17599487305</ele>
        <time>2009-10-18T08:29:17Z</time>
      </trkpt>
      <trkpt lat="44.99348" lon="4.92194">
        <ele>185.22799682617</ele>
        <time>2009-10-18T08:29:27Z</time>
      </trkpt>
      <trkpt lat="44.99375" lon="4.92217">
        <ele>187.47200012207</ele>
        <time>2009-10-18T08:29:34Z</time>
      </trkpt>
      <trkpt lat="44.99389" lon="4.92229">
        <ele>187.56500244141</ele>
        <time>2009-10-18T08:29:38Z</time>
      </trkpt>
      <trkpt lat="44.99422" lon="4.92257">
        <ele>188.36700439453</ele>
        <time>2009-10-18T08:29:47Z</time>
      </trkpt>
      <trkpt lat="44.99429" lon="4.92264">
        <ele>189.23899841309</ele>
        <time>2009-10-18T08:29:49Z</time>
      </trkpt>
      <trkpt lat="44.99439" lon="4.92288">
        <ele>188.01300048828</ele>
        <time>2009-10-18T08:29:54Z</time>
      </trkpt>
      <trkpt lat="44.99434" lon="4.92307">
        <ele>187.92500305176</ele>
        <time>2009-10-18T08:29:57Z</time>
      </trkpt>
      <trkpt lat="44.99417" lon="4.9239">
        <ele>188.91299438477</ele>
        <time>2009-10-18T08:30:09Z</time>
      </trkpt>
      <trkpt lat="44.99403" lon="4.92455">
        <ele>189.25399780273</ele>
        <time>2009-10-18T08:30:18Z</time>
      </trkpt>
      <trkpt lat="44.99391" lon="4.92514">
        <ele>186.97099304199</ele>
        <time>2009-10-18T08:30:26Z</time>
      </trkpt>
      <trkpt lat="44.99379" lon="4.92568">
        <ele>188.15400695801</ele>
        <time>2009-10-18T08:30:33Z</time>
      </trkpt>
      <trkpt lat="44.99364" lon="4.92631">
        <ele>189.18200683594</ele>
        <time>2009-10-18T08:30:41Z</time>
      </trkpt>
      <trkpt lat="44.9935" lon="4.92696">
        <ele>188.79400634766</ele>
        <time>2009-10-18T08:30:49Z</time>
      </trkpt>
      <trkpt lat="44.99333" lon="4.9277">
        <ele>188.99000549316</ele>
        <time>2009-10-18T08:30:58Z</time>
      </trkpt>
      <trkpt lat="44.99313" lon="4.92851">
        <ele>188.99499511719</ele>
        <time>2009-10-18T08:31:08Z</time>
      </trkpt>
      <trkpt lat="44.99288" lon="4.92941">
        <ele>188.98399353027</ele>
        <time>2009-10-18T08:31:19Z</time>
      </trkpt>
      <trkpt lat="44.99272" lon="4.93">
        <ele>189.56100463867</ele>
        <time>2009-10-18T08:31:26Z</time>
      </trkpt>
      <trkpt lat="44.99252" lon="4.93078">
        <ele>189.90600585938</ele>
        <time>2009-10-18T08:31:35Z</time>
      </trkpt>
      <trkpt lat="44.99234" lon="4.93159">
        <ele>189.98500061035</ele>
        <time>2009-10-18T08:31:44Z</time>
      </trkpt>
      <trkpt lat="44.99237" lon="4.93224">
        <ele>190.36999511719</ele>
        <time>2009-10-18T08:31:51Z</time>
      </trkpt>
      <trkpt lat="44.99237" lon="4.93232">
        <ele>190.27000427246</ele>
        <time>2009-10-18T08:31:52Z</time>
      </trkpt>
      <trkpt lat="44.99229" lon="4.93248">
        <ele>190.45799255371</ele>
        <time>2009-10-18T08:31:55Z</time>
      </trkpt>
      <trkpt lat="44.99223" lon="4.93248">
        <ele>190.44000244141</ele>
        <time>2009-10-18T08:31:56Z</time>
      </trkpt>
      <trkpt lat="44.99202" lon="4.93245">
        <ele>189.88299560547</ele>
        <time>2009-10-18T08:32:00Z</time>
      </trkpt>
      <trkpt lat="44.99153" lon="4.93241">
        <ele>189.79600524902</ele>
        <time>2009-10-18T08:32:08Z</time>
      </trkpt>
      <trkpt lat="44.99102" lon="4.93236">
        <ele>190.33299255371</ele>
        <time>2009-10-18T08:32:17Z</time>
      </trkpt>
      <trkpt lat="44.9906" lon="4.93234">
        <ele>190.52099609375</ele>
        <time>2009-10-18T08:32:25Z</time>
      </trkpt>
      <trkpt lat="44.9902" lon="4.93232">
        <ele>190.10400390625</ele>
        <time>2009-10-18T08:32:32Z</time>
      </trkpt>
      <trkpt lat="44.9897" lon="4.93228">
        <ele>191.17599487305</ele>
        <time>2009-10-18T08:32:40Z</time>
      </trkpt>
      <trkpt lat="44.98923" lon="4.93226">
        <ele>191.33500671387</ele>
        <time>2009-10-18T08:32:47Z</time>
      </trkpt>
      <trkpt lat="44.98872" lon="4.93222">
        <ele>190.74299621582</ele>
        <time>2009-10-18T08:32:55Z</time>
      </trkpt>
      <trkpt lat="44.9883" lon="4.93207">
        <ele>191.00100708008</ele>
        <time>2009-10-18T08:33:02Z</time>
      </trkpt>
      <trkpt lat="44.98764" lon="4.93175">
        <ele>191.3690032959</ele>
        <time>2009-10-18T08:33:13Z</time>
      </trkpt>
      <trkpt lat="44.98703" lon="4.93146">
        <ele>190.75900268555</ele>
        <time>2009-10-18T08:33:23Z</time>
      </trkpt>
      <trkpt lat="44.98641" lon="4.93115">
        <ele>190.84599304199</ele>
        <time>2009-10-18T08:33:33Z</time>
      </trkpt>
      <trkpt lat="44.98584" lon="4.9309">
        <ele>190.46200561523</ele>
        <time>2009-10-18T08:33:42Z</time>
      </trkpt>
      <trkpt lat="44.98535" lon="4.93064">
        <ele>189.74000549316</ele>
        <time>2009-10-18T08:33:50Z</time>
      </trkpt>
      <trkpt lat="44.98463" lon="4.9302">
        <ele>190.43299865723</ele>
        <time>2009-10-18T08:34:02Z</time>
      </trkpt>
      <trkpt lat="44.98457" lon="4.93015">
        <ele>190.11700439453</ele>
        <time>2009-10-18T08:34:03Z</time>
      </trkpt>
      <trkpt lat="44.9843" lon="4.92977">
        <ele>190.07299804688</ele>
        <time>2009-10-18T08:34:09Z</time>
      </trkpt>
      <trkpt lat="44.98396" lon="4.92932">
        <ele>190.05900573731</ele>
        <time>2009-10-18T08:34:16Z</time>
      </trkpt>
      <trkpt lat="44.98368" lon="4.92892">
        <ele>189.82099914551</ele>
        <time>2009-10-18T08:34:22Z</time>
      </trkpt>
      <trkpt lat="44.98352" lon="4.92864">
        <ele>189.98100280762</ele>
        <time>2009-10-18T08:34:26Z</time>
      </trkpt>
      <trkpt lat="44.9833" lon="4.92805">
        <ele>189.60299682617</ele>
        <time>2009-10-18T08:34:34Z</time>
      </trkpt>
      <trkpt lat="44.98307" lon="4.92746">
        <ele>189.3869934082</ele>
        <time>2009-10-18T08:34:43Z</time>
      </trkpt>
      <trkpt lat="44.98274" lon="4.92694">
        <ele>189.55299377441</ele>
        <time>2009-10-18T08:34:52Z</time>
      </trkpt>
      <trkpt lat="44.98236" lon="4.92643">
        <ele>189.65800476074</ele>
        <time>2009-10-18T08:35:01Z</time>
      </trkpt>
      <trkpt lat="44.98194" lon="4.92587">
        <ele>189.44200134277</ele>
        <time>2009-10-18T08:35:11Z</time>
      </trkpt>
      <trkpt lat="44.98169" lon="4.92569">
        <ele>189.09199523926</ele>
        <time>2009-10-18T08:35:16Z</time>
      </trkpt>
      <trkpt lat="44.98114" lon="4.92543">
        <ele>189.72700500488</ele>
        <time>2009-10-18T08:35:26Z</time>
      </trkpt>
      <trkpt lat="44.98072" lon="4.92506">
        <ele>189.19799804688</ele>
        <time>2009-10-18T08:35:35Z</time>
      </trkpt>
      <trkpt lat="44.98023" lon="4.92457">
        <ele>188.47900390625</ele>
        <time>2009-10-18T08:35:46Z</time>
      </trkpt>
      <trkpt lat="44.97998" lon="4.9243">
        <ele>188.31799316406</ele>
        <time>2009-10-18T08:35:52Z</time>
      </trkpt>
      <trkpt lat="44.97962" lon="4.92394">
        <ele>188.20700073242</ele>
        <time>2009-10-18T08:36:00Z</time>
      </trkpt>
      <trkpt lat="44.97926" lon="4.92358">
        <ele>188.18499755859</ele>
        <time>2009-10-18T08:36:08Z</time>
      </trkpt>
      <trkpt lat="44.97904" lon="4.92326">
        <ele>187.91700744629</ele>
        <time>2009-10-18T08:36:14Z</time>
      </trkpt>
      <trkpt lat="44.9789" lon="4.92287">
        <ele>187.21899414062</ele>
        <time>2009-10-18T08:36:20Z</time>
      </trkpt>
      <trkpt lat="44.97864" lon="4.92209">
        <ele>186.36599731445</ele>
        <time>2009-10-18T08:36:31Z</time>
      </trkpt>
      <trkpt lat="44.97857" lon="4.92188">
        <ele>186.90100097656</ele>
        <time>2009-10-18T08:36:34Z</time>
      </trkpt>
      <trkpt lat="44.97846" lon="4.92161">
        <ele>186.82499694824</ele>
        <time>2009-10-18T08:36:38Z</time>
      </trkpt>
      <trkpt lat="44.97831" lon="4.92116">
        <ele>186.75300598144</ele>
        <time>2009-10-18T08:36:44Z</time>
      </trkpt>
      <trkpt lat="44.97815" lon="4.92066">
        <ele>186.55599975586</ele>
        <time>2009-10-18T08:36:49Z</time>
      </trkpt>
      <trkpt lat="44.97803" lon="4.92029">
        <ele>187.27400207519</ele>
        <time>2009-10-18T08:36:52Z</time>
      </trkpt>
      <trkpt lat="44.9779" lon="4.9199">
        <ele>188.04299926758</ele>
        <time>2009-10-18T08:36:55Z</time>
      </trkpt>
      <trkpt lat="44.97776" lon="4.91949">
        <ele>187.90100097656</ele>
        <time>2009-10-18T08:36:58Z</time>
      </trkpt>
      <trkpt lat="44.97759" lon="4.9191">
        <ele>186.83999633789</ele>
        <time>2009-10-18T08:37:01Z</time>
      </trkpt>
      <trkpt lat="44.97745" lon="4.91884">
        <ele>185.36199951172</ele>
        <time>2009-10-18T08:37:03Z</time>
      </trkpt>
      <trkpt lat="44.97738" lon="4.91871">
        <ele>185.06500244141</ele>
        <time>2009-10-18T08:37:04Z</time>
      </trkpt>
      <trkpt lat="44.97713" lon="4.91813">
        <ele>181.49000549316</ele>
        <time>2009-10-18T08:37:08Z</time>
      </trkpt>
      <trkpt lat="44.97707" lon="4.91799">
        <ele>181.35299682617</ele>
        <time>2009-10-18T08:37:09Z</time>
      </trkpt>
      <trkpt lat="44.977" lon="4.91784">
        <ele>179.46099853516</ele>
        <time>2009-10-18T08:37:10Z</time>
      </trkpt>
      <trkpt lat="44.9766" lon="4.91742">
        <ele>176.36399841309</ele>
        <time>2009-10-18T08:37:14Z</time>
      </trkpt>
      <trkpt lat="44.97647" lon="4.91735">
        <ele>175.01899719238</ele>
        <time>2009-10-18T08:37:15Z</time>
      </trkpt>
      <trkpt lat="44.97552" lon="4.91694">
        <ele>166.60499572754</ele>
        <time>2009-10-18T08:37:22Z</time>
      </trkpt>
      <trkpt lat="44.97524" lon="4.91683">
        <ele>165.57299804688</ele>
        <time>2009-10-18T08:37:24Z</time>
      </trkpt>
      <trkpt lat="44.97445" lon="4.91649">
        <ele>163.88400268555</ele>
        <time>2009-10-18T08:37:30Z</time>
      </trkpt>
      <trkpt lat="44.97372" lon="4.91618">
        <ele>161.37899780273</ele>
        <time>2009-10-18T08:37:36Z</time>
      </trkpt>
      <trkpt lat="44.97351" lon="4.91603">
        <ele>160.69799804688</ele>
        <time>2009-10-18T08:37:38Z</time>
      </trkpt>
      <trkpt lat="44.97312" lon="4.91562">
        <ele>159.13299560547</ele>
        <time>2009-10-18T08:37:42Z</time>
      </trkpt>
      <trkpt lat="44.97303" lon="4.91551">
        <ele>158.58500671387</ele>
        <time>2009-10-18T08:37:43Z</time>
      </trkpt>
      <trkpt lat="44.97272" lon="4.91529">
        <ele>157.30799865723</ele>
        <time>2009-10-18T08:37:46Z</time>
      </trkpt>
      <trkpt lat="44.9726" lon="4.91525">
        <ele>157.19000244141</ele>
        <time>2009-10-18T08:37:47Z</time>
      </trkpt>
      <trkpt lat="44.97195" lon="4.91503">
        <ele>156.47599792481</ele>
        <time>2009-10-18T08:37:53Z</time>
      </trkpt>
      <trkpt lat="44.97141" lon="4.9149">
        <ele>152.53399658203</ele>
        <time>2009-10-18T08:37:58Z</time>
      </trkpt>
      <trkpt lat="44.97097" lon="4.91493">
        <ele>152.04899597168</ele>
        <time>2009-10-18T08:38:02Z</time>
      </trkpt>
      <trkpt lat="44.97039" lon="4.91485">
        <ele>153.77699279785</ele>
        <time>2009-10-18T08:38:07Z</time>
      </trkpt>
      <trkpt lat="44.96987" lon="4.9149">
        <ele>157.44700622559</ele>
        <time>2009-10-18T08:38:12Z</time>
      </trkpt>
      <trkpt lat="44.9696" lon="4.91498">
        <ele>159.76699829102</ele>
        <time>2009-10-18T08:38:15Z</time>
      </trkpt>
      <trkpt lat="44.96909" lon="4.91509">
        <ele>157.82200622559</ele>
        <time>2009-10-18T08:38:21Z</time>
      </trkpt>
      <trkpt lat="44.96835" lon="4.91516">
        <ele>155.05799865723</ele>
        <time>2009-10-18T08:38:29Z</time>
      </trkpt>
      <trkpt lat="44.96785" lon="4.91531">
        <ele>155.01400756836</ele>
        <time>2009-10-18T08:38:35Z</time>
      </trkpt>
      <trkpt lat="44.96719" lon="4.91552">
        <ele>154.02000427246</ele>
        <time>2009-10-18T08:38:44Z</time>
      </trkpt>
      <trkpt lat="44.96698" lon="4.91556">
        <ele>154.05000305176</ele>
        <time>2009-10-18T08:38:47Z</time>
      </trkpt>
      <trkpt lat="44.96651" lon="4.91575">
        <ele>153.42399597168</ele>
        <time>2009-10-18T08:38:54Z</time>
      </trkpt>
      <trkpt lat="44.9659" lon="4.91603">
        <ele>153.50199890137</ele>
        <time>2009-10-18T08:39:03Z</time>
      </trkpt>
      <trkpt lat="44.9655" lon="4.9161">
        <ele>154.14799499512</ele>
        <time>2009-10-18T08:39:09Z</time>
      </trkpt>
      <trkpt lat="44.96531" lon="4.91607">
        <ele>155.3809967041</ele>
        <time>2009-10-18T08:39:12Z</time>
      </trkpt>
      <trkpt lat="44.96496" lon="4.91595">
        <ele>157.1309967041</ele>
        <time>2009-10-18T08:39:18Z</time>
      </trkpt>
      <trkpt lat="44.96454" lon="4.91576">
        <ele>156.18400573731</ele>
        <time>2009-10-18T08:39:24Z</time>
      </trkpt>
      <trkpt lat="44.96415" lon="4.91554">
        <ele>154.73899841309</ele>
        <time>2009-10-18T08:39:29Z</time>
      </trkpt>
      <trkpt lat="44.96407" lon="4.91549">
        <ele>155.01600646973</ele>
        <time>2009-10-18T08:39:30Z</time>
      </trkpt>
      <trkpt lat="44.96357" lon="4.91528">
        <ele>153.66499328613</ele>
        <time>2009-10-18T08:39:36Z</time>
      </trkpt>
      <trkpt lat="44.96308" lon="4.91513">
        <ele>154.13800048828</ele>
        <time>2009-10-18T08:39:42Z</time>
      </trkpt>
      <trkpt lat="44.96293" lon="4.91506">
        <ele>154.61000061035</ele>
        <time>2009-10-18T08:39:44Z</time>
      </trkpt>
      <trkpt lat="44.96269" lon="4.91481">
        <ele>155.2859954834</ele>
        <time>2009-10-18T08:39:48Z</time>
      </trkpt>
      <trkpt lat="44.96265" lon="4.91473">
        <ele>154.76600646973</ele>
        <time>2009-10-18T08:39:49Z</time>
      </trkpt>
      <trkpt lat="44.96258" lon="4.91457">
        <ele>154.17500305176</ele>
        <time>2009-10-18T08:39:51Z</time>
      </trkpt>
      <trkpt lat="44.96237" lon="4.91433">
        <ele>153.38800048828</ele>
        <time>2009-10-18T08:39:55Z</time>
      </trkpt>
      <trkpt lat="44.9622" lon="4.91418">
        <ele>153.45799255371</ele>
        <time>2009-10-18T08:39:58Z</time>
      </trkpt>
      <trkpt lat="44.96201" lon="4.9139">
        <ele>154.26499938965</ele>
        <time>2009-10-18T08:40:02Z</time>
      </trkpt>
      <trkpt lat="44.96167" lon="4.91316">
        <ele>153.16799926758</ele>
        <time>2009-10-18T08:40:11Z</time>
      </trkpt>
      <trkpt lat="44.96153" lon="4.91283">
        <ele>153.01899719238</ele>
        <time>2009-10-18T08:40:15Z</time>
      </trkpt>
      <trkpt lat="44.96127" lon="4.91216">
        <ele>152.64900207519</ele>
        <time>2009-10-18T08:40:23Z</time>
      </trkpt>
      <trkpt lat="44.9612" lon="4.91201">
        <ele>152.37399291992</ele>
        <time>2009-10-18T08:40:25Z</time>
      </trkpt>
      <trkpt lat="44.96093" lon="4.91149">
        <ele>152.65600585938</ele>
        <time>2009-10-18T08:40:32Z</time>
      </trkpt>
      <trkpt lat="44.96089" lon="4.91142">
        <ele>151.89300537109</ele>
        <time>2009-10-18T08:40:33Z</time>
      </trkpt>
      <trkpt lat="44.96064" lon="4.91088">
        <ele>152.22099304199</ele>
        <time>2009-10-18T08:40:40Z</time>
      </trkpt>
      <trkpt lat="44.9604" lon="4.91036">
        <ele>152.02600097656</ele>
        <time>2009-10-18T08:40:47Z</time>
      </trkpt>
      <trkpt lat="44.96038" lon="4.91002">
        <ele>153.03500366211</ele>
        <time>2009-10-18T08:40:51Z</time>
      </trkpt>
      <trkpt lat="44.96043" lon="4.90971">
        <ele>151.94700622559</ele>
        <time>2009-10-18T08:40:55Z</time>
      </trkpt>
      <trkpt lat="44.96035" lon="4.90952">
        <ele>151.45899963379</ele>
        <time>2009-10-18T08:40:58Z</time>
      </trkpt>
      <trkpt lat="44.96013" lon="4.90943">
        <ele>151.46000671387</ele>
        <time>2009-10-18T08:41:02Z</time>
      </trkpt>
      <trkpt lat="44.95986" lon="4.90931">
        <ele>151.95599365234</ele>
        <time>2009-10-18T08:41:07Z</time>
      </trkpt>
      <trkpt lat="44.95973" lon="4.90912">
        <ele>151.61500549316</ele>
        <time>2009-10-18T08:41:10Z</time>
      </trkpt>
      <trkpt lat="44.95958" lon="4.90884">
        <ele>151.15800476074</ele>
        <time>2009-10-18T08:41:14Z</time>
      </trkpt>
      <trkpt lat="44.95954" lon="4.90877">
        <ele>151.19599914551</ele>
        <time>2009-10-18T08:41:15Z</time>
      </trkpt>
      <trkpt lat="44.95942" lon="4.90856">
        <ele>151.05599975586</ele>
        <time>2009-10-18T08:41:18Z</time>
      </trkpt>
      <trkpt lat="44.9593" lon="4.90837">
        <ele>150.66200256348</ele>
        <time>2009-10-18T08:41:21Z</time>
      </trkpt>
      <trkpt lat="44.95912" lon="4.90804">
        <ele>151.24899291992</ele>
        <time>2009-10-18T08:41:26Z</time>
      </trkpt>
      <trkpt lat="44.95909" lon="4.90798">
        <ele>150.71600341797</ele>
        <time>2009-10-18T08:41:27Z</time>
      </trkpt>
      <trkpt lat="44.95892" lon="4.90768">
        <ele>150.69099426269</ele>
        <time>2009-10-18T08:41:32Z</time>
      </trkpt>
      <trkpt lat="44.95885" lon="4.90757">
        <ele>151.14100646973</ele>
        <time>2009-10-18T08:41:34Z</time>
      </trkpt>
      <trkpt lat="44.9588" lon="4.90741">
        <ele>151.02400207519</ele>
        <time>2009-10-18T08:41:38Z</time>
      </trkpt>
      <trkpt lat="44.95881" lon="4.90739">
        <ele>151.61999511719</ele>
        <time>2009-10-18T08:41:40Z</time>
      </trkpt>
      <trkpt lat="44.95887" lon="4.90745">
        <ele>150.53500366211</ele>
        <time>2009-10-18T08:41:45Z</time>
      </trkpt>
      <trkpt lat="44.95893" lon="4.90744">
        <ele>150.61000061035</ele>
        <time>2009-10-18T08:41:50Z</time>
      </trkpt>
      <trkpt lat="44.95894" lon="4.90745">
        <ele>150.31199645996</ele>
        <time>2009-10-18T08:41:52Z</time>
      </trkpt>
      <trkpt lat="44.95895" lon="4.90747">
        <ele>150.01100158691</ele>
        <time>2009-10-18T08:41:54Z</time>
      </trkpt>
      <trkpt lat="44.95903" lon="4.90754">
        <ele>149.65800476074</ele>
        <time>2009-10-18T08:42:00Z</time>
      </trkpt>
      <trkpt lat="44.95904" lon="4.90748">
        <ele>149.19700622559</ele>
        <time>2009-10-18T08:42:04Z</time>
      </trkpt>
      <trkpt lat="44.95897" lon="4.90746">
        <ele>149.44400024414</ele>
        <time>2009-10-18T08:42:07Z</time>
      </trkpt>
      <trkpt lat="44.95881" lon="4.90741">
        <ele>149.99800109863</ele>
        <time>2009-10-18T08:42:14Z</time>
      </trkpt>
      <trkpt lat="44.95872" lon="4.90726">
        <ele>149.86599731445</ele>
        <time>2009-10-18T08:42:19Z</time>
      </trkpt>
      <trkpt lat="44.9586" lon="4.90708">
        <ele>150.35499572754</ele>
        <time>2009-10-18T08:42:24Z</time>
      </trkpt>
      <trkpt lat="44.95853" lon="4.90701">
        <ele>150.28500366211</ele>
        <time>2009-10-18T08:42:26Z</time>
      </trkpt>
      <trkpt lat="44.95845" lon="4.90693">
        <ele>150.375</ele>
        <time>2009-10-18T08:42:28Z</time>
      </trkpt>
      <trkpt lat="44.95828" lon="4.90679">
        <ele>150.125</ele>
        <time>2009-10-18T08:42:32Z</time>
      </trkpt>
      <trkpt lat="44.95802" lon="4.90662">
        <ele>149.19500732422</ele>
        <time>2009-10-18T08:42:37Z</time>
      </trkpt>
      <trkpt lat="44.9579" lon="4.90655">
        <ele>148.65600585938</ele>
        <time>2009-10-18T08:42:39Z</time>
      </trkpt>
      <trkpt lat="44.95771" lon="4.90643">
        <ele>147.27400207519</ele>
        <time>2009-10-18T08:42:42Z</time>
      </trkpt>
      <trkpt lat="44.95758" lon="4.90634">
        <ele>146.66499328613</ele>
        <time>2009-10-18T08:42:45Z</time>
      </trkpt>
      <trkpt lat="44.95734" lon="4.90628">
        <ele>145.68400573731</ele>
        <time>2009-10-18T08:42:50Z</time>
      </trkpt>
      <trkpt lat="44.95719" lon="4.90618">
        <ele>144.87699890137</ele>
        <time>2009-10-18T08:42:53Z</time>
      </trkpt>
      <trkpt lat="44.95697" lon="4.9061">
        <ele>144.10200500488</ele>
        <time>2009-10-18T08:42:57Z</time>
      </trkpt>
      <trkpt lat="44.95675" lon="4.90584">
        <ele>142.89500427246</ele>
        <time>2009-10-18T08:43:01Z</time>
      </trkpt>
      <trkpt lat="44.95654" lon="4.90551">
        <ele>141.15199279785</ele>
        <time>2009-10-18T08:43:05Z</time>
      </trkpt>
      <trkpt lat="44.9564" lon="4.90517">
        <ele>139.63600158691</ele>
        <time>2009-10-18T08:43:09Z</time>
      </trkpt>
      <trkpt lat="44.95633" lon="4.9047">
        <ele>138.74800109863</ele>
        <time>2009-10-18T08:43:14Z</time>
      </trkpt>
      <trkpt lat="44.95632" lon="4.90461">
        <ele>138.45300292969</ele>
        <time>2009-10-18T08:43:15Z</time>
      </trkpt>
      <trkpt lat="44.95631" lon="4.9041">
        <ele>137.93800354004</ele>
        <time>2009-10-18T08:43:21Z</time>
      </trkpt>
      <trkpt lat="44.9563" lon="4.90387">
        <ele>136.22300720215</ele>
        <time>2009-10-18T08:43:24Z</time>
      </trkpt>
      <trkpt lat="44.95628" lon="4.90365">
        <ele>136.03500366211</ele>
        <time>2009-10-18T08:43:27Z</time>
      </trkpt>
      <trkpt lat="44.95615" lon="4.90305">
        <ele>133.95899963379</ele>
        <time>2009-10-18T08:43:34Z</time>
      </trkpt>
      <trkpt lat="44.95597" lon="4.90256">
        <ele>132.88299560547</ele>
        <time>2009-10-18T08:43:39Z</time>
      </trkpt>
      <trkpt lat="44.95577" lon="4.90216">
        <ele>131.74899291992</ele>
        <time>2009-10-18T08:43:43Z</time>
      </trkpt>
      <trkpt lat="44.9556" lon="4.90159">
        <ele>130.32699584961</ele>
        <time>2009-10-18T08:43:48Z</time>
      </trkpt>
      <trkpt lat="44.95551" lon="4.90114">
        <ele>129.17399597168</ele>
        <time>2009-10-18T08:43:52Z</time>
      </trkpt>
      <trkpt lat="44.95546" lon="4.90093">
        <ele>129.01300048828</ele>
        <time>2009-10-18T08:43:54Z</time>
      </trkpt>
      <trkpt lat="44.95546" lon="4.90071">
        <ele>128.70599365234</ele>
        <time>2009-10-18T08:43:58Z</time>
      </trkpt>
      <trkpt lat="44.9555" lon="4.90057">
        <ele>129.43200683594</ele>
        <time>2009-10-18T08:44:05Z</time>
      </trkpt>
      <trkpt lat="44.95547" lon="4.90044">
        <ele>128.91900634766</ele>
        <time>2009-10-18T08:44:08Z</time>
      </trkpt>
      <trkpt lat="44.95534" lon="4.90048">
        <ele>127.71199798584</ele>
        <time>2009-10-18T08:44:11Z</time>
      </trkpt>
      <trkpt lat="44.95531" lon="4.90061">
        <ele>128.08000183106</ele>
        <time>2009-10-18T08:44:13Z</time>
      </trkpt>
      <trkpt lat="44.95532" lon="4.90069">
        <ele>127.57800292969</ele>
        <time>2009-10-18T08:44:14Z</time>
      </trkpt>
      <trkpt lat="44.95536" lon="4.90089">
        <ele>127.87000274658</ele>
        <time>2009-10-18T08:44:17Z</time>
      </trkpt>
      <trkpt lat="44.95544" lon="4.90126">
        <ele>128.40600585938</ele>
        <time>2009-10-18T08:44:23Z</time>
      </trkpt>
      <trkpt lat="44.95546" lon="4.90131">
        <ele>128.59199523926</ele>
        <time>2009-10-18T08:44:24Z</time>
      </trkpt>
      <trkpt lat="44.95557" lon="4.90176">
        <ele>130.85899353027</ele>
        <time>2009-10-18T08:44:32Z</time>
      </trkpt>
      <trkpt lat="44.95571" lon="4.90217">
        <ele>130.6369934082</ele>
        <time>2009-10-18T08:44:40Z</time>
      </trkpt>
      <trkpt lat="44.95583" lon="4.90241">
        <ele>131.29100036621</ele>
        <time>2009-10-18T08:44:46Z</time>
      </trkpt>
      <trkpt lat="44.95598" lon="4.90273">
        <ele>133.06700134277</ele>
        <time>2009-10-18T08:44:54Z</time>
      </trkpt>
      <trkpt lat="44.9561" lon="4.90304">
        <ele>134.11399841309</ele>
        <time>2009-10-18T08:45:01Z</time>
      </trkpt>
      <trkpt lat="44.95618" lon="4.90334">
        <ele>135.10600280762</ele>
        <time>2009-10-18T08:45:07Z</time>
      </trkpt>
      <trkpt lat="44.95625" lon="4.90371">
        <ele>135.86000061035</ele>
        <time>2009-10-18T08:45:15Z</time>
      </trkpt>
      <trkpt lat="44.95629" lon="4.90409">
        <ele>136.83299255371</ele>
        <time>2009-10-18T08:45:23Z</time>
      </trkpt>
      <trkpt lat="44.9563" lon="4.90441">
        <ele>137.06599426269</ele>
        <time>2009-10-18T08:45:30Z</time>
      </trkpt>
      <trkpt lat="44.9563" lon="4.9047">
        <ele>138.42900085449</ele>
        <time>2009-10-18T08:45:36Z</time>
      </trkpt>
      <trkpt lat="44.95633" lon="4.9051">
        <ele>139.47200012207</ele>
        <time>2009-10-18T08:45:44Z</time>
      </trkpt>
      <trkpt lat="44.95643" lon="4.9054">
        <ele>140.17100524902</ele>
        <time>2009-10-18T08:45:51Z</time>
      </trkpt>
      <trkpt lat="44.95658" lon="4.90572">
        <ele>141.60800170898</ele>
        <time>2009-10-18T08:45:59Z</time>
      </trkpt>
      <trkpt lat="44.95676" lon="4.90596">
        <ele>142.95500183106</ele>
        <time>2009-10-18T08:46:06Z</time>
      </trkpt>
      <trkpt lat="44.95703" lon="4.9063">
        <ele>146.10899353027</ele>
        <time>2009-10-18T08:46:16Z</time>
      </trkpt>
      <trkpt lat="44.95707" lon="4.90638">
        <ele>145.00100708008</ele>
        <time>2009-10-18T08:46:18Z</time>
      </trkpt>
      <trkpt lat="44.95719" lon="4.90656">
        <ele>145.41600036621</ele>
        <time>2009-10-18T08:46:23Z</time>
      </trkpt>
      <trkpt lat="44.9573" lon="4.90653">
        <ele>145.64799499512</ele>
        <time>2009-10-18T08:46:26Z</time>
      </trkpt>
      <trkpt lat="44.95751" lon="4.90643">
        <ele>147.24099731445</ele>
        <time>2009-10-18T08:46:32Z</time>
      </trkpt>
      <trkpt lat="44.95755" lon="4.9064">
        <ele>147.05400085449</ele>
        <time>2009-10-18T08:46:33Z</time>
      </trkpt>
      <trkpt lat="44.9576" lon="4.90611">
        <ele>147.38000488281</ele>
        <time>2009-10-18T08:46:38Z</time>
      </trkpt>
      <trkpt lat="44.9576" lon="4.90577">
        <ele>147.28999328613</ele>
        <time>2009-10-18T08:46:43Z</time>
      </trkpt>
      <trkpt lat="44.95761" lon="4.9053">
        <ele>148.01899719238</ele>
        <time>2009-10-18T08:46:50Z</time>
      </trkpt>
      <trkpt lat="44.95765" lon="4.90512">
        <ele>149.58399963379</ele>
        <time>2009-10-18T08:46:53Z</time>
      </trkpt>
      <trkpt lat="44.95776" lon="4.90502">
        <ele>149.62800598144</ele>
        <time>2009-10-18T08:46:56Z</time>
      </trkpt>
      <trkpt lat="44.95789" lon="4.90502">
        <ele>149.77499389648</ele>
        <time>2009-10-18T08:46:59Z</time>
      </trkpt>
      <trkpt lat="44.95797" lon="4.90504">
        <ele>151.25999450684</ele>
        <time>2009-10-18T08:47:01Z</time>
      </trkpt>
      <trkpt lat="44.95845" lon="4.90519">
        <ele>151.4109954834</ele>
        <time>2009-10-18T08:47:12Z</time>
      </trkpt>
      <trkpt lat="44.95883" lon="4.9053">
        <ele>151.67399597168</ele>
        <time>2009-10-18T08:47:20Z</time>
      </trkpt>
      <trkpt lat="44.95906" lon="4.90536">
        <ele>152.28100585938</ele>
        <time>2009-10-18T08:47:25Z</time>
      </trkpt>
      <trkpt lat="44.95919" lon="4.90541">
        <ele>149.63200378418</ele>
        <time>2009-10-18T08:47:28Z</time>
      </trkpt>
      <trkpt lat="44.95929" lon="4.90549">
        <ele>150.91799926758</ele>
        <time>2009-10-18T08:47:31Z</time>
      </trkpt>
      <trkpt lat="44.95929" lon="4.90558">
        <ele>150.54699707031</ele>
        <time>2009-10-18T08:47:34Z</time>
      </trkpt>
      <trkpt lat="44.95921" lon="4.90565">
        <ele>151.20199584961</ele>
        <time>2009-10-18T08:47:38Z</time>
      </trkpt>
      <trkpt lat="44.95914" lon="4.90573">
        <ele>149.97700500488</ele>
        <time>2009-10-18T08:47:41Z</time>
      </trkpt>
      <trkpt lat="44.959" lon="4.90586">
        <ele>151.80999755859</ele>
        <time>2009-10-18T08:47:46Z</time>
      </trkpt>
      <trkpt lat="44.95883" lon="4.90605">
        <ele>150.72900390625</ele>
        <time>2009-10-18T08:47:52Z</time>
      </trkpt>
      <trkpt lat="44.95868" lon="4.90613">
        <ele>149.67999267578</ele>
        <time>2009-10-18T08:47:56Z</time>
      </trkpt>
      <trkpt lat="44.95864" lon="4.90628">
        <ele>150.70399475098</ele>
        <time>2009-10-18T08:48:00Z</time>
      </trkpt>
      <trkpt lat="44.95859" lon="4.90647">
        <ele>150.60099792481</ele>
        <time>2009-10-18T08:48:05Z</time>
      </trkpt>
      <trkpt lat="44.95853" lon="4.9066">
        <ele>151.07099914551</ele>
        <time>2009-10-18T08:48:08Z</time>
      </trkpt>
      <trkpt lat="44.95848" lon="4.90674">
        <ele>149.7859954834</ele>
        <time>2009-10-18T08:48:11Z</time>
      </trkpt>
      <trkpt lat="44.95847" lon="4.90691">
        <ele>150.41600036621</ele>
        <time>2009-10-18T08:48:15Z</time>
      </trkpt>
      <trkpt lat="44.9584" lon="4.90691">
        <ele>150.5950012207</ele>
        <time>2009-10-18T08:48:18Z</time>
      </trkpt>
      <trkpt lat="44.95837" lon="4.90688">
        <ele>150.79499816894</ele>
        <time>2009-10-18T08:48:19Z</time>
      </trkpt>
      <trkpt lat="44.95808" lon="4.90666">
        <ele>150.19400024414</ele>
        <time>2009-10-18T08:48:26Z</time>
      </trkpt>
      <trkpt lat="44.95765" lon="4.90639">
        <ele>148.25799560547</ele>
        <time>2009-10-18T08:48:34Z</time>
      </trkpt>
      <trkpt lat="44.9576" lon="4.90636">
        <ele>148.10499572754</ele>
        <time>2009-10-18T08:48:35Z</time>
      </trkpt>
      <trkpt lat="44.95738" lon="4.90632">
        <ele>147.38000488281</ele>
        <time>2009-10-18T08:48:39Z</time>
      </trkpt>
      <trkpt lat="44.95733" lon="4.90628">
        <ele>146.98399353027</ele>
        <time>2009-10-18T08:48:40Z</time>
      </trkpt>
      <trkpt lat="44.95706" lon="4.90616">
        <ele>145.9940032959</ele>
        <time>2009-10-18T08:48:45Z</time>
      </trkpt>
      <trkpt lat="44.95695" lon="4.90608">
        <ele>145.38499450684</ele>
        <time>2009-10-18T08:48:47Z</time>
      </trkpt>
      <trkpt lat="44.95665" lon="4.90569">
        <ele>141.80400085449</ele>
        <time>2009-10-18T08:48:53Z</time>
      </trkpt>
      <trkpt lat="44.95644" lon="4.90527">
        <ele>141.125</ele>
        <time>2009-10-18T08:48:58Z</time>
      </trkpt>
      <trkpt lat="44.95638" lon="4.90509">
        <ele>139.98699951172</ele>
        <time>2009-10-18T08:49:00Z</time>
      </trkpt>
      <trkpt lat="44.95633" lon="4.9046">
        <ele>139.41000366211</ele>
        <time>2009-10-18T08:49:05Z</time>
      </trkpt>
      <trkpt lat="44.95632" lon="4.9041">
        <ele>137.66799926758</ele>
        <time>2009-10-18T08:49:10Z</time>
      </trkpt>
      <trkpt lat="44.95631" lon="4.90391">
        <ele>137.40699768066</ele>
        <time>2009-10-18T08:49:12Z</time>
      </trkpt>
      <trkpt lat="44.95618" lon="4.90312">
        <ele>135.23699951172</ele>
        <time>2009-10-18T08:49:20Z</time>
      </trkpt>
      <trkpt lat="44.956" lon="4.90261">
        <ele>133.76499938965</ele>
        <time>2009-10-18T08:49:25Z</time>
      </trkpt>
      <trkpt lat="44.9557" lon="4.902">
        <ele>131.85299682617</ele>
        <time>2009-10-18T08:49:32Z</time>
      </trkpt>
      <trkpt lat="44.95556" lon="4.90145">
        <ele>130.12300109863</ele>
        <time>2009-10-18T08:49:38Z</time>
      </trkpt>
      <trkpt lat="44.95544" lon="4.9009">
        <ele>129.55999755859</ele>
        <time>2009-10-18T08:49:44Z</time>
      </trkpt>
      <trkpt lat="44.95546" lon="4.90059">
        <ele>129.64900207519</ele>
        <time>2009-10-18T08:49:48Z</time>
      </trkpt>
      <trkpt lat="44.9554" lon="4.90042">
        <ele>128.88800048828</ele>
        <time>2009-10-18T08:49:52Z</time>
      </trkpt>
      <trkpt lat="44.95531" lon="4.90055">
        <ele>128.42399597168</ele>
        <time>2009-10-18T08:49:54Z</time>
      </trkpt>
      <trkpt lat="44.95531" lon="4.90071">
        <ele>128.46299743652</ele>
        <time>2009-10-18T08:49:56Z</time>
      </trkpt>
      <trkpt lat="44.95541" lon="4.90109">
        <ele>129.18200683594</ele>
        <time>2009-10-18T08:50:02Z</time>
      </trkpt>
      <trkpt lat="44.9555" lon="4.90145">
        <ele>130.10299682617</ele>
        <time>2009-10-18T08:50:08Z</time>
      </trkpt>
      <trkpt lat="44.95551" lon="4.90151">
        <ele>129.96600341797</ele>
        <time>2009-10-18T08:50:09Z</time>
      </trkpt>
      <trkpt lat="44.95559" lon="4.90183">
        <ele>130.72900390625</ele>
        <time>2009-10-18T08:50:14Z</time>
      </trkpt>
      <trkpt lat="44.95575" lon="4.90226">
        <ele>132.18899536133</ele>
        <time>2009-10-18T08:50:21Z</time>
      </trkpt>
      <trkpt lat="44.9558" lon="4.90237">
        <ele>132.01100158691</ele>
        <time>2009-10-18T08:50:23Z</time>
      </trkpt>
      <trkpt lat="44.95591" lon="4.90257">
        <ele>132.90199279785</ele>
        <time>2009-10-18T08:50:27Z</time>
      </trkpt>
      <trkpt lat="44.95602" lon="4.90285">
        <ele>133.69599914551</ele>
        <time>2009-10-18T08:50:33Z</time>
      </trkpt>
      <trkpt lat="44.95612" lon="4.90314">
        <ele>135.17700195312</ele>
        <time>2009-10-18T08:50:39Z</time>
      </trkpt>
      <trkpt lat="44.95621" lon="4.90354">
        <ele>136.59199523926</ele>
        <time>2009-10-18T08:50:47Z</time>
      </trkpt>
      <trkpt lat="44.95624" lon="4.90382">
        <ele>137.00999450684</ele>
        <time>2009-10-18T08:50:53Z</time>
      </trkpt>
      <trkpt lat="44.95626" lon="4.90408">
        <ele>137.04899597168</ele>
        <time>2009-10-18T08:50:58Z</time>
      </trkpt>
      <trkpt lat="44.95628" lon="4.90434">
        <ele>137.52699279785</ele>
        <time>2009-10-18T08:51:03Z</time>
      </trkpt>
      <trkpt lat="44.95629" lon="4.90466">
        <ele>138.86599731445</ele>
        <time>2009-10-18T08:51:09Z</time>
      </trkpt>
      <trkpt lat="44.95629" lon="4.90478">
        <ele>139.23399353027</ele>
        <time>2009-10-18T08:51:11Z</time>
      </trkpt>
      <trkpt lat="44.95633" lon="4.90506">
        <ele>139.79400634766</ele>
        <time>2009-10-18T08:51:16Z</time>
      </trkpt>
      <trkpt lat="44.95637" lon="4.90522">
        <ele>141.17399597168</ele>
        <time>2009-10-18T08:51:19Z</time>
      </trkpt>
      <trkpt lat="44.95642" lon="4.90537">
        <ele>140.9700012207</ele>
        <time>2009-10-18T08:51:22Z</time>
      </trkpt>
      <trkpt lat="44.95649" lon="4.90552">
        <ele>141.44400024414</ele>
        <time>2009-10-18T08:51:25Z</time>
      </trkpt>
      <trkpt lat="44.95653" lon="4.90561">
        <ele>142.00799560547</ele>
        <time>2009-10-18T08:51:27Z</time>
      </trkpt>
      <trkpt lat="44.95668" lon="4.90583">
        <ele>142.92199707031</ele>
        <time>2009-10-18T08:51:33Z</time>
      </trkpt>
      <trkpt lat="44.95679" lon="4.90599">
        <ele>143.55999755859</ele>
        <time>2009-10-18T08:51:38Z</time>
      </trkpt>
      <trkpt lat="44.95695" lon="4.90617">
        <ele>143.93699645996</ele>
        <time>2009-10-18T08:51:44Z</time>
      </trkpt>
      <trkpt lat="44.95705" lon="4.90636">
        <ele>145.32600402832</ele>
        <time>2009-10-18T08:51:50Z</time>
      </trkpt>
      <trkpt lat="44.95712" lon="4.90652">
        <ele>145.23199462891</ele>
        <time>2009-10-18T08:51:54Z</time>
      </trkpt>
      <trkpt lat="44.95728" lon="4.90652">
        <ele>146.13999938965</ele>
        <time>2009-10-18T08:51:59Z</time>
      </trkpt>
      <trkpt lat="44.95741" lon="4.90644">
        <ele>146.54100036621</ele>
        <time>2009-10-18T08:52:03Z</time>
      </trkpt>
      <trkpt lat="44.95752" lon="4.90643">
        <ele>146.52799987793</ele>
        <time>2009-10-18T08:52:06Z</time>
      </trkpt>
      <trkpt lat="44.95772" lon="4.90652">
        <ele>148.28399658203</ele>
        <time>2009-10-18T08:52:13Z</time>
      </trkpt>
      <trkpt lat="44.95791" lon="4.90665">
        <ele>149.44299316406</ele>
        <time>2009-10-18T08:52:20Z</time>
      </trkpt>
      <trkpt lat="44.9581" lon="4.90677">
        <ele>149.65299987793</ele>
        <time>2009-10-18T08:52:27Z</time>
      </trkpt>
      <trkpt lat="44.95826" lon="4.90688">
        <ele>150.08200073242</ele>
        <time>2009-10-18T08:52:34Z</time>
      </trkpt>
      <trkpt lat="44.95837" lon="4.90694">
        <ele>150.70599365234</ele>
        <time>2009-10-18T08:52:39Z</time>
      </trkpt>
      <trkpt lat="44.95851" lon="4.90706">
        <ele>150.54800415039</ele>
        <time>2009-10-18T08:52:45Z</time>
      </trkpt>
      <trkpt lat="44.95863" lon="4.90723">
        <ele>151.28700256348</ele>
        <time>2009-10-18T08:52:51Z</time>
      </trkpt>
      <trkpt lat="44.95869" lon="4.90739">
        <ele>151.50100708008</ele>
        <time>2009-10-18T08:52:56Z</time>
      </trkpt>
      <trkpt lat="44.95882" lon="4.90751">
        <ele>151.38800048828</ele>
        <time>2009-10-18T08:53:02Z</time>
      </trkpt>
      <trkpt lat="44.95888" lon="4.90751">
        <ele>151.16600036621</ele>
        <time>2009-10-18T08:53:05Z</time>
      </trkpt>
      <trkpt lat="44.95896" lon="4.90749">
        <ele>151.19999694824</ele>
        <time>2009-10-18T08:53:11Z</time>
      </trkpt>
      <trkpt lat="44.95901" lon="4.90752">
        <ele>150.86799621582</ele>
        <time>2009-10-18T08:53:15Z</time>
      </trkpt>
      <trkpt lat="44.95908" lon="4.90765">
        <ele>150.70399475098</ele>
        <time>2009-10-18T08:53:24Z</time>
      </trkpt>
      <trkpt lat="44.95914" lon="4.90777">
        <ele>150.94299316406</ele>
        <time>2009-10-18T08:53:30Z</time>
      </trkpt>
      <trkpt lat="44.95918" lon="4.90781">
        <ele>150.88299560547</ele>
        <time>2009-10-18T08:53:32Z</time>
      </trkpt>
      <trkpt lat="44.95915" lon="4.90783">
        <ele>150.37100219727</ele>
        <time>2009-10-18T08:53:36Z</time>
      </trkpt>
      <trkpt lat="44.95914" lon="4.90772">
        <ele>151.62199401856</ele>
        <time>2009-10-18T08:53:42Z</time>
      </trkpt>
      <trkpt lat="44.95921" lon="4.90766">
        <ele>150.38400268555</ele>
        <time>2009-10-18T08:53:47Z</time>
      </trkpt>
      <trkpt lat="44.95926" lon="4.9076">
        <ele>150.93899536133</ele>
        <time>2009-10-18T08:53:50Z</time>
      </trkpt>
      <trkpt lat="44.95932" lon="4.90753">
        <ele>151.16700744629</ele>
        <time>2009-10-18T08:53:53Z</time>
      </trkpt>
      <trkpt lat="44.95924" lon="4.90738">
        <ele>150.29699707031</ele>
        <time>2009-10-18T08:53:58Z</time>
      </trkpt>
      <trkpt lat="44.95916" lon="4.90743">
        <ele>150.5299987793</ele>
        <time>2009-10-18T08:54:01Z</time>
      </trkpt>
      <trkpt lat="44.95904" lon="4.90758">
        <ele>150.05400085449</ele>
        <time>2009-10-18T08:54:07Z</time>
      </trkpt>
      <trkpt lat="44.959" lon="4.90762">
        <ele>150.70300292969</ele>
        <time>2009-10-18T08:54:10Z</time>
      </trkpt>
      <trkpt lat="44.959" lon="4.90762">
        <ele>150.58700561523</ele>
        <time>2009-10-18T08:54:16Z</time>
      </trkpt>
      <trkpt lat="44.959" lon="4.90762">
        <ele>150.52200317383</ele>
        <time>2009-10-18T08:54:19Z</time>
      </trkpt>
      <trkpt lat="44.959" lon="4.90762">
        <ele>150.40699768066</ele>
        <time>2009-10-18T08:54:20Z</time>
      </trkpt>
      <trkpt lat="44.959" lon="4.90762">
        <ele>150.66499328613</ele>
        <time>2009-10-18T08:54:27Z</time>
      </trkpt>
      <trkpt lat="44.959" lon="4.90763">
        <ele>150.69599914551</ele>
        <time>2009-10-18T08:54:30Z</time>
      </trkpt>
      <trkpt lat="44.95899" lon="4.90763">
        <ele>150.71600341797</ele>
        <time>2009-10-18T08:54:34Z</time>
      </trkpt>
      <trkpt lat="44.95899" lon="4.90763">
        <ele>150.3450012207</ele>
        <time>2009-10-18T08:54:47Z</time>
      </trkpt>
      <trkpt lat="44.95899" lon="4.90762">
        <ele>150.52299499512</ele>
        <time>2009-10-18T08:54:55Z</time>
      </trkpt>
      <trkpt lat="44.95898" lon="4.90762">
        <ele>150.70199584961</ele>
        <time>2009-10-18T08:55:12Z</time>
      </trkpt>
      <trkpt lat="44.95898" lon="4.90761">
        <ele>150.72599792481</ele>
        <time>2009-10-18T08:55:24Z</time>
      </trkpt>
      <trkpt lat="44.95897" lon="4.90761">
        <ele>150.67500305176</ele>
        <time>2009-10-18T08:55:28Z</time>
      </trkpt>
      <trkpt lat="44.95897" lon="4.90761">
        <ele>150.41700744629</ele>
        <time>2009-10-18T08:55:45Z</time>
      </trkpt>
      <trkpt lat="44.95898" lon="4.90761">
        <ele>150.55400085449</ele>
        <time>2009-10-18T08:56:12Z</time>
      </trkpt>
      <trkpt lat="44.95898" lon="4.90761">
        <ele>150.40400695801</ele>
        <time>2009-10-18T08:56:15Z</time>
      </trkpt>
      <trkpt lat="44.95898" lon="4.90761">
        <ele>150.56300354004</ele>
        <time>2009-10-18T08:56:20Z</time>
      </trkpt>
      <trkpt lat="44.95898" lon="4.90761">
        <ele>150.68299865723</ele>
        <time>2009-10-18T08:56:32Z</time>
      </trkpt>
      <trkpt lat="44.95898" lon="4.90761">
        <ele>150.43899536133</ele>
        <time>2009-10-18T08:56:37Z</time>
      </trkpt>
      <trkpt lat="44.95898" lon="4.90761">
        <ele>150.89500427246</ele>
        <time>2009-10-18T08:56:44Z</time>
      </trkpt>
      <trkpt lat="44.95898" lon="4.90761">
        <ele>150.69099426269</ele>
        <time>2009-10-18T08:56:50Z</time>
      </trkpt>
      <trkpt lat="44.95897" lon="4.90762">
        <ele>150.81799316406</ele>
        <time>2009-10-18T08:57:07Z</time>
      </trkpt>
      <trkpt lat="44.95898" lon="4.90762">
        <ele>150.88600158691</ele>
        <time>2009-10-18T08:57:15Z</time>
      </trkpt>
      <trkpt lat="44.95898" lon="4.90761">
        <ele>150.85200500488</ele>
        <time>2009-10-18T08:57:22Z</time>
      </trkpt>
      <trkpt lat="44.95901" lon="4.90758">
        <ele>150.99899291992</ele>
        <time>2009-10-18T08:57:26Z</time>
      </trkpt>
      <trkpt lat="44.9591" lon="4.90751">
        <ele>151.0119934082</ele>
        <time>2009-10-18T08:57:32Z</time>
      </trkpt>
      <trkpt lat="44.95914" lon="4.90744">
        <ele>152.07899475098</ele>
        <time>2009-10-18T08:57:35Z</time>
      </trkpt>
      <trkpt lat="44.95918" lon="4.9074">
        <ele>151.11399841309</ele>
        <time>2009-10-18T08:57:37Z</time>
      </trkpt>
      <trkpt lat="44.95915" lon="4.9073">
        <ele>151.15299987793</ele>
        <time>2009-10-18T08:57:41Z</time>
      </trkpt>
      <trkpt lat="44.95905" lon="4.90723">
        <ele>150.72599792481</ele>
        <time>2009-10-18T08:57:46Z</time>
      </trkpt>
      <trkpt lat="44.95893" lon="4.90729">
        <ele>150.49000549316</ele>
        <time>2009-10-18T08:57:51Z</time>
      </trkpt>
      <trkpt lat="44.95887" lon="4.90741">
        <ele>150.96499633789</ele>
        <time>2009-10-18T08:57:57Z</time>
      </trkpt>
      <trkpt lat="44.95887" lon="4.90743">
        <ele>150.92599487305</ele>
        <time>2009-10-18T08:57:58Z</time>
      </trkpt>
      <trkpt lat="44.95887" lon="4.90746">
        <ele>151.06300354004</ele>
        <time>2009-10-18T08:58:01Z</time>
      </trkpt>
      <trkpt lat="44.95893" lon="4.90745">
        <ele>151.62399291992</ele>
        <time>2009-10-18T08:58:06Z</time>
      </trkpt>
      <trkpt lat="44.95904" lon="4.90731">
        <ele>151.52200317383</ele>
        <time>2009-10-18T08:58:12Z</time>
      </trkpt>
      <trkpt lat="44.95902" lon="4.90724">
        <ele>151.12899780273</ele>
        <time>2009-10-18T08:58:16Z</time>
      </trkpt>
      <trkpt lat="44.959" lon="4.90725">
        <ele>151.17500305176</ele>
        <time>2009-10-18T08:58:17Z</time>
      </trkpt>
      <trkpt lat="44.95889" lon="4.90742">
        <ele>151.04200744629</ele>
        <time>2009-10-18T08:58:25Z</time>
      </trkpt>
      <trkpt lat="44.95884" lon="4.90751">
        <ele>151.41799926758</ele>
        <time>2009-10-18T08:58:30Z</time>
      </trkpt>
      <trkpt lat="44.95879" lon="4.90746">
        <ele>151.52400207519</ele>
        <time>2009-10-18T08:58:34Z</time>
      </trkpt>
      <trkpt lat="44.9587" lon="4.90727">
        <ele>151.53799438477</ele>
        <time>2009-10-18T08:58:41Z</time>
      </trkpt>
      <trkpt lat="44.95869" lon="4.90723">
        <ele>151.43800354004</ele>
        <time>2009-10-18T08:58:42Z</time>
      </trkpt>
      <trkpt lat="44.9586" lon="4.90708">
        <ele>151.58099365234</ele>
        <time>2009-10-18T08:58:47Z</time>
      </trkpt>
      <trkpt lat="44.95847" lon="4.90694">
        <ele>151.20300292969</ele>
        <time>2009-10-18T08:58:52Z</time>
      </trkpt>
      <trkpt lat="44.95839" lon="4.90688">
        <ele>151.09700012207</ele>
        <time>2009-10-18T08:58:55Z</time>
      </trkpt>
      <trkpt lat="44.95822" lon="4.90674">
        <ele>151.16700744629</ele>
        <time>2009-10-18T08:59:02Z</time>
      </trkpt>
      <trkpt lat="44.95807" lon="4.90665">
        <ele>150.28399658203</ele>
        <time>2009-10-18T08:59:06Z</time>
      </trkpt>
      <trkpt lat="44.95776" lon="4.90646">
        <ele>148.53399658203</ele>
        <time>2009-10-18T08:59:12Z</time>
      </trkpt>
      <trkpt lat="44.95748" lon="4.90635">
        <ele>147.21299743652</ele>
        <time>2009-10-18T08:59:16Z</time>
      </trkpt>
      <trkpt lat="44.95734" lon="4.90629">
        <ele>146.83500671387</ele>
        <time>2009-10-18T08:59:18Z</time>
      </trkpt>
      <trkpt lat="44.95711" lon="4.9063">
        <ele>145.7440032959</ele>
        <time>2009-10-18T08:59:22Z</time>
      </trkpt>
      <trkpt lat="44.95712" lon="4.90646">
        <ele>145.92300415039</ele>
        <time>2009-10-18T08:59:24Z</time>
      </trkpt>
      <trkpt lat="44.95724" lon="4.90652">
        <ele>146.36199951172</ele>
        <time>2009-10-18T08:59:26Z</time>
      </trkpt>
      <trkpt lat="44.95732" lon="4.90645">
        <ele>146.5359954834</ele>
        <time>2009-10-18T08:59:28Z</time>
      </trkpt>
      <trkpt lat="44.95731" lon="4.9063">
        <ele>146.31599426269</ele>
        <time>2009-10-18T08:59:30Z</time>
      </trkpt>
      <trkpt lat="44.95721" lon="4.90623">
        <ele>146.06700134277</ele>
        <time>2009-10-18T08:59:32Z</time>
      </trkpt>
      <trkpt lat="44.95713" lon="4.90635">
        <ele>145.70599365234</ele>
        <time>2009-10-18T08:59:34Z</time>
      </trkpt>
      <trkpt lat="44.95716" lon="4.90649">
        <ele>145.78399658203</ele>
        <time>2009-10-18T08:59:36Z</time>
      </trkpt>
      <trkpt lat="44.95726" lon="4.90653">
        <ele>145.81599426269</ele>
        <time>2009-10-18T08:59:38Z</time>
      </trkpt>
      <trkpt lat="44.9574" lon="4.90645">
        <ele>147.86099243164</ele>
        <time>2009-10-18T08:59:41Z</time>
      </trkpt>
      <trkpt lat="44.95744" lon="4.90644">
        <ele>148.67300415039</ele>
        <time>2009-10-18T08:59:42Z</time>
      </trkpt>
      <trkpt lat="44.95768" lon="4.90649">
        <ele>148.4700012207</ele>
        <time>2009-10-18T08:59:48Z</time>
      </trkpt>
      <trkpt lat="44.95779" lon="4.90655">
        <ele>150.06100463867</ele>
        <time>2009-10-18T08:59:51Z</time>
      </trkpt>
      <trkpt lat="44.95785" lon="4.9066">
        <ele>148.70100402832</ele>
        <time>2009-10-18T08:59:53Z</time>
      </trkpt>
      <trkpt lat="44.95806" lon="4.90673">
        <ele>149.90199279785</ele>
        <time>2009-10-18T09:00:00Z</time>
      </trkpt>
      <trkpt lat="44.95823" lon="4.90684">
        <ele>150.05599975586</ele>
        <time>2009-10-18T09:00:06Z</time>
      </trkpt>
      <trkpt lat="44.95836" lon="4.90692">
        <ele>152.42700195312</ele>
        <time>2009-10-18T09:00:11Z</time>
      </trkpt>
      <trkpt lat="44.95853" lon="4.90709">
        <ele>151.64799499512</ele>
        <time>2009-10-18T09:00:19Z</time>
      </trkpt>
      <trkpt lat="44.95862" lon="4.90724">
        <ele>151.34899902344</ele>
        <time>2009-10-18T09:00:25Z</time>
      </trkpt>
      <trkpt lat="44.95872" lon="4.90744">
        <ele>151.42700195312</ele>
        <time>2009-10-18T09:00:32Z</time>
      </trkpt>
      <trkpt lat="44.95884" lon="4.90756">
        <ele>151.69299316406</ele>
        <time>2009-10-18T09:00:38Z</time>
      </trkpt>
      <trkpt lat="44.95886" lon="4.90753">
        <ele>151.54100036621</ele>
        <time>2009-10-18T09:00:42Z</time>
      </trkpt>
      <trkpt lat="44.95877" lon="4.90734">
        <ele>151.72399902344</ele>
        <time>2009-10-18T09:00:50Z</time>
      </trkpt>
      <trkpt lat="44.9587" lon="4.90722">
        <ele>151.89300537109</ele>
        <time>2009-10-18T09:00:55Z</time>
      </trkpt>
      <trkpt lat="44.95859" lon="4.90708">
        <ele>151.54200744629</ele>
        <time>2009-10-18T09:01:01Z</time>
      </trkpt>
      <trkpt lat="44.95842" lon="4.90692">
        <ele>151.08000183106</ele>
        <time>2009-10-18T09:01:07Z</time>
      </trkpt>
      <trkpt lat="44.95824" lon="4.90677">
        <ele>151.31199645996</ele>
        <time>2009-10-18T09:01:11Z</time>
      </trkpt>
      <trkpt lat="44.95818" lon="4.90673">
        <ele>150.80299377441</ele>
        <time>2009-10-18T09:01:12Z</time>
      </trkpt>
      <trkpt lat="44.95789" lon="4.90655">
        <ele>149.38299560547</ele>
        <time>2009-10-18T09:01:17Z</time>
      </trkpt>
      <trkpt lat="44.95767" lon="4.9064">
        <ele>148.38400268555</ele>
        <time>2009-10-18T09:01:21Z</time>
      </trkpt>
      <trkpt lat="44.95737" lon="4.90632">
        <ele>146.67300415039</ele>
        <time>2009-10-18T09:01:26Z</time>
      </trkpt>
      <trkpt lat="44.95732" lon="4.90629">
        <ele>146.59100341797</ele>
        <time>2009-10-18T09:01:27Z</time>
      </trkpt>
      <trkpt lat="44.95712" lon="4.90629">
        <ele>146.03799438477</ele>
        <time>2009-10-18T09:01:31Z</time>
      </trkpt>
      <trkpt lat="44.95711" lon="4.90644">
        <ele>146.37800598144</ele>
        <time>2009-10-18T09:01:33Z</time>
      </trkpt>
      <trkpt lat="44.9572" lon="4.90652">
        <ele>146.4109954834</ele>
        <time>2009-10-18T09:01:35Z</time>
      </trkpt>
      <trkpt lat="44.95736" lon="4.90647">
        <ele>147.88900756836</ele>
        <time>2009-10-18T09:01:38Z</time>
      </trkpt>
      <trkpt lat="44.95752" lon="4.90644">
        <ele>148.84700012207</ele>
        <time>2009-10-18T09:01:41Z</time>
      </trkpt>
      <trkpt lat="44.95762" lon="4.90646">
        <ele>149.02699279785</ele>
        <time>2009-10-18T09:01:43Z</time>
      </trkpt>
      <trkpt lat="44.95783" lon="4.9066">
        <ele>148.88299560547</ele>
        <time>2009-10-18T09:01:48Z</time>
      </trkpt>
      <trkpt lat="44.95806" lon="4.90674">
        <ele>150.19700622559</ele>
        <time>2009-10-18T09:01:54Z</time>
      </trkpt>
      <trkpt lat="44.95832" lon="4.9069">
        <ele>152.60000610352</ele>
        <time>2009-10-18T09:02:02Z</time>
      </trkpt>
      <trkpt lat="44.95854" lon="4.90712">
        <ele>152.37899780273</ele>
        <time>2009-10-18T09:02:10Z</time>
      </trkpt>
      <trkpt lat="44.95867" lon="4.90738">
        <ele>151.20199584961</ele>
        <time>2009-10-18T09:02:16Z</time>
      </trkpt>
      <trkpt lat="44.95877" lon="4.90745">
        <ele>151.75100708008</ele>
        <time>2009-10-18T09:02:19Z</time>
      </trkpt>
      <trkpt lat="44.95877" lon="4.90736">
        <ele>151.94400024414</ele>
        <time>2009-10-18T09:02:21Z</time>
      </trkpt>
      <trkpt lat="44.9587" lon="4.90724">
        <ele>151.52799987793</ele>
        <time>2009-10-18T09:02:24Z</time>
      </trkpt>
      <trkpt lat="44.95853" lon="4.90703">
        <ele>151.16900634766</ele>
        <time>2009-10-18T09:02:30Z</time>
      </trkpt>
      <trkpt lat="44.95843" lon="4.90692">
        <ele>150.83799743652</ele>
        <time>2009-10-18T09:02:33Z</time>
      </trkpt>
      <trkpt lat="44.95828" lon="4.90681">
        <ele>150.55400085449</ele>
        <time>2009-10-18T09:02:37Z</time>
      </trkpt>
      <trkpt lat="44.9582" lon="4.90674">
        <ele>150.29299926758</ele>
        <time>2009-10-18T09:02:39Z</time>
      </trkpt>
      <trkpt lat="44.95782" lon="4.90651">
        <ele>148.98100280762</ele>
        <time>2009-10-18T09:02:47Z</time>
      </trkpt>
      <trkpt lat="44.95761" lon="4.90637">
        <ele>147.91999816894</ele>
        <time>2009-10-18T09:02:51Z</time>
      </trkpt>
      <trkpt lat="44.95731" lon="4.90628">
        <ele>146.04800415039</ele>
        <time>2009-10-18T09:02:56Z</time>
      </trkpt>
      <trkpt lat="44.95711" lon="4.90632">
        <ele>146.05799865723</ele>
        <time>2009-10-18T09:03:00Z</time>
      </trkpt>
      <trkpt lat="44.95713" lon="4.90647">
        <ele>145.88600158691</ele>
        <time>2009-10-18T09:03:02Z</time>
      </trkpt>
      <trkpt lat="44.95723" lon="4.90653">
        <ele>146.44000244141</ele>
        <time>2009-10-18T09:03:04Z</time>
      </trkpt>
      <trkpt lat="44.95739" lon="4.90646">
        <ele>146.99200439453</ele>
        <time>2009-10-18T09:03:07Z</time>
      </trkpt>
      <trkpt lat="44.95757" lon="4.90645">
        <ele>149.03300476074</ele>
        <time>2009-10-18T09:03:10Z</time>
      </trkpt>
      <trkpt lat="44.95768" lon="4.9065">
        <ele>149.51699829102</ele>
        <time>2009-10-18T09:03:12Z</time>
      </trkpt>
      <trkpt lat="44.95783" lon="4.90658">
        <ele>151.00300598144</ele>
        <time>2009-10-18T09:03:15Z</time>
      </trkpt>
      <trkpt lat="44.95815" lon="4.9068">
        <ele>150.43099975586</ele>
        <time>2009-10-18T09:03:23Z</time>
      </trkpt>
      <trkpt lat="44.95848" lon="4.90703">
        <ele>152.39999389648</ele>
        <time>2009-10-18T09:03:33Z</time>
      </trkpt>
      <trkpt lat="44.95859" lon="4.90721">
        <ele>150.53900146484</ele>
        <time>2009-10-18T09:03:38Z</time>
      </trkpt>
      <trkpt lat="44.95871" lon="4.90745">
        <ele>150.43200683594</ele>
        <time>2009-10-18T09:03:44Z</time>
      </trkpt>
      <trkpt lat="44.95878" lon="4.90742">
        <ele>151.75199890137</ele>
        <time>2009-10-18T09:03:47Z</time>
      </trkpt>
      <trkpt lat="44.95873" lon="4.9073">
        <ele>151.77299499512</ele>
        <time>2009-10-18T09:03:51Z</time>
      </trkpt>
      <trkpt lat="44.95867" lon="4.90738">
        <ele>151.28399658203</ele>
        <time>2009-10-18T09:03:56Z</time>
      </trkpt>
      <trkpt lat="44.95878" lon="4.90747">
        <ele>151.53399658203</ele>
        <time>2009-10-18T09:04:01Z</time>
      </trkpt>
      <trkpt lat="44.95879" lon="4.90739">
        <ele>152.10800170898</ele>
        <time>2009-10-18T09:04:04Z</time>
      </trkpt>
      <trkpt lat="44.95872" lon="4.90721">
        <ele>152.03399658203</ele>
        <time>2009-10-18T09:04:11Z</time>
      </trkpt>
      <trkpt lat="44.95872" lon="4.90718">
        <ele>152.54800415039</ele>
        <time>2009-10-18T09:04:15Z</time>
      </trkpt>
      <trkpt lat="44.95871" lon="4.90718">
        <ele>151.6309967041</ele>
        <time>2009-10-18T09:04:28Z</time>
      </trkpt>
      <trkpt lat="44.9587" lon="4.90718">
        <ele>153.25399780273</ele>
        <time>2009-10-18T09:04:47Z</time>
      </trkpt>
      <trkpt lat="44.9587" lon="4.90717">
        <ele>151.65299987793</ele>
        <time>2009-10-18T09:05:16Z</time>
      </trkpt>
      <trkpt lat="44.95867" lon="4.90719">
        <ele>151.11099243164</ele>
        <time>2009-10-18T09:05:23Z</time>
      </trkpt>
      <trkpt lat="44.95862" lon="4.9072">
        <ele>151.04800415039</ele>
        <time>2009-10-18T09:05:29Z</time>
      </trkpt>
      <trkpt lat="44.95855" lon="4.90706">
        <ele>151.45700073242</ele>
        <time>2009-10-18T09:05:36Z</time>
      </trkpt>
      <trkpt lat="44.95854" lon="4.90705">
        <ele>151.28199768066</ele>
        <time>2009-10-18T09:05:37Z</time>
      </trkpt>
      <trkpt lat="44.9584" lon="4.90687">
        <ele>150.55700683594</ele>
        <time>2009-10-18T09:05:44Z</time>
      </trkpt>
      <trkpt lat="44.95815" lon="4.90669">
        <ele>149.66499328613</ele>
        <time>2009-10-18T09:05:52Z</time>
      </trkpt>
      <trkpt lat="44.95796" lon="4.90659">
        <ele>149.25500488281</ele>
        <time>2009-10-18T09:05:57Z</time>
      </trkpt>
      <trkpt lat="44.95764" lon="4.90638">
        <ele>147.72200012207</ele>
        <time>2009-10-18T09:06:05Z</time>
      </trkpt>
      <trkpt lat="44.95756" lon="4.90634">
        <ele>147.35299682617</ele>
        <time>2009-10-18T09:06:07Z</time>
      </trkpt>
      <trkpt lat="44.95743" lon="4.90632">
        <ele>146.67300415039</ele>
        <time>2009-10-18T09:06:10Z</time>
      </trkpt>
      <trkpt lat="44.95727" lon="4.90621">
        <ele>145.77099609375</ele>
        <time>2009-10-18T09:06:14Z</time>
      </trkpt>
      <trkpt lat="44.95713" lon="4.9062">
        <ele>145.27600097656</ele>
        <time>2009-10-18T09:06:17Z</time>
      </trkpt>
      <trkpt lat="44.95708" lon="4.90638">
        <ele>145.10099792481</ele>
        <time>2009-10-18T09:06:20Z</time>
      </trkpt>
      <trkpt lat="44.95717" lon="4.9065">
        <ele>145.85499572754</ele>
        <time>2009-10-18T09:06:23Z</time>
      </trkpt>
      <trkpt lat="44.95731" lon="4.90647">
        <ele>146.2200012207</ele>
        <time>2009-10-18T09:06:27Z</time>
      </trkpt>
      <trkpt lat="44.95742" lon="4.90642">
        <ele>147.04100036621</ele>
        <time>2009-10-18T09:06:30Z</time>
      </trkpt>
      <trkpt lat="44.95755" lon="4.90643">
        <ele>147.42199707031</ele>
        <time>2009-10-18T09:06:34Z</time>
      </trkpt>
      <trkpt lat="44.95774" lon="4.90653">
        <ele>148.90800476074</ele>
        <time>2009-10-18T09:06:40Z</time>
      </trkpt>
      <trkpt lat="44.95794" lon="4.90666">
        <ele>149.43899536133</ele>
        <time>2009-10-18T09:06:47Z</time>
      </trkpt>
      <trkpt lat="44.95815" lon="4.90679">
        <ele>149.86399841309</ele>
        <time>2009-10-18T09:06:54Z</time>
      </trkpt>
      <trkpt lat="44.9583" lon="4.90689">
        <ele>150.83200073242</ele>
        <time>2009-10-18T09:06:59Z</time>
      </trkpt>
      <trkpt lat="44.95851" lon="4.90708">
        <ele>150.9640045166</ele>
        <time>2009-10-18T09:07:07Z</time>
      </trkpt>
      <trkpt lat="44.95857" lon="4.90718">
        <ele>152.54600524902</ele>
        <time>2009-10-18T09:07:10Z</time>
      </trkpt>
      <trkpt lat="44.95862" lon="4.90728">
        <ele>150.45100402832</ele>
        <time>2009-10-18T09:07:13Z</time>
      </trkpt>
      <trkpt lat="44.95876" lon="4.9075">
        <ele>151.10499572754</ele>
        <time>2009-10-18T09:07:20Z</time>
      </trkpt>
      <trkpt lat="44.95879" lon="4.90743">
        <ele>150.99800109863</ele>
        <time>2009-10-18T09:07:24Z</time>
      </trkpt>
      <trkpt lat="44.9587" lon="4.90725">
        <ele>151.23899841309</ele>
        <time>2009-10-18T09:07:29Z</time>
      </trkpt>
      <trkpt lat="44.95856" lon="4.90706">
        <ele>150.81900024414</ele>
        <time>2009-10-18T09:07:34Z</time>
      </trkpt>
      <trkpt lat="44.95837" lon="4.90688">
        <ele>150.92900085449</ele>
        <time>2009-10-18T09:07:39Z</time>
      </trkpt>
      <trkpt lat="44.95807" lon="4.90668">
        <ele>150.58200073242</ele>
        <time>2009-10-18T09:07:46Z</time>
      </trkpt>
      <trkpt lat="44.95802" lon="4.90672">
        <ele>149.83299255371</ele>
        <time>2009-10-18T09:07:49Z</time>
      </trkpt>
      <trkpt lat="44.95806" lon="4.90674">
        <ele>149.62899780273</ele>
        <time>2009-10-18T09:07:51Z</time>
      </trkpt>
      <trkpt lat="44.95824" lon="4.90686">
        <ele>150.39599609375</ele>
        <time>2009-10-18T09:07:57Z</time>
      </trkpt>
      <trkpt lat="44.95842" lon="4.90697">
        <ele>151.60800170898</ele>
        <time>2009-10-18T09:08:02Z</time>
      </trkpt>
      <trkpt lat="44.95852" lon="4.90712">
        <ele>153.91400146484</ele>
        <time>2009-10-18T09:08:06Z</time>
      </trkpt>
      <trkpt lat="44.95854" lon="4.90716">
        <ele>153.64100646973</ele>
        <time>2009-10-18T09:08:07Z</time>
      </trkpt>
      <trkpt lat="44.9586" lon="4.90727">
        <ele>150.90600585938</ele>
        <time>2009-10-18T09:08:10Z</time>
      </trkpt>
      <trkpt lat="44.95868" lon="4.90742">
        <ele>150.80499267578</ele>
        <time>2009-10-18T09:08:15Z</time>
      </trkpt>
      <trkpt lat="44.95876" lon="4.90754">
        <ele>151.17300415039</ele>
        <time>2009-10-18T09:08:22Z</time>
      </trkpt>
      <trkpt lat="44.9588" lon="4.90761">
        <ele>150.71800231934</ele>
        <time>2009-10-18T09:08:27Z</time>
      </trkpt>
      <trkpt lat="44.95884" lon="4.90766">
        <ele>150.70100402832</ele>
        <time>2009-10-18T09:08:33Z</time>
      </trkpt>
      <trkpt lat="44.95885" lon="4.90766">
        <ele>150.65899658203</ele>
        <time>2009-10-18T09:08:43Z</time>
      </trkpt>
      <trkpt lat="44.95883" lon="4.90766">
        <ele>150.58700561523</ele>
        <time>2009-10-18T09:09:00Z</time>
      </trkpt>
      <trkpt lat="44.95884" lon="4.90765">
        <ele>150.94799804688</ele>
        <time>2009-10-18T09:09:51Z</time>
      </trkpt>
      <trkpt lat="44.95884" lon="4.90765">
        <ele>150.90199279785</ele>
        <time>2009-10-18T09:10:00Z</time>
      </trkpt>
      <trkpt lat="44.95884" lon="4.90766">
        <ele>150.67500305176</ele>
        <time>2009-10-18T09:10:02Z</time>
      </trkpt>
      <trkpt lat="44.95887" lon="4.90769">
        <ele>151.21200561523</ele>
        <time>2009-10-18T09:10:03Z</time>
      </trkpt>
      <trkpt lat="44.959" lon="4.9079">
        <ele>151.27000427246</ele>
        <time>2009-10-18T09:10:07Z</time>
      </trkpt>
      <trkpt lat="44.95903" lon="4.90796">
        <ele>151.33599853516</ele>
        <time>2009-10-18T09:10:08Z</time>
      </trkpt>
      <trkpt lat="44.95914" lon="4.90816">
        <ele>152.15400695801</ele>
        <time>2009-10-18T09:10:11Z</time>
      </trkpt>
      <trkpt lat="44.95926" lon="4.90838">
        <ele>152.34800720215</ele>
        <time>2009-10-18T09:10:14Z</time>
      </trkpt>
      <trkpt lat="44.95948" lon="4.90877">
        <ele>152.48699951172</ele>
        <time>2009-10-18T09:10:19Z</time>
      </trkpt>
      <trkpt lat="44.95987" lon="4.90945">
        <ele>152.39700317383</ele>
        <time>2009-10-18T09:10:28Z</time>
      </trkpt>
      <trkpt lat="44.95996" lon="4.90981">
        <ele>152.22500610352</ele>
        <time>2009-10-18T09:10:32Z</time>
      </trkpt>
      <trkpt lat="44.96005" lon="4.91008">
        <ele>152.39399719238</ele>
        <time>2009-10-18T09:10:35Z</time>
      </trkpt>
      <trkpt lat="44.96024" lon="4.91018">
        <ele>153.80099487305</ele>
        <time>2009-10-18T09:10:38Z</time>
      </trkpt>
      <trkpt lat="44.96036" lon="4.91011">
        <ele>154.68400573731</ele>
        <time>2009-10-18T09:10:40Z</time>
      </trkpt>
      <trkpt lat="44.96046" lon="4.90999">
        <ele>154.16999816894</ele>
        <time>2009-10-18T09:10:42Z</time>
      </trkpt>
      <trkpt lat="44.96073" lon="4.90969">
        <ele>154.84599304199</ele>
        <time>2009-10-18T09:10:47Z</time>
      </trkpt>
      <trkpt lat="44.96108" lon="4.9096">
        <ele>154.63400268555</ele>
        <time>2009-10-18T09:10:52Z</time>
      </trkpt>
      <trkpt lat="44.96143" lon="4.90966">
        <ele>154.92799377441</ele>
        <time>2009-10-18T09:10:57Z</time>
      </trkpt>
      <trkpt lat="44.96196" lon="4.90977">
        <ele>155.96299743652</ele>
        <time>2009-10-18T09:11:05Z</time>
      </trkpt>
      <trkpt lat="44.96253" lon="4.90988">
        <ele>156.07000732422</ele>
        <time>2009-10-18T09:11:14Z</time>
      </trkpt>
      <trkpt lat="44.96308" lon="4.90999">
        <ele>155.66799926758</ele>
        <time>2009-10-18T09:11:23Z</time>
      </trkpt>
      <trkpt lat="44.96356" lon="4.91011">
        <ele>156.1369934082</ele>
        <time>2009-10-18T09:11:31Z</time>
      </trkpt>
      <trkpt lat="44.96415" lon="4.9103">
        <ele>156.73599243164</ele>
        <time>2009-10-18T09:11:41Z</time>
      </trkpt>
      <trkpt lat="44.96427" lon="4.91036">
        <ele>156.6609954834</ele>
        <time>2009-10-18T09:11:43Z</time>
      </trkpt>
      <trkpt lat="44.96442" lon="4.9105">
        <ele>156.86500549316</ele>
        <time>2009-10-18T09:11:46Z</time>
      </trkpt>
      <trkpt lat="44.96466" lon="4.91058">
        <ele>157.67799377441</ele>
        <time>2009-10-18T09:11:50Z</time>
      </trkpt>
      <trkpt lat="44.96492" lon="4.9105">
        <ele>158.68899536133</ele>
        <time>2009-10-18T09:11:54Z</time>
      </trkpt>
      <trkpt lat="44.96499" lon="4.9105">
        <ele>157.41499328613</ele>
        <time>2009-10-18T09:11:55Z</time>
      </trkpt>
      <trkpt lat="44.96512" lon="4.91049">
        <ele>156.69200134277</ele>
        <time>2009-10-18T09:11:57Z</time>
      </trkpt>
      <trkpt lat="44.96531" lon="4.91049">
        <ele>158.28500366211</ele>
        <time>2009-10-18T09:12:00Z</time>
      </trkpt>
      <trkpt lat="44.96557" lon="4.91051">
        <ele>156.29699707031</ele>
        <time>2009-10-18T09:12:04Z</time>
      </trkpt>
      <trkpt lat="44.96588" lon="4.91068">
        <ele>157.67199707031</ele>
        <time>2009-10-18T09:12:09Z</time>
      </trkpt>
      <trkpt lat="44.96608" lon="4.91065">
        <ele>156.84899902344</ele>
        <time>2009-10-18T09:12:12Z</time>
      </trkpt>
      <trkpt lat="44.96629" lon="4.91054">
        <ele>156.65199279785</ele>
        <time>2009-10-18T09:12:15Z</time>
      </trkpt>
      <trkpt lat="44.96676" lon="4.91048">
        <ele>154.78999328613</ele>
        <time>2009-10-18T09:12:21Z</time>
      </trkpt>
      <trkpt lat="44.96746" lon="4.9105">
        <ele>155.35899353027</ele>
        <time>2009-10-18T09:12:30Z</time>
      </trkpt>
      <trkpt lat="44.96794" lon="4.9105">
        <ele>154.92999267578</ele>
        <time>2009-10-18T09:12:37Z</time>
      </trkpt>
      <trkpt lat="44.96813" lon="4.9105">
        <ele>156.07499694824</ele>
        <time>2009-10-18T09:12:40Z</time>
      </trkpt>
      <trkpt lat="44.96825" lon="4.91046">
        <ele>156.81300354004</ele>
        <time>2009-10-18T09:12:42Z</time>
      </trkpt>
      <trkpt lat="44.96869" lon="4.91026">
        <ele>157.55999755859</ele>
        <time>2009-10-18T09:12:49Z</time>
      </trkpt>
      <trkpt lat="44.96919" lon="4.91001">
        <ele>158.01899719238</ele>
        <time>2009-10-18T09:12:56Z</time>
      </trkpt>
      <trkpt lat="44.96978" lon="4.9097">
        <ele>156.77400207519</ele>
        <time>2009-10-18T09:13:04Z</time>
      </trkpt>
      <trkpt lat="44.97032" lon="4.90945">
        <ele>158.73100280762</ele>
        <time>2009-10-18T09:13:11Z</time>
      </trkpt>
      <trkpt lat="44.9704" lon="4.90942">
        <ele>158.42999267578</ele>
        <time>2009-10-18T09:13:12Z</time>
      </trkpt>
      <trkpt lat="44.9707" lon="4.90944">
        <ele>158.89900207519</ele>
        <time>2009-10-18T09:13:16Z</time>
      </trkpt>
      <trkpt lat="44.97094" lon="4.90963">
        <ele>159.16900634766</ele>
        <time>2009-10-18T09:13:20Z</time>
      </trkpt>
      <trkpt lat="44.97111" lon="4.90982">
        <ele>155.95899963379</ele>
        <time>2009-10-18T09:13:23Z</time>
      </trkpt>
      <trkpt lat="44.9714" lon="4.90996">
        <ele>155.47500610352</ele>
        <time>2009-10-18T09:13:27Z</time>
      </trkpt>
      <trkpt lat="44.97148" lon="4.90994">
        <ele>155.25999450684</ele>
        <time>2009-10-18T09:13:28Z</time>
      </trkpt>
      <trkpt lat="44.97176" lon="4.90972">
        <ele>155.3630065918</ele>
        <time>2009-10-18T09:13:32Z</time>
      </trkpt>
      <trkpt lat="44.97214" lon="4.9091">
        <ele>155.12399291992</ele>
        <time>2009-10-18T09:13:39Z</time>
      </trkpt>
      <trkpt lat="44.97246" lon="4.90854">
        <ele>154.07299804688</ele>
        <time>2009-10-18T09:13:45Z</time>
      </trkpt>
      <trkpt lat="44.97284" lon="4.90789">
        <ele>153.92300415039</ele>
        <time>2009-10-18T09:13:52Z</time>
      </trkpt>
      <trkpt lat="44.97329" lon="4.90699">
        <ele>156.06300354004</ele>
        <time>2009-10-18T09:14:01Z</time>
      </trkpt>
      <trkpt lat="44.97339" lon="4.90679">
        <ele>154.51100158691</ele>
        <time>2009-10-18T09:14:03Z</time>
      </trkpt>
      <trkpt lat="44.97358" lon="4.90641">
        <ele>152.58599853516</ele>
        <time>2009-10-18T09:14:07Z</time>
      </trkpt>
      <trkpt lat="44.97396" lon="4.90569">
        <ele>151.17100524902</ele>
        <time>2009-10-18T09:14:14Z</time>
      </trkpt>
      <trkpt lat="44.97426" lon="4.9054">
        <ele>150.55700683594</ele>
        <time>2009-10-18T09:14:18Z</time>
      </trkpt>
      <trkpt lat="44.97477" lon="4.90506">
        <ele>151.88900756836</ele>
        <time>2009-10-18T09:14:25Z</time>
      </trkpt>
      <trkpt lat="44.97531" lon="4.90469">
        <ele>150.06599426269</ele>
        <time>2009-10-18T09:14:32Z</time>
      </trkpt>
      <trkpt lat="44.97582" lon="4.90435">
        <ele>148.35400390625</ele>
        <time>2009-10-18T09:14:38Z</time>
      </trkpt>
      <trkpt lat="44.97656" lon="4.90381">
        <ele>145.07200622559</ele>
        <time>2009-10-18T09:14:46Z</time>
      </trkpt>
      <trkpt lat="44.97674" lon="4.90365">
        <ele>143.88000488281</ele>
        <time>2009-10-18T09:14:48Z</time>
      </trkpt>
      <trkpt lat="44.97713" lon="4.90312">
        <ele>141.67799377441</ele>
        <time>2009-10-18T09:14:53Z</time>
      </trkpt>
      <trkpt lat="44.97762" lon="4.90246">
        <ele>139.30700683594</ele>
        <time>2009-10-18T09:14:59Z</time>
      </trkpt>
      <trkpt lat="44.97808" lon="4.90191">
        <ele>139.20500183106</ele>
        <time>2009-10-18T09:15:05Z</time>
      </trkpt>
      <trkpt lat="44.97863" lon="4.90128">
        <ele>138.89300537109</ele>
        <time>2009-10-18T09:15:13Z</time>
      </trkpt>
      <trkpt lat="44.97898" lon="4.9011">
        <ele>137.65699768066</ele>
        <time>2009-10-18T09:15:18Z</time>
      </trkpt>
      <trkpt lat="44.97913" lon="4.9011">
        <ele>138.62600708008</ele>
        <time>2009-10-18T09:15:20Z</time>
      </trkpt>
      <trkpt lat="44.97933" lon="4.90113">
        <ele>136.45399475098</ele>
        <time>2009-10-18T09:15:23Z</time>
      </trkpt>
      <trkpt lat="44.97992" lon="4.90121">
        <ele>137.30499267578</ele>
        <time>2009-10-18T09:15:32Z</time>
      </trkpt>
      <trkpt lat="44.98043" lon="4.90126">
        <ele>137.37399291992</ele>
        <time>2009-10-18T09:15:40Z</time>
      </trkpt>
      <trkpt lat="44.98096" lon="4.90131">
        <ele>136.84899902344</ele>
        <time>2009-10-18T09:15:48Z</time>
      </trkpt>
      <trkpt lat="44.98151" lon="4.90139">
        <ele>137.80099487305</ele>
        <time>2009-10-18T09:15:56Z</time>
      </trkpt>
      <trkpt lat="44.98206" lon="4.90156">
        <ele>138.88900756836</ele>
        <time>2009-10-18T09:16:04Z</time>
      </trkpt>
      <trkpt lat="44.98231" lon="4.90167">
        <ele>138.15100097656</ele>
        <time>2009-10-18T09:16:08Z</time>
      </trkpt>
      <trkpt lat="44.98254" lon="4.90158">
        <ele>140.66600036621</ele>
        <time>2009-10-18T09:16:12Z</time>
      </trkpt>
      <trkpt lat="44.9826" lon="4.90141">
        <ele>140.81399536133</ele>
        <time>2009-10-18T09:16:14Z</time>
      </trkpt>
      <trkpt lat="44.98264" lon="4.90122">
        <ele>141.70700073242</ele>
        <time>2009-10-18T09:16:16Z</time>
      </trkpt>
      <trkpt lat="44.98277" lon="4.90066">
        <ele>139.09199523926</ele>
        <time>2009-10-18T09:16:22Z</time>
      </trkpt>
      <trkpt lat="44.98296" lon="4.90022">
        <ele>138.53399658203</ele>
        <time>2009-10-18T09:16:27Z</time>
      </trkpt>
      <trkpt lat="44.98322" lon="4.90009">
        <ele>137.61700439453</ele>
        <time>2009-10-18T09:16:31Z</time>
      </trkpt>
      <trkpt lat="44.98335" lon="4.90017">
        <ele>136.22799682617</ele>
        <time>2009-10-18T09:16:33Z</time>
      </trkpt>
      <trkpt lat="44.98375" lon="4.9006">
        <ele>136.07499694824</ele>
        <time>2009-10-18T09:16:40Z</time>
      </trkpt>
      <trkpt lat="44.98412" lon="4.90111">
        <ele>136.96299743652</ele>
        <time>2009-10-18T09:16:47Z</time>
      </trkpt>
      <trkpt lat="44.98457" lon="4.90179">
        <ele>136.85400390625</ele>
        <time>2009-10-18T09:16:56Z</time>
      </trkpt>
      <trkpt lat="44.98495" lon="4.90236">
        <ele>136.88800048828</ele>
        <time>2009-10-18T09:17:04Z</time>
      </trkpt>
      <trkpt lat="44.98547" lon="4.90313">
        <ele>137.89799499512</ele>
        <time>2009-10-18T09:17:15Z</time>
      </trkpt>
      <trkpt lat="44.98598" lon="4.90387">
        <ele>138.31199645996</ele>
        <time>2009-10-18T09:17:25Z</time>
      </trkpt>
      <trkpt lat="44.98639" lon="4.9044">
        <ele>138.26100158691</ele>
        <time>2009-10-18T09:17:33Z</time>
      </trkpt>
      <trkpt lat="44.98685" lon="4.90496">
        <ele>138.20500183106</ele>
        <time>2009-10-18T09:17:42Z</time>
      </trkpt>
      <trkpt lat="44.98742" lon="4.90567">
        <ele>138.17100524902</ele>
        <time>2009-10-18T09:17:53Z</time>
      </trkpt>
      <trkpt lat="44.98759" lon="4.90589">
        <ele>139.61000061035</ele>
        <time>2009-10-18T09:17:56Z</time>
      </trkpt>
      <trkpt lat="44.98814" lon="4.90655">
        <ele>139.66700744629</ele>
        <time>2009-10-18T09:18:06Z</time>
      </trkpt>
      <trkpt lat="44.98834" lon="4.90681">
        <ele>139.40299987793</ele>
        <time>2009-10-18T09:18:10Z</time>
      </trkpt>
      <trkpt lat="44.9888" lon="4.90737">
        <ele>137.75900268555</ele>
        <time>2009-10-18T09:18:19Z</time>
      </trkpt>
      <trkpt lat="44.98896" lon="4.90758">
        <ele>139.53100585938</ele>
        <time>2009-10-18T09:18:22Z</time>
      </trkpt>
      <trkpt lat="44.98942" lon="4.9082">
        <ele>139.18899536133</ele>
        <time>2009-10-18T09:18:31Z</time>
      </trkpt>
      <trkpt lat="44.98985" lon="4.9088">
        <ele>138.24000549316</ele>
        <time>2009-10-18T09:18:40Z</time>
      </trkpt>
      <trkpt lat="44.99022" lon="4.90933">
        <ele>138.92500305176</ele>
        <time>2009-10-18T09:18:48Z</time>
      </trkpt>
      <trkpt lat="44.99079" lon="4.91009">
        <ele>139.94599914551</ele>
        <time>2009-10-18T09:19:00Z</time>
      </trkpt>
      <trkpt lat="44.9912" lon="4.91057">
        <ele>141.79800415039</ele>
        <time>2009-10-18T09:19:08Z</time>
      </trkpt>
      <trkpt lat="44.99169" lon="4.91114">
        <ele>140.96499633789</ele>
        <time>2009-10-18T09:19:18Z</time>
      </trkpt>
      <trkpt lat="44.99178" lon="4.91144">
        <ele>141.49800109863</ele>
        <time>2009-10-18T09:19:22Z</time>
      </trkpt>
      <trkpt lat="44.99182" lon="4.91165">
        <ele>142.82699584961</ele>
        <time>2009-10-18T09:19:25Z</time>
      </trkpt>
      <trkpt lat="44.99194" lon="4.91226">
        <ele>145.83000183106</ele>
        <time>2009-10-18T09:19:34Z</time>
      </trkpt>
      <trkpt lat="44.99201" lon="4.91264">
        <ele>147.71099853516</ele>
        <time>2009-10-18T09:19:40Z</time>
      </trkpt>
      <trkpt lat="44.99207" lon="4.91319">
        <ele>150.8390045166</ele>
        <time>2009-10-18T09:19:49Z</time>
      </trkpt>
      <trkpt lat="44.99197" lon="4.91386">
        <ele>155.01699829102</ele>
        <time>2009-10-18T09:20:00Z</time>
      </trkpt>
      <trkpt lat="44.99187" lon="4.91434">
        <ele>157.71699523926</ele>
        <time>2009-10-18T09:20:08Z</time>
      </trkpt>
      <trkpt lat="44.99173" lon="4.91481">
        <ele>159.52200317383</ele>
        <time>2009-10-18T09:20:17Z</time>
      </trkpt>
      <trkpt lat="44.99167" lon="4.91503">
        <ele>161.10299682617</ele>
        <time>2009-10-18T09:20:21Z</time>
      </trkpt>
      <trkpt lat="44.99164" lon="4.91557">
        <ele>164.21499633789</ele>
        <time>2009-10-18T09:20:30Z</time>
      </trkpt>
      <trkpt lat="44.99164" lon="4.91563">
        <ele>164.63900756836</ele>
        <time>2009-10-18T09:20:31Z</time>
      </trkpt>
      <trkpt lat="44.99171" lon="4.91618">
        <ele>167.82699584961</ele>
        <time>2009-10-18T09:20:40Z</time>
      </trkpt>
      <trkpt lat="44.99172" lon="4.9163">
        <ele>167.8630065918</ele>
        <time>2009-10-18T09:20:42Z</time>
      </trkpt>
      <trkpt lat="44.99179" lon="4.91662">
        <ele>170.00900268555</ele>
        <time>2009-10-18T09:20:48Z</time>
      </trkpt>
      <trkpt lat="44.99185" lon="4.91682">
        <ele>172.05200195312</ele>
        <time>2009-10-18T09:20:52Z</time>
      </trkpt>
      <trkpt lat="44.99199" lon="4.91714">
        <ele>173.16700744629</ele>
        <time>2009-10-18T09:20:59Z</time>
      </trkpt>
      <trkpt lat="44.99218" lon="4.91751">
        <ele>175.04899597168</ele>
        <time>2009-10-18T09:21:07Z</time>
      </trkpt>
      <trkpt lat="44.99225" lon="4.91783">
        <ele>176.72900390625</ele>
        <time>2009-10-18T09:21:13Z</time>
      </trkpt>
      <trkpt lat="44.99223" lon="4.91795">
        <ele>177.77299499512</ele>
        <time>2009-10-18T09:21:15Z</time>
      </trkpt>
      <trkpt lat="44.9922" lon="4.91805">
        <ele>178.64300537109</ele>
        <time>2009-10-18T09:21:17Z</time>
      </trkpt>
      <trkpt lat="44.9921" lon="4.91824">
        <ele>181.17700195312</ele>
        <time>2009-10-18T09:21:21Z</time>
      </trkpt>
      <trkpt lat="44.99205" lon="4.91833">
        <ele>181.99000549316</ele>
        <time>2009-10-18T09:21:23Z</time>
      </trkpt>
      <trkpt lat="44.99202" lon="4.91838">
        <ele>182.18499755859</ele>
        <time>2009-10-18T09:21:24Z</time>
      </trkpt>
      <trkpt lat="44.99184" lon="4.91881">
        <ele>185.28999328613</ele>
        <time>2009-10-18T09:21:32Z</time>
      </trkpt>
      <trkpt lat="44.99175" lon="4.91913">
        <ele>187.4880065918</ele>
        <time>2009-10-18T09:21:38Z</time>
      </trkpt>
      <trkpt lat="44.99157" lon="4.9197">
        <ele>189.54699707031</ele>
        <time>2009-10-18T09:21:47Z</time>
      </trkpt>
      <trkpt lat="44.99146" lon="4.92004">
        <ele>190.01600646973</ele>
        <time>2009-10-18T09:21:52Z</time>
      </trkpt>
      <trkpt lat="44.99147" lon="4.92025">
        <ele>190.49499511719</ele>
        <time>2009-10-18T09:21:55Z</time>
      </trkpt>
      <trkpt lat="44.99155" lon="4.92034">
        <ele>190.85499572754</ele>
        <time>2009-10-18T09:21:57Z</time>
      </trkpt>
      <trkpt lat="44.99203" lon="4.92074">
        <ele>190.88900756836</ele>
        <time>2009-10-18T09:22:06Z</time>
      </trkpt>
      <trkpt lat="44.99227" lon="4.92093">
        <ele>192.30999755859</ele>
        <time>2009-10-18T09:22:10Z</time>
      </trkpt>
      <trkpt lat="44.99261" lon="4.92122">
        <ele>192.05999755859</ele>
        <time>2009-10-18T09:22:15Z</time>
      </trkpt>
      <trkpt lat="44.99324" lon="4.92175">
        <ele>189.29299926758</ele>
        <time>2009-10-18T09:22:24Z</time>
      </trkpt>
      <trkpt lat="44.99377" lon="4.9222">
        <ele>190.72900390625</ele>
        <time>2009-10-18T09:22:32Z</time>
      </trkpt>
      <trkpt lat="44.99419" lon="4.92257">
        <ele>191.96299743652</ele>
        <time>2009-10-18T09:22:39Z</time>
      </trkpt>
      <trkpt lat="44.99424" lon="4.92262">
        <ele>192.28100585938</ele>
        <time>2009-10-18T09:22:40Z</time>
      </trkpt>
      <trkpt lat="44.99437" lon="4.92283">
        <ele>190.74200439453</ele>
        <time>2009-10-18T09:22:43Z</time>
      </trkpt>
      <trkpt lat="44.99435" lon="4.92302">
        <ele>191.90100097656</ele>
        <time>2009-10-18T09:22:45Z</time>
      </trkpt>
      <trkpt lat="44.99416" lon="4.92398">
        <ele>192.95599365234</ele>
        <time>2009-10-18T09:22:54Z</time>
      </trkpt>
      <trkpt lat="44.99398" lon="4.92476">
        <ele>192.18299865723</ele>
        <time>2009-10-18T09:23:01Z</time>
      </trkpt>
      <trkpt lat="44.99394" lon="4.92497">
        <ele>190.89399719238</ele>
        <time>2009-10-18T09:23:03Z</time>
      </trkpt>
      <trkpt lat="44.99369" lon="4.92617">
        <ele>192.99000549316</ele>
        <time>2009-10-18T09:23:14Z</time>
      </trkpt>
      <trkpt lat="44.9935" lon="4.92706">
        <ele>193.71099853516</ele>
        <time>2009-10-18T09:23:22Z</time>
      </trkpt>
      <trkpt lat="44.99329" lon="4.92795">
        <ele>192.24200439453</ele>
        <time>2009-10-18T09:23:30Z</time>
      </trkpt>
      <trkpt lat="44.993" lon="4.92906">
        <ele>192.49699401856</ele>
        <time>2009-10-18T09:23:40Z</time>
      </trkpt>
      <trkpt lat="44.99274" lon="4.93">
        <ele>192.47799682617</ele>
        <time>2009-10-18T09:23:48Z</time>
      </trkpt>
      <trkpt lat="44.99237" lon="4.93141">
        <ele>192.49200439453</ele>
        <time>2009-10-18T09:24:00Z</time>
      </trkpt>
      <trkpt lat="44.99232" lon="4.93177">
        <ele>192.77099609375</ele>
        <time>2009-10-18T09:24:03Z</time>
      </trkpt>
      <trkpt lat="44.99236" lon="4.93236">
        <ele>192.68499755859</ele>
        <time>2009-10-18T09:24:08Z</time>
      </trkpt>
      <trkpt lat="44.99224" lon="4.93248">
        <ele>193.02799987793</ele>
        <time>2009-10-18T09:24:10Z</time>
      </trkpt>
      <trkpt lat="44.99216" lon="4.93247">
        <ele>193.14599609375</ele>
        <time>2009-10-18T09:24:11Z</time>
      </trkpt>
      <trkpt lat="44.99165" lon="4.93242">
        <ele>192.73699951172</ele>
        <time>2009-10-18T09:24:17Z</time>
      </trkpt>
      <trkpt lat="44.99096" lon="4.93236">
        <ele>193.21600341797</ele>
        <time>2009-10-18T09:24:24Z</time>
      </trkpt>
      <trkpt lat="44.99034" lon="4.93233">
        <ele>193.33200073242</ele>
        <time>2009-10-18T09:24:30Z</time>
      </trkpt>
      <trkpt lat="44.98959" lon="4.93226">
        <ele>193.96600341797</ele>
        <time>2009-10-18T09:24:37Z</time>
      </trkpt>
      <trkpt lat="44.98891" lon="4.93225">
        <ele>193.86700439453</ele>
        <time>2009-10-18T09:24:43Z</time>
      </trkpt>
      <trkpt lat="44.98879" lon="4.93224">
        <ele>193.72399902344</ele>
        <time>2009-10-18T09:24:44Z</time>
      </trkpt>
      <trkpt lat="44.98815" lon="4.93199">
        <ele>193.72599792481</ele>
        <time>2009-10-18T09:24:50Z</time>
      </trkpt>
      <trkpt lat="44.9874" lon="4.93165">
        <ele>194.45500183106</ele>
        <time>2009-10-18T09:24:57Z</time>
      </trkpt>
      <trkpt lat="44.9866" lon="4.93124">
        <ele>193.43099975586</ele>
        <time>2009-10-18T09:25:05Z</time>
      </trkpt>
      <trkpt lat="44.98588" lon="4.93092">
        <ele>193.59599304199</ele>
        <time>2009-10-18T09:25:12Z</time>
      </trkpt>
      <trkpt lat="44.98526" lon="4.93058">
        <ele>193.0890045166</ele>
        <time>2009-10-18T09:25:18Z</time>
      </trkpt>
      <trkpt lat="44.98463" lon="4.93019">
        <ele>192.97599792481</ele>
        <time>2009-10-18T09:25:24Z</time>
      </trkpt>
      <trkpt lat="44.98429" lon="4.92978">
        <ele>192.63200378418</ele>
        <time>2009-10-18T09:25:28Z</time>
      </trkpt>
      <trkpt lat="44.98388" lon="4.92925">
        <ele>192.69999694824</ele>
        <time>2009-10-18T09:25:33Z</time>
      </trkpt>
      <trkpt lat="44.98364" lon="4.9289">
        <ele>194.31900024414</ele>
        <time>2009-10-18T09:25:36Z</time>
      </trkpt>
      <trkpt lat="44.98333" lon="4.92828">
        <ele>193.9640045166</ele>
        <time>2009-10-18T09:25:41Z</time>
      </trkpt>
      <trkpt lat="44.98311" lon="4.92763">
        <ele>193.27000427246</ele>
        <time>2009-10-18T09:25:46Z</time>
      </trkpt>
      <trkpt lat="44.98279" lon="4.92705">
        <ele>193.01100158691</ele>
        <time>2009-10-18T09:25:51Z</time>
      </trkpt>
      <trkpt lat="44.98219" lon="4.92622">
        <ele>193.61999511719</ele>
        <time>2009-10-18T09:25:59Z</time>
      </trkpt>
      <trkpt lat="44.98196" lon="4.92593">
        <ele>193.10499572754</ele>
        <time>2009-10-18T09:26:02Z</time>
      </trkpt>
      <trkpt lat="44.98159" lon="4.92565">
        <ele>192.11599731445</ele>
        <time>2009-10-18T09:26:06Z</time>
      </trkpt>
      <trkpt lat="44.98093" lon="4.92528">
        <ele>192.10800170898</ele>
        <time>2009-10-18T09:26:13Z</time>
      </trkpt>
      <trkpt lat="44.98033" lon="4.92469">
        <ele>191.89399719238</ele>
        <time>2009-10-18T09:26:20Z</time>
      </trkpt>
      <trkpt lat="44.97981" lon="4.92415">
        <ele>192.48300170898</ele>
        <time>2009-10-18T09:26:26Z</time>
      </trkpt>
      <trkpt lat="44.9792" lon="4.92354">
        <ele>191.06399536133</ele>
        <time>2009-10-18T09:26:33Z</time>
      </trkpt>
      <trkpt lat="44.97892" lon="4.92306">
        <ele>191.19500732422</ele>
        <time>2009-10-18T09:26:37Z</time>
      </trkpt>
      <trkpt lat="44.9786" lon="4.9221">
        <ele>191.07099914551</ele>
        <time>2009-10-18T09:26:44Z</time>
      </trkpt>
      <trkpt lat="44.97832" lon="4.92129">
        <ele>191.33500671387</ele>
        <time>2009-10-18T09:26:50Z</time>
      </trkpt>
      <trkpt lat="44.97822" lon="4.921">
        <ele>191.98300170898</ele>
        <time>2009-10-18T09:26:52Z</time>
      </trkpt>
      <trkpt lat="44.97782" lon="4.91977">
        <ele>190.59899902344</ele>
        <time>2009-10-18T09:27:01Z</time>
      </trkpt>
      <trkpt lat="44.97757" lon="4.91913">
        <ele>189.44200134277</ele>
        <time>2009-10-18T09:27:06Z</time>
      </trkpt>
      <trkpt lat="44.97725" lon="4.91851">
        <ele>187.26800537109</ele>
        <time>2009-10-18T09:27:11Z</time>
      </trkpt>
      <trkpt lat="44.97695" lon="4.91783">
        <ele>181.7140045166</ele>
        <time>2009-10-18T09:27:16Z</time>
      </trkpt>
      <trkpt lat="44.97656" lon="4.91744">
        <ele>179.27600097656</ele>
        <time>2009-10-18T09:27:20Z</time>
      </trkpt>
      <trkpt lat="44.97579" lon="4.91712">
        <ele>172.8390045166</ele>
        <time>2009-10-18T09:27:26Z</time>
      </trkpt>
      <trkpt lat="44.9749" lon="4.91675">
        <ele>168.14799499512</ele>
        <time>2009-10-18T09:27:33Z</time>
      </trkpt>
      <trkpt lat="44.97392" lon="4.91633">
        <ele>164.81399536133</ele>
        <time>2009-10-18T09:27:41Z</time>
      </trkpt>
      <trkpt lat="44.97369" lon="4.9162">
        <ele>164.18099975586</ele>
        <time>2009-10-18T09:27:43Z</time>
      </trkpt>
      <trkpt lat="44.97325" lon="4.91583">
        <ele>162.36599731445</ele>
        <time>2009-10-18T09:27:47Z</time>
      </trkpt>
      <trkpt lat="44.97295" lon="4.91547">
        <ele>160.74499511719</ele>
        <time>2009-10-18T09:27:50Z</time>
      </trkpt>
      <trkpt lat="44.97245" lon="4.91523">
        <ele>159.10299682617</ele>
        <time>2009-10-18T09:27:54Z</time>
      </trkpt>
      <trkpt lat="44.97219" lon="4.91514">
        <ele>158.42199707031</ele>
        <time>2009-10-18T09:27:56Z</time>
      </trkpt>
      <trkpt lat="44.97142" lon="4.91491">
        <ele>155.81399536133</ele>
        <time>2009-10-18T09:28:02Z</time>
      </trkpt>
      <trkpt lat="44.97092" lon="4.91492">
        <ele>155.59599304199</ele>
        <time>2009-10-18T09:28:06Z</time>
      </trkpt>
      <trkpt lat="44.97044" lon="4.91486">
        <ele>157.14900207519</ele>
        <time>2009-10-18T09:28:10Z</time>
      </trkpt>
      <trkpt lat="44.97" lon="4.91488">
        <ele>159.93200683594</ele>
        <time>2009-10-18T09:28:14Z</time>
      </trkpt>
      <trkpt lat="44.9698" lon="4.91492">
        <ele>161.14900207519</ele>
        <time>2009-10-18T09:28:16Z</time>
      </trkpt>
      <trkpt lat="44.96923" lon="4.91506">
        <ele>161.875</ele>
        <time>2009-10-18T09:28:22Z</time>
      </trkpt>
      <trkpt lat="44.9688" lon="4.91509">
        <ele>159.4880065918</ele>
        <time>2009-10-18T09:28:26Z</time>
      </trkpt>
      <trkpt lat="44.96822" lon="4.9152">
        <ele>158.57200622559</ele>
        <time>2009-10-18T09:28:31Z</time>
      </trkpt>
      <trkpt lat="44.96757" lon="4.9154">
        <ele>156.94700622559</ele>
        <time>2009-10-18T09:28:37Z</time>
      </trkpt>
      <trkpt lat="44.96681" lon="4.91561">
        <ele>156.92999267578</ele>
        <time>2009-10-18T09:28:44Z</time>
      </trkpt>
      <trkpt lat="44.96627" lon="4.91585">
        <ele>156.72999572754</ele>
        <time>2009-10-18T09:28:49Z</time>
      </trkpt>
      <trkpt lat="44.96563" lon="4.91608">
        <ele>157.02499389648</ele>
        <time>2009-10-18T09:28:55Z</time>
      </trkpt>
      <trkpt lat="44.96512" lon="4.91602">
        <ele>159.97500610352</ele>
        <time>2009-10-18T09:29:00Z</time>
      </trkpt>
      <trkpt lat="44.96494" lon="4.91595">
        <ele>160.99499511719</ele>
        <time>2009-10-18T09:29:02Z</time>
      </trkpt>
      <trkpt lat="44.96425" lon="4.91562">
        <ele>158.32200622559</ele>
        <time>2009-10-18T09:29:09Z</time>
      </trkpt>
      <trkpt lat="44.96404" lon="4.91549">
        <ele>156.97399902344</ele>
        <time>2009-10-18T09:29:11Z</time>
      </trkpt>
      <trkpt lat="44.96336" lon="4.91523">
        <ele>157.45199584961</ele>
        <time>2009-10-18T09:29:17Z</time>
      </trkpt>
      <trkpt lat="44.96302" lon="4.91512">
        <ele>156.86500549316</ele>
        <time>2009-10-18T09:29:20Z</time>
      </trkpt>
      <trkpt lat="44.96264" lon="4.91477">
        <ele>157.4700012207</ele>
        <time>2009-10-18T09:29:24Z</time>
      </trkpt>
      <trkpt lat="44.96224" lon="4.91425">
        <ele>156.23199462891</ele>
        <time>2009-10-18T09:29:29Z</time>
      </trkpt>
      <trkpt lat="44.96193" lon="4.91381">
        <ele>156.81399536133</ele>
        <time>2009-10-18T09:29:33Z</time>
      </trkpt>
      <trkpt lat="44.96146" lon="4.91272">
        <ele>157.22799682617</ele>
        <time>2009-10-18T09:29:41Z</time>
      </trkpt>
      <trkpt lat="44.96112" lon="4.91191">
        <ele>155.33000183106</ele>
        <time>2009-10-18T09:29:47Z</time>
      </trkpt>
      <trkpt lat="44.96068" lon="4.91101">
        <ele>156.14700317383</ele>
        <time>2009-10-18T09:29:54Z</time>
      </trkpt>
      <trkpt lat="44.96043" lon="4.91051">
        <ele>155.92999267578</ele>
        <time>2009-10-18T09:29:58Z</time>
      </trkpt>
      <trkpt lat="44.9604" lon="4.91008">
        <ele>157.20700073242</ele>
        <time>2009-10-18T09:30:01Z</time>
      </trkpt>
      <trkpt lat="44.96057" lon="4.90976">
        <ele>154.15899658203</ele>
        <time>2009-10-18T09:30:04Z</time>
      </trkpt>
      <trkpt lat="44.96081" lon="4.90961">
        <ele>157.56599426269</ele>
        <time>2009-10-18T09:30:07Z</time>
      </trkpt>
      <trkpt lat="44.96112" lon="4.90959">
        <ele>155.14100646973</ele>
        <time>2009-10-18T09:30:11Z</time>
      </trkpt>
      <trkpt lat="44.96127" lon="4.9096">
        <ele>156</ele>
        <time>2009-10-18T09:30:13Z</time>
      </trkpt>
      <trkpt lat="44.96174" lon="4.90971">
        <ele>155.84399414062</ele>
        <time>2009-10-18T09:30:20Z</time>
      </trkpt>
      <trkpt lat="44.96212" lon="4.90979">
        <ele>156.97999572754</ele>
        <time>2009-10-18T09:30:26Z</time>
      </trkpt>
      <trkpt lat="44.96249" lon="4.90987">
        <ele>156.30799865723</ele>
        <time>2009-10-18T09:30:32Z</time>
      </trkpt>
      <trkpt lat="44.96303" lon="4.90999">
        <ele>157.34399414062</ele>
        <time>2009-10-18T09:30:41Z</time>
      </trkpt>
      <trkpt lat="44.9636" lon="4.91014">
        <ele>158.22099304199</ele>
        <time>2009-10-18T09:30:51Z</time>
      </trkpt>
      <trkpt lat="44.96402" lon="4.91027">
        <ele>157.9109954834</ele>
        <time>2009-10-18T09:30:58Z</time>
      </trkpt>
      <trkpt lat="44.96418" lon="4.91036">
        <ele>158.42500305176</ele>
        <time>2009-10-18T09:31:01Z</time>
      </trkpt>
      <trkpt lat="44.96439" lon="4.91053">
        <ele>159.42399597168</ele>
        <time>2009-10-18T09:31:05Z</time>
      </trkpt>
      <trkpt lat="44.9646" lon="4.91062">
        <ele>159.95300292969</ele>
        <time>2009-10-18T09:31:09Z</time>
      </trkpt>
      <trkpt lat="44.96478" lon="4.91059">
        <ele>160.07899475098</ele>
        <time>2009-10-18T09:31:12Z</time>
      </trkpt>
      <trkpt lat="44.96501" lon="4.91053">
        <ele>159.38900756836</ele>
        <time>2009-10-18T09:31:16Z</time>
      </trkpt>
      <trkpt lat="44.9655" lon="4.91051">
        <ele>158.80799865723</ele>
        <time>2009-10-18T09:31:24Z</time>
      </trkpt>
      <trkpt lat="44.9658" lon="4.91066">
        <ele>158.60299682617</ele>
        <time>2009-10-18T09:31:29Z</time>
      </trkpt>
      <trkpt lat="44.96606" lon="4.91068">
        <ele>159.87600708008</ele>
        <time>2009-10-18T09:31:33Z</time>
      </trkpt>
      <trkpt lat="44.96618" lon="4.91062">
        <ele>159.6190032959</ele>
        <time>2009-10-18T09:31:35Z</time>
      </trkpt>
      <trkpt lat="44.9663" lon="4.91055">
        <ele>158.47399902344</ele>
        <time>2009-10-18T09:31:37Z</time>
      </trkpt>
      <trkpt lat="44.96651" lon="4.91049">
        <ele>160.31199645996</ele>
        <time>2009-10-18T09:31:40Z</time>
      </trkpt>
      <trkpt lat="44.96707" lon="4.9105">
        <ele>157.14500427246</ele>
        <time>2009-10-18T09:31:48Z</time>
      </trkpt>
      <trkpt lat="44.96778" lon="4.91052">
        <ele>156.99200439453</ele>
        <time>2009-10-18T09:31:59Z</time>
      </trkpt>
      <trkpt lat="44.96802" lon="4.91052">
        <ele>158.33099365234</ele>
        <time>2009-10-18T09:32:03Z</time>
      </trkpt>
      <trkpt lat="44.96824" lon="4.91047">
        <ele>158.30099487305</ele>
        <time>2009-10-18T09:32:07Z</time>
      </trkpt>
      <trkpt lat="44.96845" lon="4.91038">
        <ele>159.84899902344</ele>
        <time>2009-10-18T09:32:11Z</time>
      </trkpt>
      <trkpt lat="44.96895" lon="4.91014">
        <ele>159.62199401856</ele>
        <time>2009-10-18T09:32:19Z</time>
      </trkpt>
      <trkpt lat="44.96955" lon="4.90984">
        <ele>159.58399963379</ele>
        <time>2009-10-18T09:32:28Z</time>
      </trkpt>
      <trkpt lat="44.96996" lon="4.90963">
        <ele>159.49699401856</ele>
        <time>2009-10-18T09:32:34Z</time>
      </trkpt>
      <trkpt lat="44.97032" lon="4.90946">
        <ele>159.66299438477</ele>
        <time>2009-10-18T09:32:39Z</time>
      </trkpt>
      <trkpt lat="44.97068" lon="4.90946">
        <ele>160.11399841309</ele>
        <time>2009-10-18T09:32:44Z</time>
      </trkpt>
      <trkpt lat="44.9708" lon="4.90955">
        <ele>159.39100646973</ele>
        <time>2009-10-18T09:32:46Z</time>
      </trkpt>
      <trkpt lat="44.97113" lon="4.9099">
        <ele>155.94500732422</ele>
        <time>2009-10-18T09:32:52Z</time>
      </trkpt>
      <trkpt lat="44.97144" lon="4.90998">
        <ele>156.74499511719</ele>
        <time>2009-10-18T09:32:56Z</time>
      </trkpt>
      <trkpt lat="44.97172" lon="4.90978">
        <ele>157.57699584961</ele>
        <time>2009-10-18T09:33:00Z</time>
      </trkpt>
      <trkpt lat="44.97178" lon="4.9097">
        <ele>157.61000061035</ele>
        <time>2009-10-18T09:33:01Z</time>
      </trkpt>
      <trkpt lat="44.97227" lon="4.90885">
        <ele>157.49499511719</ele>
        <time>2009-10-18T09:33:11Z</time>
      </trkpt>
      <trkpt lat="44.97257" lon="4.90837">
        <ele>156.65899658203</ele>
        <time>2009-10-18T09:33:17Z</time>
      </trkpt>
      <trkpt lat="44.97295" lon="4.90767">
        <ele>157.24899291992</ele>
        <time>2009-10-18T09:33:25Z</time>
      </trkpt>
      <trkpt lat="44.97338" lon="4.90681">
        <ele>155.72999572754</ele>
        <time>2009-10-18T09:33:35Z</time>
      </trkpt>
      <trkpt lat="44.97369" lon="4.90616">
        <ele>153.53799438477</ele>
        <time>2009-10-18T09:33:42Z</time>
      </trkpt>
      <trkpt lat="44.97395" lon="4.90567">
        <ele>153.36199951172</ele>
        <time>2009-10-18T09:33:47Z</time>
      </trkpt>
      <trkpt lat="44.97424" lon="4.90542">
        <ele>152.0359954834</ele>
        <time>2009-10-18T09:33:51Z</time>
      </trkpt>
      <trkpt lat="44.97467" lon="4.90512">
        <ele>153.42900085449</ele>
        <time>2009-10-18T09:33:57Z</time>
      </trkpt>
      <trkpt lat="44.97541" lon="4.90463">
        <ele>152.04899597168</ele>
        <time>2009-10-18T09:34:07Z</time>
      </trkpt>
      <trkpt lat="44.9761" lon="4.90416">
        <ele>149.75900268555</ele>
        <time>2009-10-18T09:34:15Z</time>
      </trkpt>
      <trkpt lat="44.97671" lon="4.90365">
        <ele>147.81700134277</ele>
        <time>2009-10-18T09:34:22Z</time>
      </trkpt>
      <trkpt lat="44.97718" lon="4.90304">
        <ele>144.16400146484</ele>
        <time>2009-10-18T09:34:28Z</time>
      </trkpt>
      <trkpt lat="44.97742" lon="4.90274">
        <ele>141.85699462891</ele>
        <time>2009-10-18T09:34:31Z</time>
      </trkpt>
      <trkpt lat="44.97786" lon="4.90217">
        <ele>140.44299316406</ele>
        <time>2009-10-18T09:34:37Z</time>
      </trkpt>
      <trkpt lat="44.97817" lon="4.9018">
        <ele>142.27299499512</ele>
        <time>2009-10-18T09:34:41Z</time>
      </trkpt>
      <trkpt lat="44.9786" lon="4.90131">
        <ele>142.77799987793</ele>
        <time>2009-10-18T09:34:47Z</time>
      </trkpt>
      <trkpt lat="44.97892" lon="4.90113">
        <ele>142.18099975586</ele>
        <time>2009-10-18T09:34:51Z</time>
      </trkpt>
      <trkpt lat="44.97908" lon="4.90113">
        <ele>141.11700439453</ele>
        <time>2009-10-18T09:34:53Z</time>
      </trkpt>
      <trkpt lat="44.97924" lon="4.90115">
        <ele>139.53500366211</ele>
        <time>2009-10-18T09:34:55Z</time>
      </trkpt>
      <trkpt lat="44.97984" lon="4.90122">
        <ele>139.09399414062</ele>
        <time>2009-10-18T09:35:03Z</time>
      </trkpt>
      <trkpt lat="44.98043" lon="4.90127">
        <ele>140.25500488281</ele>
        <time>2009-10-18T09:35:11Z</time>
      </trkpt>
      <trkpt lat="44.981" lon="4.90132">
        <ele>143.58000183106</ele>
        <time>2009-10-18T09:35:19Z</time>
      </trkpt>
      <trkpt lat="44.9814" lon="4.90139">
        <ele>140.30200195312</ele>
        <time>2009-10-18T09:35:25Z</time>
      </trkpt>
      <trkpt lat="44.98184" lon="4.9015">
        <ele>141.69999694824</ele>
        <time>2009-10-18T09:35:32Z</time>
      </trkpt>
      <trkpt lat="44.98232" lon="4.90167">
        <ele>141.83000183106</ele>
        <time>2009-10-18T09:35:40Z</time>
      </trkpt>
      <trkpt lat="44.98253" lon="4.9016">
        <ele>141.16400146484</ele>
        <time>2009-10-18T09:35:44Z</time>
      </trkpt>
      <trkpt lat="44.98259" lon="4.90144">
        <ele>140.24800109863</ele>
        <time>2009-10-18T09:35:46Z</time>
      </trkpt>
      <trkpt lat="44.98279" lon="4.90059">
        <ele>140.69700622559</ele>
        <time>2009-10-18T09:35:55Z</time>
      </trkpt>
      <trkpt lat="44.98295" lon="4.90025">
        <ele>140.64599609375</ele>
        <time>2009-10-18T09:35:59Z</time>
      </trkpt>
      <trkpt lat="44.98321" lon="4.9001">
        <ele>139.67799377441</ele>
        <time>2009-10-18T09:36:03Z</time>
      </trkpt>
      <trkpt lat="44.98333" lon="4.90017">
        <ele>138.71800231934</ele>
        <time>2009-10-18T09:36:05Z</time>
      </trkpt>
      <trkpt lat="44.98376" lon="4.90064">
        <ele>138.11399841309</ele>
        <time>2009-10-18T09:36:13Z</time>
      </trkpt>
      <trkpt lat="44.98421" lon="4.90129">
        <ele>139.34599304199</ele>
        <time>2009-10-18T09:36:22Z</time>
      </trkpt>
      <trkpt lat="44.98457" lon="4.90184">
        <ele>138.18200683594</ele>
        <time>2009-10-18T09:36:29Z</time>
      </trkpt>
      <trkpt lat="44.98494" lon="4.90237">
        <ele>138.53700256348</ele>
        <time>2009-10-18T09:36:37Z</time>
      </trkpt>
      <trkpt lat="44.98542" lon="4.90308">
        <ele>139.7200012207</ele>
        <time>2009-10-18T09:36:48Z</time>
      </trkpt>
      <trkpt lat="44.9857" lon="4.90352">
        <ele>140.4109954834</ele>
        <time>2009-10-18T09:36:54Z</time>
      </trkpt>
      <trkpt lat="44.98613" lon="4.90412">
        <ele>141.13900756836</ele>
        <time>2009-10-18T09:37:02Z</time>
      </trkpt>
      <trkpt lat="44.98661" lon="4.90471">
        <ele>140.38299560547</ele>
        <time>2009-10-18T09:37:11Z</time>
      </trkpt>
      <trkpt lat="44.98711" lon="4.90534">
        <ele>141.03999328613</ele>
        <time>2009-10-18T09:37:20Z</time>
      </trkpt>
      <trkpt lat="44.9876" lon="4.90592">
        <ele>142.15299987793</ele>
        <time>2009-10-18T09:37:29Z</time>
      </trkpt>
      <trkpt lat="44.98798" lon="4.9064">
        <ele>141.82699584961</ele>
        <time>2009-10-18T09:37:37Z</time>
      </trkpt>
      <trkpt lat="44.98822" lon="4.90668">
        <ele>140.21600341797</ele>
        <time>2009-10-18T09:37:42Z</time>
      </trkpt>
      <trkpt lat="44.98831" lon="4.9068">
        <ele>142.08299255371</ele>
        <time>2009-10-18T09:37:44Z</time>
      </trkpt>
      <trkpt lat="44.98865" lon="4.90722">
        <ele>141.14100646973</ele>
        <time>2009-10-18T09:37:51Z</time>
      </trkpt>
      <trkpt lat="44.98914" lon="4.90785">
        <ele>141.12300109863</ele>
        <time>2009-10-18T09:38:01Z</time>
      </trkpt>
      <trkpt lat="44.98964" lon="4.90855">
        <ele>140.29499816894</ele>
        <time>2009-10-18T09:38:11Z</time>
      </trkpt>
      <trkpt lat="44.99013" lon="4.90922">
        <ele>140.36500549316</ele>
        <time>2009-10-18T09:38:21Z</time>
      </trkpt>
      <trkpt lat="44.99061" lon="4.90987">
        <ele>140.92900085449</ele>
        <time>2009-10-18T09:38:31Z</time>
      </trkpt>
      <trkpt lat="44.99097" lon="4.91034">
        <ele>141.64199829102</ele>
        <time>2009-10-18T09:38:38Z</time>
      </trkpt>
      <trkpt lat="44.99152" lon="4.91097">
        <ele>142.86999511719</ele>
        <time>2009-10-18T09:38:48Z</time>
      </trkpt>
      <trkpt lat="44.99168" lon="4.91114">
        <ele>142.78799438477</ele>
        <time>2009-10-18T09:38:51Z</time>
      </trkpt>
      <trkpt lat="44.99178" lon="4.91144">
        <ele>143.45799255371</ele>
        <time>2009-10-18T09:38:55Z</time>
      </trkpt>
      <trkpt lat="44.99179" lon="4.91159">
        <ele>144.53100585938</ele>
        <time>2009-10-18T09:38:57Z</time>
      </trkpt>
      <trkpt lat="44.99182" lon="4.91178">
        <ele>145.26699829102</ele>
        <time>2009-10-18T09:39:00Z</time>
      </trkpt>
      <trkpt lat="44.99194" lon="4.91231">
        <ele>147.75300598144</ele>
        <time>2009-10-18T09:39:09Z</time>
      </trkpt>
      <trkpt lat="44.992" lon="4.91263">
        <ele>150.13400268555</ele>
        <time>2009-10-18T09:39:15Z</time>
      </trkpt>
      <trkpt lat="44.99205" lon="4.91302">
        <ele>151.16999816894</ele>
        <time>2009-10-18T09:39:22Z</time>
      </trkpt>
      <trkpt lat="44.99203" lon="4.91337">
        <ele>153.63299560547</ele>
        <time>2009-10-18T09:39:28Z</time>
      </trkpt>
      <trkpt lat="44.99198" lon="4.91373">
        <ele>156.32400512695</ele>
        <time>2009-10-18T09:39:34Z</time>
      </trkpt>
      <trkpt lat="44.99196" lon="4.91385">
        <ele>157.08299255371</ele>
        <time>2009-10-18T09:39:36Z</time>
      </trkpt>
      <trkpt lat="44.99187" lon="4.91428">
        <ele>159.12600708008</ele>
        <time>2009-10-18T09:39:44Z</time>
      </trkpt>
      <trkpt lat="44.99176" lon="4.91462">
        <ele>161.22900390625</ele>
        <time>2009-10-18T09:39:51Z</time>
      </trkpt>
      <trkpt lat="44.99166" lon="4.91496">
        <ele>162.91700744629</ele>
        <time>2009-10-18T09:39:58Z</time>
      </trkpt>
      <trkpt lat="44.99159" lon="4.91538">
        <ele>164.90199279785</ele>
        <time>2009-10-18T09:40:06Z</time>
      </trkpt>
      <trkpt lat="44.99162" lon="4.91583">
        <ele>167.67700195312</ele>
        <time>2009-10-18T09:40:14Z</time>
      </trkpt>
      <trkpt lat="44.99168" lon="4.9163">
        <ele>170.48100280762</ele>
        <time>2009-10-18T09:40:22Z</time>
      </trkpt>
      <trkpt lat="44.99178" lon="4.91671">
        <ele>173.55299377441</ele>
        <time>2009-10-18T09:40:30Z</time>
      </trkpt>
      <trkpt lat="44.9918" lon="4.91676">
        <ele>173.78100585938</ele>
        <time>2009-10-18T09:40:31Z</time>
      </trkpt>
      <trkpt lat="44.99182" lon="4.91681">
        <ele>173.74899291992</ele>
        <time>2009-10-18T09:40:32Z</time>
      </trkpt>
      <trkpt lat="44.99199" lon="4.91722">
        <ele>175.82200622559</ele>
        <time>2009-10-18T09:40:40Z</time>
      </trkpt>
      <trkpt lat="44.99201" lon="4.91727">
        <ele>176.09399414062</ele>
        <time>2009-10-18T09:40:41Z</time>
      </trkpt>
      <trkpt lat="44.99217" lon="4.91755">
        <ele>177.79200744629</ele>
        <time>2009-10-18T09:40:48Z</time>
      </trkpt>
      <trkpt lat="44.99224" lon="4.91778">
        <ele>178.58299255371</ele>
        <time>2009-10-18T09:40:53Z</time>
      </trkpt>
      <trkpt lat="44.9922" lon="4.91805">
        <ele>181.33599853516</ele>
        <time>2009-10-18T09:40:59Z</time>
      </trkpt>
      <trkpt lat="44.99211" lon="4.91824">
        <ele>183.53500366211</ele>
        <time>2009-10-18T09:41:04Z</time>
      </trkpt>
      <trkpt lat="44.99195" lon="4.91859">
        <ele>186.05000305176</ele>
        <time>2009-10-18T09:41:12Z</time>
      </trkpt>
      <trkpt lat="44.99192" lon="4.91867">
        <ele>186.74600219727</ele>
        <time>2009-10-18T09:41:14Z</time>
      </trkpt>
      <trkpt lat="44.99182" lon="4.91898">
        <ele>189.16299438477</ele>
        <time>2009-10-18T09:41:20Z</time>
      </trkpt>
      <trkpt lat="44.9918" lon="4.91903">
        <ele>189.42300415039</ele>
        <time>2009-10-18T09:41:21Z</time>
      </trkpt>
      <trkpt lat="44.99169" lon="4.91936">
        <ele>190.87100219727</ele>
        <time>2009-10-18T09:41:27Z</time>
      </trkpt>
      <trkpt lat="44.99153" lon="4.91985">
        <ele>192.03799438477</ele>
        <time>2009-10-18T09:41:35Z</time>
      </trkpt>
      <trkpt lat="44.99149" lon="4.91998">
        <ele>192.41200256348</ele>
        <time>2009-10-18T09:41:37Z</time>
      </trkpt>
      <trkpt lat="44.99146" lon="4.92026">
        <ele>193.24800109863</ele>
        <time>2009-10-18T09:41:41Z</time>
      </trkpt>
      <trkpt lat="44.99155" lon="4.92035">
        <ele>193.37100219727</ele>
        <time>2009-10-18T09:41:43Z</time>
      </trkpt>
      <trkpt lat="44.992" lon="4.92072">
        <ele>193.52200317383</ele>
        <time>2009-10-18T09:41:51Z</time>
      </trkpt>
      <trkpt lat="44.99251" lon="4.92116">
        <ele>193.36399841309</ele>
        <time>2009-10-18T09:42:00Z</time>
      </trkpt>
      <trkpt lat="44.99301" lon="4.92158">
        <ele>192.29800415039</ele>
        <time>2009-10-18T09:42:08Z</time>
      </trkpt>
      <trkpt lat="44.99362" lon="4.92208">
        <ele>192.68499755859</ele>
        <time>2009-10-18T09:42:17Z</time>
      </trkpt>
      <trkpt lat="44.9941" lon="4.92251">
        <ele>194.08999633789</ele>
        <time>2009-10-18T09:42:25Z</time>
      </trkpt>
      <trkpt lat="44.99428" lon="4.92267">
        <ele>194.49200439453</ele>
        <time>2009-10-18T09:42:28Z</time>
      </trkpt>
      <trkpt lat="44.99437" lon="4.92291">
        <ele>192.83399963379</ele>
        <time>2009-10-18T09:42:31Z</time>
      </trkpt>
      <trkpt lat="44.99431" lon="4.92321">
        <ele>193.52099609375</ele>
        <time>2009-10-18T09:42:34Z</time>
      </trkpt>
      <trkpt lat="44.99408" lon="4.92437">
        <ele>194.60200500488</ele>
        <time>2009-10-18T09:42:45Z</time>
      </trkpt>
      <trkpt lat="44.99388" lon="4.92522">
        <ele>193.65600585938</ele>
        <time>2009-10-18T09:42:53Z</time>
      </trkpt>
      <trkpt lat="44.99371" lon="4.92602">
        <ele>194.54200744629</ele>
        <time>2009-10-18T09:43:00Z</time>
      </trkpt>
      <trkpt lat="44.9935" lon="4.92697">
        <ele>194.83799743652</ele>
        <time>2009-10-18T09:43:08Z</time>
      </trkpt>
      <trkpt lat="44.99331" lon="4.92778">
        <ele>193.93699645996</ele>
        <time>2009-10-18T09:43:15Z</time>
      </trkpt>
      <trkpt lat="44.99305" lon="4.92881">
        <ele>194.62899780273</ele>
        <time>2009-10-18T09:43:24Z</time>
      </trkpt>
      <trkpt lat="44.99276" lon="4.92987">
        <ele>194.97399902344</ele>
        <time>2009-10-18T09:43:33Z</time>
      </trkpt>
      <trkpt lat="44.99253" lon="4.93072">
        <ele>195.16200256348</ele>
        <time>2009-10-18T09:43:40Z</time>
      </trkpt>
      <trkpt lat="44.99234" lon="4.93156">
        <ele>195.59800720215</ele>
        <time>2009-10-18T09:43:47Z</time>
      </trkpt>
      <trkpt lat="44.99232" lon="4.93193">
        <ele>195.58500671387</ele>
        <time>2009-10-18T09:43:50Z</time>
      </trkpt>
      <trkpt lat="44.99234" lon="4.93217">
        <ele>195.85000610352</ele>
        <time>2009-10-18T09:43:52Z</time>
      </trkpt>
      <trkpt lat="44.99231" lon="4.93246">
        <ele>195.29299926758</ele>
        <time>2009-10-18T09:43:55Z</time>
      </trkpt>
      <trkpt lat="44.99215" lon="4.93248">
        <ele>195.86599731445</ele>
        <time>2009-10-18T09:43:57Z</time>
      </trkpt>
      <trkpt lat="44.99156" lon="4.93244">
        <ele>195.1130065918</ele>
        <time>2009-10-18T09:44:03Z</time>
      </trkpt>
      <trkpt lat="44.99084" lon="4.93237">
        <ele>195.33700561523</ele>
        <time>2009-10-18T09:44:10Z</time>
      </trkpt>
      <trkpt lat="44.98968" lon="4.93229">
        <ele>195.92599487305</ele>
        <time>2009-10-18T09:44:21Z</time>
      </trkpt>
      <trkpt lat="44.98874" lon="4.93222">
        <ele>195.63999938965</ele>
        <time>2009-10-18T09:44:30Z</time>
      </trkpt>
      <trkpt lat="44.98826" lon="4.93205">
        <ele>195.6309967041</ele>
        <time>2009-10-18T09:44:35Z</time>
      </trkpt>
      <trkpt lat="44.98759" lon="4.93173">
        <ele>195.87600708008</ele>
        <time>2009-10-18T09:44:42Z</time>
      </trkpt>
      <trkpt lat="44.98689" lon="4.93141">
        <ele>195.58099365234</ele>
        <time>2009-10-18T09:44:49Z</time>
      </trkpt>
      <trkpt lat="44.98607" lon="4.93101">
        <ele>195.03500366211</ele>
        <time>2009-10-18T09:44:57Z</time>
      </trkpt>
      <trkpt lat="44.98545" lon="4.93071">
        <ele>194.66200256348</ele>
        <time>2009-10-18T09:45:03Z</time>
      </trkpt>
      <trkpt lat="44.98483" lon="4.93034">
        <ele>194.76899719238</ele>
        <time>2009-10-18T09:45:09Z</time>
      </trkpt>
      <trkpt lat="44.98462" lon="4.93019">
        <ele>195.25799560547</ele>
        <time>2009-10-18T09:45:11Z</time>
      </trkpt>
      <trkpt lat="44.98421" lon="4.92966">
        <ele>195.24800109863</ele>
        <time>2009-10-18T09:45:16Z</time>
      </trkpt>
      <trkpt lat="44.9838" lon="4.92915">
        <ele>194.99800109863</ele>
        <time>2009-10-18T09:45:21Z</time>
      </trkpt>
      <trkpt lat="44.98347" lon="4.92859">
        <ele>194.93299865723</ele>
        <time>2009-10-18T09:45:26Z</time>
      </trkpt>
      <trkpt lat="44.98323" lon="4.92799">
        <ele>194.73899841309</ele>
        <time>2009-10-18T09:45:31Z</time>
      </trkpt>
      <trkpt lat="44.98304" lon="4.9275">
        <ele>194.72200012207</ele>
        <time>2009-10-18T09:45:35Z</time>
      </trkpt>
      <trkpt lat="44.9827" lon="4.92695">
        <ele>194.93899536133</ele>
        <time>2009-10-18T09:45:40Z</time>
      </trkpt>
      <trkpt lat="44.98216" lon="4.92622">
        <ele>193.98599243164</ele>
        <time>2009-10-18T09:45:47Z</time>
      </trkpt>
      <trkpt lat="44.98192" lon="4.92591">
        <ele>194.03900146484</ele>
        <time>2009-10-18T09:45:50Z</time>
      </trkpt>
      <trkpt lat="44.98156" lon="4.92566">
        <ele>194.19500732422</ele>
        <time>2009-10-18T09:45:54Z</time>
      </trkpt>
      <trkpt lat="44.98098" lon="4.92535">
        <ele>193.75199890137</ele>
        <time>2009-10-18T09:46:00Z</time>
      </trkpt>
      <trkpt lat="44.98047" lon="4.92487">
        <ele>193.15800476074</ele>
        <time>2009-10-18T09:46:06Z</time>
      </trkpt>
      <trkpt lat="44.97979" lon="4.92415">
        <ele>193.06700134277</ele>
        <time>2009-10-18T09:46:14Z</time>
      </trkpt>
      <trkpt lat="44.97926" lon="4.92363">
        <ele>192.87100219727</ele>
        <time>2009-10-18T09:46:20Z</time>
      </trkpt>
      <trkpt lat="44.97917" lon="4.92354">
        <ele>192.94000244141</ele>
        <time>2009-10-18T09:46:21Z</time>
      </trkpt>
      <trkpt lat="44.9789" lon="4.92303">
        <ele>194.05900573731</ele>
        <time>2009-10-18T09:46:25Z</time>
      </trkpt>
      <trkpt lat="44.97848" lon="4.9218">
        <ele>192.05900573731</ele>
        <time>2009-10-18T09:46:34Z</time>
      </trkpt>
      <trkpt lat="44.97805" lon="4.92054">
        <ele>190.86500549316</ele>
        <time>2009-10-18T09:46:43Z</time>
      </trkpt>
      <trkpt lat="44.97767" lon="4.91938">
        <ele>190.4880065918</ele>
        <time>2009-10-18T09:46:51Z</time>
      </trkpt>
      <trkpt lat="44.97762" lon="4.91925">
        <ele>190.2559967041</ele>
        <time>2009-10-18T09:46:52Z</time>
      </trkpt>
      <trkpt lat="44.97736" lon="4.91875">
        <ele>188.90100097656</ele>
        <time>2009-10-18T09:46:56Z</time>
      </trkpt>
      <trkpt lat="44.97729" lon="4.91863">
        <ele>188.38600158691</ele>
        <time>2009-10-18T09:46:57Z</time>
      </trkpt>
      <trkpt lat="44.97712" lon="4.91822">
        <ele>186.55400085449</ele>
        <time>2009-10-18T09:47:00Z</time>
      </trkpt>
      <trkpt lat="44.97699" lon="4.91793">
        <ele>184.1130065918</ele>
        <time>2009-10-18T09:47:02Z</time>
      </trkpt>
      <trkpt lat="44.97662" lon="4.91748">
        <ele>180.52000427246</ele>
        <time>2009-10-18T09:47:06Z</time>
      </trkpt>
      <trkpt lat="44.97649" lon="4.91741">
        <ele>180.35899353027</ele>
        <time>2009-10-18T09:47:07Z</time>
      </trkpt>
      <trkpt lat="44.97556" lon="4.91699">
        <ele>170.78199768066</ele>
        <time>2009-10-18T09:47:14Z</time>
      </trkpt>
      <trkpt lat="44.97475" lon="4.91666">
        <ele>169.32499694824</ele>
        <time>2009-10-18T09:47:20Z</time>
      </trkpt>
      <trkpt lat="44.9739" lon="4.91629">
        <ele>166.59700012207</ele>
        <time>2009-10-18T09:47:27Z</time>
      </trkpt>
      <trkpt lat="44.97334" lon="4.91591">
        <ele>163.2559967041</ele>
        <time>2009-10-18T09:47:32Z</time>
      </trkpt>
      <trkpt lat="44.97304" lon="4.91556">
        <ele>162.66000366211</ele>
        <time>2009-10-18T09:47:35Z</time>
      </trkpt>
      <trkpt lat="44.97282" lon="4.91535">
        <ele>161.80099487305</ele>
        <time>2009-10-18T09:47:37Z</time>
      </trkpt>
      <trkpt lat="44.97256" lon="4.91525">
        <ele>161.25999450684</ele>
        <time>2009-10-18T09:47:39Z</time>
      </trkpt>
      <trkpt lat="44.97153" lon="4.91494">
        <ele>156.09199523926</ele>
        <time>2009-10-18T09:47:47Z</time>
      </trkpt>
      <trkpt lat="44.97141" lon="4.91492">
        <ele>156.08399963379</ele>
        <time>2009-10-18T09:47:48Z</time>
      </trkpt>
      <trkpt lat="44.97066" lon="4.91491">
        <ele>156.6369934082</ele>
        <time>2009-10-18T09:47:54Z</time>
      </trkpt>
      <trkpt lat="44.97007" lon="4.91486">
        <ele>160.05799865723</ele>
        <time>2009-10-18T09:47:59Z</time>
      </trkpt>
      <trkpt lat="44.96956" lon="4.91497">
        <ele>163.27299499512</ele>
        <time>2009-10-18T09:48:04Z</time>
      </trkpt>
      <trkpt lat="44.96946" lon="4.91501">
        <ele>163.53100585938</ele>
        <time>2009-10-18T09:48:05Z</time>
      </trkpt>
      <trkpt lat="44.96889" lon="4.91509">
        <ele>159.92100524902</ele>
        <time>2009-10-18T09:48:10Z</time>
      </trkpt>
      <trkpt lat="44.96829" lon="4.91518">
        <ele>158.83599853516</ele>
        <time>2009-10-18T09:48:15Z</time>
      </trkpt>
      <trkpt lat="44.96761" lon="4.91538">
        <ele>159.12800598144</ele>
        <time>2009-10-18T09:48:21Z</time>
      </trkpt>
      <trkpt lat="44.96689" lon="4.91558">
        <ele>158.12899780273</ele>
        <time>2009-10-18T09:48:28Z</time>
      </trkpt>
      <trkpt lat="44.9663" lon="4.91582">
        <ele>157.54499816894</ele>
        <time>2009-10-18T09:48:34Z</time>
      </trkpt>
      <trkpt lat="44.96579" lon="4.91606">
        <ele>157.52799987793</ele>
        <time>2009-10-18T09:48:39Z</time>
      </trkpt>
      <trkpt lat="44.96526" lon="4.91608">
        <ele>158.95199584961</ele>
        <time>2009-10-18T09:48:44Z</time>
      </trkpt>
      <trkpt lat="44.96516" lon="4.91605">
        <ele>159.73100280762</ele>
        <time>2009-10-18T09:48:45Z</time>
      </trkpt>
      <trkpt lat="44.96489" lon="4.91594">
        <ele>161.17500305176</ele>
        <time>2009-10-18T09:48:48Z</time>
      </trkpt>
      <trkpt lat="44.9644" lon="4.91571">
        <ele>160.47700500488</ele>
        <time>2009-10-18T09:48:53Z</time>
      </trkpt>
      <trkpt lat="44.96408" lon="4.91553">
        <ele>158.36399841309</ele>
        <time>2009-10-18T09:48:56Z</time>
      </trkpt>
      <trkpt lat="44.96352" lon="4.91529">
        <ele>157.91499328613</ele>
        <time>2009-10-18T09:49:01Z</time>
      </trkpt>
      <trkpt lat="44.96297" lon="4.91511">
        <ele>157.53999328613</ele>
        <time>2009-10-18T09:49:06Z</time>
      </trkpt>
      <trkpt lat="44.96261" lon="4.91475">
        <ele>158.7440032959</ele>
        <time>2009-10-18T09:49:10Z</time>
      </trkpt>
      <trkpt lat="44.9622" lon="4.91422">
        <ele>157.59800720215</ele>
        <time>2009-10-18T09:49:15Z</time>
      </trkpt>
      <trkpt lat="44.9619" lon="4.91377">
        <ele>158.39900207519</ele>
        <time>2009-10-18T09:49:19Z</time>
      </trkpt>
      <trkpt lat="44.96139" lon="4.91256">
        <ele>157.85299682617</ele>
        <time>2009-10-18T09:49:28Z</time>
      </trkpt>
      <trkpt lat="44.96123" lon="4.91217">
        <ele>155.37699890137</ele>
        <time>2009-10-18T09:49:31Z</time>
      </trkpt>
      <trkpt lat="44.96079" lon="4.91129">
        <ele>156.04899597168</ele>
        <time>2009-10-18T09:49:38Z</time>
      </trkpt>
      <trkpt lat="44.96043" lon="4.91052">
        <ele>156.40400695801</ele>
        <time>2009-10-18T09:49:44Z</time>
      </trkpt>
      <trkpt lat="44.96037" lon="4.9101">
        <ele>157.84399414062</ele>
        <time>2009-10-18T09:49:47Z</time>
      </trkpt>
      <trkpt lat="44.96041" lon="4.90998">
        <ele>157.75700378418</ele>
        <time>2009-10-18T09:49:48Z</time>
      </trkpt>
      <trkpt lat="44.96055" lon="4.90978">
        <ele>156.24899291992</ele>
        <time>2009-10-18T09:49:50Z</time>
      </trkpt>
      <trkpt lat="44.96079" lon="4.90962">
        <ele>157.73300170898</ele>
        <time>2009-10-18T09:49:53Z</time>
      </trkpt>
      <trkpt lat="44.96095" lon="4.9096">
        <ele>155.94200134277</ele>
        <time>2009-10-18T09:49:55Z</time>
      </trkpt>
      <trkpt lat="44.96136" lon="4.90965">
        <ele>156.4640045166</ele>
        <time>2009-10-18T09:50:01Z</time>
      </trkpt>
      <trkpt lat="44.96184" lon="4.90976">
        <ele>157.22200012207</ele>
        <time>2009-10-18T09:50:09Z</time>
      </trkpt>
      <trkpt lat="44.96247" lon="4.90989">
        <ele>157.29400634766</ele>
        <time>2009-10-18T09:50:19Z</time>
      </trkpt>
      <trkpt lat="44.96311" lon="4.91001">
        <ele>157.83099365234</ele>
        <time>2009-10-18T09:50:29Z</time>
      </trkpt>
      <trkpt lat="44.96351" lon="4.91011">
        <ele>158.22200012207</ele>
        <time>2009-10-18T09:50:35Z</time>
      </trkpt>
      <trkpt lat="44.96397" lon="4.91025">
        <ele>158.96499633789</ele>
        <time>2009-10-18T09:50:42Z</time>
      </trkpt>
      <trkpt lat="44.96403" lon="4.91028">
        <ele>159.25</ele>
        <time>2009-10-18T09:50:43Z</time>
      </trkpt>
      <trkpt lat="44.96438" lon="4.91053">
        <ele>159.67799377441</ele>
        <time>2009-10-18T09:50:49Z</time>
      </trkpt>
      <trkpt lat="44.96462" lon="4.91062">
        <ele>160.03700256348</ele>
        <time>2009-10-18T09:50:53Z</time>
      </trkpt>
      <trkpt lat="44.96496" lon="4.91054">
        <ele>160.05299377441</ele>
        <time>2009-10-18T09:50:58Z</time>
      </trkpt>
      <trkpt lat="44.96548" lon="4.91052">
        <ele>159.11199951172</ele>
        <time>2009-10-18T09:51:05Z</time>
      </trkpt>
      <trkpt lat="44.96575" lon="4.91065">
        <ele>158.67100524902</ele>
        <time>2009-10-18T09:51:09Z</time>
      </trkpt>
      <trkpt lat="44.96595" lon="4.91073">
        <ele>158.5119934082</ele>
        <time>2009-10-18T09:51:12Z</time>
      </trkpt>
      <trkpt lat="44.9661" lon="4.91068">
        <ele>158.7440032959</ele>
        <time>2009-10-18T09:51:14Z</time>
      </trkpt>
      <trkpt lat="44.96624" lon="4.91059">
        <ele>159.57499694824</ele>
        <time>2009-10-18T09:51:16Z</time>
      </trkpt>
      <trkpt lat="44.96662" lon="4.91051">
        <ele>158.99299621582</ele>
        <time>2009-10-18T09:51:21Z</time>
      </trkpt>
      <trkpt lat="44.96736" lon="4.91051">
        <ele>157.12399291992</ele>
        <time>2009-10-18T09:51:31Z</time>
      </trkpt>
      <trkpt lat="44.96791" lon="4.91052">
        <ele>157.11500549316</ele>
        <time>2009-10-18T09:51:39Z</time>
      </trkpt>
      <trkpt lat="44.96826" lon="4.91047">
        <ele>158.99200439453</ele>
        <time>2009-10-18T09:51:44Z</time>
      </trkpt>
      <trkpt lat="44.96859" lon="4.91032">
        <ele>160.14900207519</ele>
        <time>2009-10-18T09:51:49Z</time>
      </trkpt>
      <trkpt lat="44.96916" lon="4.91003">
        <ele>159.52099609375</ele>
        <time>2009-10-18T09:51:57Z</time>
      </trkpt>
      <trkpt lat="44.96931" lon="4.90995">
        <ele>160.40299987793</ele>
        <time>2009-10-18T09:51:59Z</time>
      </trkpt>
      <trkpt lat="44.96977" lon="4.90971">
        <ele>158.99499511719</ele>
        <time>2009-10-18T09:52:05Z</time>
      </trkpt>
      <trkpt lat="44.97038" lon="4.90944">
        <ele>162.71800231934</ele>
        <time>2009-10-18T09:52:13Z</time>
      </trkpt>
      <trkpt lat="44.97052" lon="4.90943">
        <ele>163.43699645996</ele>
        <time>2009-10-18T09:52:15Z</time>
      </trkpt>
      <trkpt lat="44.97076" lon="4.90952">
        <ele>159.46800231934</ele>
        <time>2009-10-18T09:52:19Z</time>
      </trkpt>
      <trkpt lat="44.97085" lon="4.9096">
        <ele>158.91700744629</ele>
        <time>2009-10-18T09:52:21Z</time>
      </trkpt>
      <trkpt lat="44.9711" lon="4.90986">
        <ele>157.28700256348</ele>
        <time>2009-10-18T09:52:26Z</time>
      </trkpt>
      <trkpt lat="44.97138" lon="4.90999">
        <ele>156.41600036621</ele>
        <time>2009-10-18T09:52:30Z</time>
      </trkpt>
      <trkpt lat="44.97153" lon="4.90994">
        <ele>157.96699523926</ele>
        <time>2009-10-18T09:52:32Z</time>
      </trkpt>
      <trkpt lat="44.97167" lon="4.90983">
        <ele>156.71800231934</ele>
        <time>2009-10-18T09:52:34Z</time>
      </trkpt>
      <trkpt lat="44.97178" lon="4.90968">
        <ele>156.41900634766</ele>
        <time>2009-10-18T09:52:36Z</time>
      </trkpt>
      <trkpt lat="44.97216" lon="4.90903">
        <ele>159.23899841309</ele>
        <time>2009-10-18T09:52:43Z</time>
      </trkpt>
      <trkpt lat="44.97238" lon="4.90868">
        <ele>157.52900695801</ele>
        <time>2009-10-18T09:52:47Z</time>
      </trkpt>
      <trkpt lat="44.97269" lon="4.90815">
        <ele>157.10400390625</ele>
        <time>2009-10-18T09:52:53Z</time>
      </trkpt>
      <trkpt lat="44.9731" lon="4.90737">
        <ele>157.98100280762</ele>
        <time>2009-10-18T09:53:01Z</time>
      </trkpt>
      <trkpt lat="44.97349" lon="4.90656">
        <ele>156.20300292969</ele>
        <time>2009-10-18T09:53:09Z</time>
      </trkpt>
      <trkpt lat="44.97386" lon="4.90582">
        <ele>154.02600097656</ele>
        <time>2009-10-18T09:53:16Z</time>
      </trkpt>
      <trkpt lat="44.97416" lon="4.90547">
        <ele>153.60499572754</ele>
        <time>2009-10-18T09:53:20Z</time>
      </trkpt>
      <trkpt lat="44.97478" lon="4.90506">
        <ele>153.89300537109</ele>
        <time>2009-10-18T09:53:28Z</time>
      </trkpt>
      <trkpt lat="44.97536" lon="4.90465">
        <ele>154.21699523926</ele>
        <time>2009-10-18T09:53:35Z</time>
      </trkpt>
      <trkpt lat="44.97554" lon="4.90453">
        <ele>152.61399841309</ele>
        <time>2009-10-18T09:53:37Z</time>
      </trkpt>
      <trkpt lat="44.97637" lon="4.90396">
        <ele>150.10099792481</ele>
        <time>2009-10-18T09:53:46Z</time>
      </trkpt>
      <trkpt lat="44.9768" lon="4.90354">
        <ele>148.00399780273</ele>
        <time>2009-10-18T09:53:51Z</time>
      </trkpt>
      <trkpt lat="44.97696" lon="4.90332">
        <ele>146.35800170898</ele>
        <time>2009-10-18T09:53:53Z</time>
      </trkpt>
      <trkpt lat="44.97746" lon="4.90269">
        <ele>144.91000366211</ele>
        <time>2009-10-18T09:53:59Z</time>
      </trkpt>
      <trkpt lat="44.97796" lon="4.90206">
        <ele>142.18899536133</ele>
        <time>2009-10-18T09:54:05Z</time>
      </trkpt>
      <trkpt lat="44.97812" lon="4.90186">
        <ele>142.92799377441</ele>
        <time>2009-10-18T09:54:07Z</time>
      </trkpt>
      <trkpt lat="44.9786" lon="4.90131">
        <ele>142.81599426269</ele>
        <time>2009-10-18T09:54:13Z</time>
      </trkpt>
      <trkpt lat="44.97896" lon="4.90113">
        <ele>142.33200073242</ele>
        <time>2009-10-18T09:54:17Z</time>
      </trkpt>
      <trkpt lat="44.97914" lon="4.90113">
        <ele>141.69599914551</ele>
        <time>2009-10-18T09:54:19Z</time>
      </trkpt>
      <trkpt lat="44.97997" lon="4.90122">
        <ele>142.32600402832</ele>
        <time>2009-10-18T09:54:29Z</time>
      </trkpt>
      <trkpt lat="44.98042" lon="4.90127">
        <ele>141.06599426269</ele>
        <time>2009-10-18T09:54:35Z</time>
      </trkpt>
      <trkpt lat="44.98049" lon="4.90128">
        <ele>141.06100463867</ele>
        <time>2009-10-18T09:54:36Z</time>
      </trkpt>
      <trkpt lat="44.98109" lon="4.90134">
        <ele>142.75999450684</ele>
        <time>2009-10-18T09:54:44Z</time>
      </trkpt>
      <trkpt lat="44.9813" lon="4.90138">
        <ele>141.45399475098</ele>
        <time>2009-10-18T09:54:47Z</time>
      </trkpt>
      <trkpt lat="44.98182" lon="4.90149">
        <ele>141.65699768066</ele>
        <time>2009-10-18T09:54:54Z</time>
      </trkpt>
      <trkpt lat="44.9821" lon="4.9016">
        <ele>142.60400390625</ele>
        <time>2009-10-18T09:54:58Z</time>
      </trkpt>
      <trkpt lat="44.9823" lon="4.90168">
        <ele>141.74600219727</ele>
        <time>2009-10-18T09:55:01Z</time>
      </trkpt>
      <trkpt lat="44.98249" lon="4.90161">
        <ele>141.89999389648</ele>
        <time>2009-10-18T09:55:04Z</time>
      </trkpt>
      <trkpt lat="44.98259" lon="4.9013">
        <ele>142.95399475098</ele>
        <time>2009-10-18T09:55:07Z</time>
      </trkpt>
      <trkpt lat="44.98279" lon="4.90054">
        <ele>141.68299865723</ele>
        <time>2009-10-18T09:55:14Z</time>
      </trkpt>
      <trkpt lat="44.98292" lon="4.90027">
        <ele>142.07899475098</ele>
        <time>2009-10-18T09:55:17Z</time>
      </trkpt>
      <trkpt lat="44.98317" lon="4.90008">
        <ele>140.29499816894</ele>
        <time>2009-10-18T09:55:21Z</time>
      </trkpt>
      <trkpt lat="44.98336" lon="4.90019">
        <ele>139.69099426269</ele>
        <time>2009-10-18T09:55:24Z</time>
      </trkpt>
      <trkpt lat="44.98389" lon="4.90083">
        <ele>140.59399414062</ele>
        <time>2009-10-18T09:55:33Z</time>
      </trkpt>
      <trkpt lat="44.98433" lon="4.90146">
        <ele>140.7799987793</ele>
        <time>2009-10-18T09:55:41Z</time>
      </trkpt>
      <trkpt lat="44.98454" lon="4.90178">
        <ele>139.27299499512</ele>
        <time>2009-10-18T09:55:45Z</time>
      </trkpt>
      <trkpt lat="44.98483" lon="4.90223">
        <ele>139.93899536133</ele>
        <time>2009-10-18T09:55:51Z</time>
      </trkpt>
      <trkpt lat="44.98521" lon="4.9028">
        <ele>141.5</ele>
        <time>2009-10-18T09:55:59Z</time>
      </trkpt>
      <trkpt lat="44.98571" lon="4.90354">
        <ele>142</ele>
        <time>2009-10-18T09:56:09Z</time>
      </trkpt>
      <trkpt lat="44.98608" lon="4.90406">
        <ele>142.41799926758</ele>
        <time>2009-10-18T09:56:16Z</time>
      </trkpt>
      <trkpt lat="44.98646" lon="4.90453">
        <ele>142.54800415039</ele>
        <time>2009-10-18T09:56:23Z</time>
      </trkpt>
      <trkpt lat="44.98701" lon="4.90521">
        <ele>141.24899291992</ele>
        <time>2009-10-18T09:56:34Z</time>
      </trkpt>
      <trkpt lat="44.98753" lon="4.90585">
        <ele>142.47799682617</ele>
        <time>2009-10-18T09:56:44Z</time>
      </trkpt>
      <trkpt lat="44.98781" lon="4.90618">
        <ele>144.44200134277</ele>
        <time>2009-10-18T09:56:49Z</time>
      </trkpt>
      <trkpt lat="44.98816" lon="4.90661">
        <ele>142.94400024414</ele>
        <time>2009-10-18T09:56:56Z</time>
      </trkpt>
      <trkpt lat="44.98845" lon="4.90699">
        <ele>142.15699768066</ele>
        <time>2009-10-18T09:57:02Z</time>
      </trkpt>
      <trkpt lat="44.98878" lon="4.90741">
        <ele>141.64500427246</ele>
        <time>2009-10-18T09:57:09Z</time>
      </trkpt>
      <trkpt lat="44.98914" lon="4.90787">
        <ele>142.51100158691</ele>
        <time>2009-10-18T09:57:16Z</time>
      </trkpt>
      <trkpt lat="44.98965" lon="4.90858">
        <ele>142.38499450684</ele>
        <time>2009-10-18T09:57:26Z</time>
      </trkpt>
      <trkpt lat="44.99003" lon="4.9091">
        <ele>141.97399902344</ele>
        <time>2009-10-18T09:57:33Z</time>
      </trkpt>
      <trkpt lat="44.99043" lon="4.90966">
        <ele>141.68400573731</ele>
        <time>2009-10-18T09:57:41Z</time>
      </trkpt>
      <trkpt lat="44.99083" lon="4.91017">
        <ele>142.82000732422</ele>
        <time>2009-10-18T09:57:49Z</time>
      </trkpt>
      <trkpt lat="44.9912" lon="4.91062">
        <ele>144.24099731445</ele>
        <time>2009-10-18T09:57:56Z</time>
      </trkpt>
      <trkpt lat="44.99168" lon="4.91117">
        <ele>144.80200195312</ele>
        <time>2009-10-18T09:58:05Z</time>
      </trkpt>
      <trkpt lat="44.99178" lon="4.91146">
        <ele>144.22399902344</ele>
        <time>2009-10-18T09:58:09Z</time>
      </trkpt>
      <trkpt lat="44.9918" lon="4.91166">
        <ele>145.66999816894</ele>
        <time>2009-10-18T09:58:12Z</time>
      </trkpt>
      <trkpt lat="44.99185" lon="4.91193">
        <ele>147.30999755859</ele>
        <time>2009-10-18T09:58:18Z</time>
      </trkpt>
      <trkpt lat="44.99192" lon="4.91233">
        <ele>148.91799926758</ele>
        <time>2009-10-18T09:58:26Z</time>
      </trkpt>
      <trkpt lat="44.99201" lon="4.91273">
        <ele>150.66700744629</ele>
        <time>2009-10-18T09:58:34Z</time>
      </trkpt>
      <trkpt lat="44.99203" lon="4.91308">
        <ele>152.81399536133</ele>
        <time>2009-10-18T09:58:41Z</time>
      </trkpt>
      <trkpt lat="44.99199" lon="4.91347">
        <ele>156.46600341797</ele>
        <time>2009-10-18T09:58:48Z</time>
      </trkpt>
      <trkpt lat="44.99192" lon="4.91391">
        <ele>158.57899475098</ele>
        <time>2009-10-18T09:58:56Z</time>
      </trkpt>
      <trkpt lat="44.99186" lon="4.91421">
        <ele>160.60499572754</ele>
        <time>2009-10-18T09:59:02Z</time>
      </trkpt>
      <trkpt lat="44.99177" lon="4.91458">
        <ele>162.45700073242</ele>
        <time>2009-10-18T09:59:10Z</time>
      </trkpt>
      <trkpt lat="44.99168" lon="4.91489">
        <ele>163.93499755859</ele>
        <time>2009-10-18T09:59:17Z</time>
      </trkpt>
      <trkpt lat="44.99159" lon="4.91525">
        <ele>166.14599609375</ele>
        <time>2009-10-18T09:59:25Z</time>
      </trkpt>
      <trkpt lat="44.99157" lon="4.91557">
        <ele>167.73300170898</ele>
        <time>2009-10-18T09:59:32Z</time>
      </trkpt>
      <trkpt lat="44.9916" lon="4.91588">
        <ele>169.28999328613</ele>
        <time>2009-10-18T09:59:39Z</time>
      </trkpt>
      <trkpt lat="44.99164" lon="4.91611">
        <ele>170.86199951172</ele>
        <time>2009-10-18T09:59:44Z</time>
      </trkpt>
      <trkpt lat="44.9917" lon="4.91652">
        <ele>173.02699279785</ele>
        <time>2009-10-18T09:59:52Z</time>
      </trkpt>
      <trkpt lat="44.99179" lon="4.91681">
        <ele>174.52299499512</ele>
        <time>2009-10-18T09:59:58Z</time>
      </trkpt>
      <trkpt lat="44.99196" lon="4.91724">
        <ele>175.92300415039</ele>
        <time>2009-10-18T10:00:07Z</time>
      </trkpt>
      <trkpt lat="44.9921" lon="4.9175">
        <ele>177.6549987793</ele>
        <time>2009-10-18T10:00:13Z</time>
      </trkpt>
      <trkpt lat="44.9922" lon="4.91777">
        <ele>179.35099792481</ele>
        <time>2009-10-18T10:00:19Z</time>
      </trkpt>
      <trkpt lat="44.99221" lon="4.91797">
        <ele>181.01300048828</ele>
        <time>2009-10-18T10:00:23Z</time>
      </trkpt>
      <trkpt lat="44.99216" lon="4.91815">
        <ele>182.6549987793</ele>
        <time>2009-10-18T10:00:27Z</time>
      </trkpt>
      <trkpt lat="44.99206" lon="4.91832">
        <ele>185.0359954834</ele>
        <time>2009-10-18T10:00:32Z</time>
      </trkpt>
      <trkpt lat="44.99193" lon="4.91855">
        <ele>187.32000732422</ele>
        <time>2009-10-18T10:00:39Z</time>
      </trkpt>
      <trkpt lat="44.99192" lon="4.91859">
        <ele>187.55000305176</ele>
        <time>2009-10-18T10:00:40Z</time>
      </trkpt>
      <trkpt lat="44.99179" lon="4.91893">
        <ele>188.74800109863</ele>
        <time>2009-10-18T10:00:48Z</time>
      </trkpt>
      <trkpt lat="44.99171" lon="4.91921">
        <ele>190.83200073242</ele>
        <time>2009-10-18T10:00:53Z</time>
      </trkpt>
      <trkpt lat="44.99159" lon="4.91959">
        <ele>191.82000732422</ele>
        <time>2009-10-18T10:00:59Z</time>
      </trkpt>
      <trkpt lat="44.99145" lon="4.92006">
        <ele>192.51600646973</ele>
        <time>2009-10-18T10:01:06Z</time>
      </trkpt>
      <trkpt lat="44.99148" lon="4.9203">
        <ele>193.85699462891</ele>
        <time>2009-10-18T10:01:10Z</time>
      </trkpt>
      <trkpt lat="44.9917" lon="4.92046">
        <ele>194.00999450684</ele>
        <time>2009-10-18T10:01:14Z</time>
      </trkpt>
      <trkpt lat="44.99212" lon="4.92082">
        <ele>193.97900390625</ele>
        <time>2009-10-18T10:01:21Z</time>
      </trkpt>
      <trkpt lat="44.99249" lon="4.92113">
        <ele>195.26800537109</ele>
        <time>2009-10-18T10:01:27Z</time>
      </trkpt>
      <trkpt lat="44.99301" lon="4.92157">
        <ele>193.11099243164</ele>
        <time>2009-10-18T10:01:35Z</time>
      </trkpt>
      <trkpt lat="44.99349" lon="4.92198">
        <ele>192.81599426269</ele>
        <time>2009-10-18T10:01:42Z</time>
      </trkpt>
      <trkpt lat="44.9938" lon="4.92225">
        <ele>194.70100402832</ele>
        <time>2009-10-18T10:01:47Z</time>
      </trkpt>
      <trkpt lat="44.99426" lon="4.92263">
        <ele>195.37199401856</ele>
        <time>2009-10-18T10:01:55Z</time>
      </trkpt>
      <trkpt lat="44.99436" lon="4.92284">
        <ele>193.79299926758</ele>
        <time>2009-10-18T10:01:58Z</time>
      </trkpt>
      <trkpt lat="44.99435" lon="4.92303">
        <ele>194.17199707031</ele>
        <time>2009-10-18T10:02:00Z</time>
      </trkpt>
      <trkpt lat="44.99409" lon="4.92415">
        <ele>194.65199279785</ele>
        <time>2009-10-18T10:02:11Z</time>
      </trkpt>
      <trkpt lat="44.99392" lon="4.92491">
        <ele>193.02699279785</ele>
        <time>2009-10-18T10:02:18Z</time>
      </trkpt>
      <trkpt lat="44.99373" lon="4.92581">
        <ele>194.67500305176</ele>
        <time>2009-10-18T10:02:26Z</time>
      </trkpt>
      <trkpt lat="44.99354" lon="4.92664">
        <ele>195.33200073242</ele>
        <time>2009-10-18T10:02:33Z</time>
      </trkpt>
      <trkpt lat="44.99339" lon="4.92732">
        <ele>196.36799621582</ele>
        <time>2009-10-18T10:02:39Z</time>
      </trkpt>
      <trkpt lat="44.99317" lon="4.92835">
        <ele>194.50999450684</ele>
        <time>2009-10-18T10:02:48Z</time>
      </trkpt>
      <trkpt lat="44.99292" lon="4.92928">
        <ele>194.66600036621</ele>
        <time>2009-10-18T10:02:56Z</time>
      </trkpt>
      <trkpt lat="44.99261" lon="4.93043">
        <ele>195.58000183106</ele>
        <time>2009-10-18T10:03:06Z</time>
      </trkpt>
      <trkpt lat="44.99238" lon="4.93136">
        <ele>194.42900085449</ele>
        <time>2009-10-18T10:03:14Z</time>
      </trkpt>
      <trkpt lat="44.99232" lon="4.93174">
        <ele>195.06700134277</ele>
        <time>2009-10-18T10:03:17Z</time>
      </trkpt>
      <trkpt lat="44.99234" lon="4.93223">
        <ele>195.62600708008</ele>
        <time>2009-10-18T10:03:21Z</time>
      </trkpt>
      <trkpt lat="44.99227" lon="4.93249">
        <ele>195.08999633789</ele>
        <time>2009-10-18T10:03:24Z</time>
      </trkpt>
      <trkpt lat="44.9921" lon="4.93249">
        <ele>195.06500244141</ele>
        <time>2009-10-18T10:03:26Z</time>
      </trkpt>
      <trkpt lat="44.99152" lon="4.93242">
        <ele>194.41999816894</ele>
        <time>2009-10-18T10:03:32Z</time>
      </trkpt>
      <trkpt lat="44.99078" lon="4.93238">
        <ele>194.83500671387</ele>
        <time>2009-10-18T10:03:39Z</time>
      </trkpt>
      <trkpt lat="44.99004" lon="4.93233">
        <ele>194.5359954834</ele>
        <time>2009-10-18T10:03:46Z</time>
      </trkpt>
      <trkpt lat="44.98927" lon="4.93228">
        <ele>195.50799560547</ele>
        <time>2009-10-18T10:03:53Z</time>
      </trkpt>
      <trkpt lat="44.98855" lon="4.93219">
        <ele>195.66499328613</ele>
        <time>2009-10-18T10:04:00Z</time>
      </trkpt>
      <trkpt lat="44.9879" lon="4.93189">
        <ele>195.32600402832</ele>
        <time>2009-10-18T10:04:07Z</time>
      </trkpt>
      <trkpt lat="44.98723" lon="4.93157">
        <ele>195.51300048828</ele>
        <time>2009-10-18T10:04:14Z</time>
      </trkpt>
      <trkpt lat="44.9865" lon="4.93123">
        <ele>194.83700561523</ele>
        <time>2009-10-18T10:04:21Z</time>
      </trkpt>
      <trkpt lat="44.98573" lon="4.93088">
        <ele>194.81399536133</ele>
        <time>2009-10-18T10:04:28Z</time>
      </trkpt>
      <trkpt lat="44.98495" lon="4.93043">
        <ele>194.39599609375</ele>
        <time>2009-10-18T10:04:35Z</time>
      </trkpt>
      <trkpt lat="44.98463" lon="4.93022">
        <ele>196.04499816894</ele>
        <time>2009-10-18T10:04:38Z</time>
      </trkpt>
      <trkpt lat="44.98429" lon="4.92982">
        <ele>195.53799438477</ele>
        <time>2009-10-18T10:04:42Z</time>
      </trkpt>
      <trkpt lat="44.98388" lon="4.92928">
        <ele>195.39199829102</ele>
        <time>2009-10-18T10:04:47Z</time>
      </trkpt>
      <trkpt lat="44.98358" lon="4.92882">
        <ele>194.0059967041</ele>
        <time>2009-10-18T10:04:51Z</time>
      </trkpt>
      <trkpt lat="44.98328" lon="4.92819">
        <ele>194.3690032959</ele>
        <time>2009-10-18T10:04:56Z</time>
      </trkpt>
      <trkpt lat="44.98297" lon="4.92739">
        <ele>193.5359954834</ele>
        <time>2009-10-18T10:05:02Z</time>
      </trkpt>
      <trkpt lat="44.98259" lon="4.92681">
        <ele>193.67999267578</ele>
        <time>2009-10-18T10:05:07Z</time>
      </trkpt>
      <trkpt lat="44.9819" lon="4.92592">
        <ele>193.09399414062</ele>
        <time>2009-10-18T10:05:15Z</time>
      </trkpt>
      <trkpt lat="44.98148" lon="4.92563">
        <ele>192.91900634766</ele>
        <time>2009-10-18T10:05:19Z</time>
      </trkpt>
      <trkpt lat="44.98092" lon="4.92531">
        <ele>192.84100341797</ele>
        <time>2009-10-18T10:05:24Z</time>
      </trkpt>
      <trkpt lat="44.98043" lon="4.92483">
        <ele>192.69700622559</ele>
        <time>2009-10-18T10:05:29Z</time>
      </trkpt>
      <trkpt lat="44.98033" lon="4.92473">
        <ele>192.7559967041</ele>
        <time>2009-10-18T10:05:30Z</time>
      </trkpt>
      <trkpt lat="44.97957" lon="4.92394">
        <ele>192.90600585938</ele>
        <time>2009-10-18T10:05:38Z</time>
      </trkpt>
      <trkpt lat="44.97918" lon="4.92355">
        <ele>193.26600646973</ele>
        <time>2009-10-18T10:05:42Z</time>
      </trkpt>
      <trkpt lat="44.97888" lon="4.92301">
        <ele>191.85499572754</ele>
        <time>2009-10-18T10:05:46Z</time>
      </trkpt>
      <trkpt lat="44.97842" lon="4.92164">
        <ele>191.61500549316</ele>
        <time>2009-10-18T10:05:55Z</time>
      </trkpt>
      <trkpt lat="44.97807" lon="4.92059">
        <ele>191.52200317383</ele>
        <time>2009-10-18T10:06:02Z</time>
      </trkpt>
      <trkpt lat="44.97766" lon="4.91938">
        <ele>190.97300720215</ele>
        <time>2009-10-18T10:06:10Z</time>
      </trkpt>
      <trkpt lat="44.97738" lon="4.91884">
        <ele>189.76100158691</ele>
        <time>2009-10-18T10:06:14Z</time>
      </trkpt>
      <trkpt lat="44.97718" lon="4.9184">
        <ele>188.27299499512</ele>
        <time>2009-10-18T10:06:17Z</time>
      </trkpt>
      <trkpt lat="44.97697" lon="4.91794">
        <ele>183.53500366211</ele>
        <time>2009-10-18T10:06:20Z</time>
      </trkpt>
      <trkpt lat="44.97656" lon="4.91747">
        <ele>180.45100402832</ele>
        <time>2009-10-18T10:06:24Z</time>
      </trkpt>
      <trkpt lat="44.97643" lon="4.91739">
        <ele>178.95500183106</ele>
        <time>2009-10-18T10:06:25Z</time>
      </trkpt>
      <trkpt lat="44.97616" lon="4.91726">
        <ele>176.47300720215</ele>
        <time>2009-10-18T10:06:27Z</time>
      </trkpt>
      <trkpt lat="44.97572" lon="4.91706">
        <ele>174.75399780273</ele>
        <time>2009-10-18T10:06:30Z</time>
      </trkpt>
      <trkpt lat="44.97499" lon="4.91678">
        <ele>169.75100708008</ele>
        <time>2009-10-18T10:06:35Z</time>
      </trkpt>
      <trkpt lat="44.97432" lon="4.9165">
        <ele>165.99200439453</ele>
        <time>2009-10-18T10:06:40Z</time>
      </trkpt>
      <trkpt lat="44.97418" lon="4.91644">
        <ele>166.11000061035</ele>
        <time>2009-10-18T10:06:41Z</time>
      </trkpt>
      <trkpt lat="44.97354" lon="4.9161">
        <ele>164.12800598144</ele>
        <time>2009-10-18T10:06:46Z</time>
      </trkpt>
      <trkpt lat="44.9731" lon="4.91565">
        <ele>162.78700256348</ele>
        <time>2009-10-18T10:06:50Z</time>
      </trkpt>
      <trkpt lat="44.973" lon="4.91552">
        <ele>161.89999389648</ele>
        <time>2009-10-18T10:06:51Z</time>
      </trkpt>
      <trkpt lat="44.97264" lon="4.91528">
        <ele>160.55200195312</ele>
        <time>2009-10-18T10:06:54Z</time>
      </trkpt>
      <trkpt lat="44.97224" lon="4.91516">
        <ele>159.08700561523</ele>
        <time>2009-10-18T10:06:57Z</time>
      </trkpt>
      <trkpt lat="44.97131" lon="4.91492">
        <ele>157.27900695801</ele>
        <time>2009-10-18T10:07:04Z</time>
      </trkpt>
      <trkpt lat="44.97093" lon="4.91494">
        <ele>155.77200317383</ele>
        <time>2009-10-18T10:07:07Z</time>
      </trkpt>
      <trkpt lat="44.97046" lon="4.91487">
        <ele>158.06900024414</ele>
        <time>2009-10-18T10:07:11Z</time>
      </trkpt>
      <trkpt lat="44.97025" lon="4.91485">
        <ele>159.37800598144</ele>
        <time>2009-10-18T10:07:13Z</time>
      </trkpt>
      <trkpt lat="44.96978" lon="4.91492">
        <ele>161.54899597168</ele>
        <time>2009-10-18T10:07:18Z</time>
      </trkpt>
      <trkpt lat="44.9696" lon="4.91497">
        <ele>162.93099975586</ele>
        <time>2009-10-18T10:07:20Z</time>
      </trkpt>
      <trkpt lat="44.96912" lon="4.91508">
        <ele>161.70399475098</ele>
        <time>2009-10-18T10:07:25Z</time>
      </trkpt>
      <trkpt lat="44.96856" lon="4.91514">
        <ele>159.93899536133</ele>
        <time>2009-10-18T10:07:30Z</time>
      </trkpt>
      <trkpt lat="44.96785" lon="4.9153">
        <ele>158.41900634766</ele>
        <time>2009-10-18T10:07:36Z</time>
      </trkpt>
      <trkpt lat="44.96721" lon="4.9155">
        <ele>157.17599487305</ele>
        <time>2009-10-18T10:07:42Z</time>
      </trkpt>
      <trkpt lat="44.96656" lon="4.91571">
        <ele>156.75799560547</ele>
        <time>2009-10-18T10:07:48Z</time>
      </trkpt>
      <trkpt lat="44.96579" lon="4.91605">
        <ele>157.62699890137</ele>
        <time>2009-10-18T10:07:55Z</time>
      </trkpt>
      <trkpt lat="44.96534" lon="4.91609">
        <ele>159.35899353027</ele>
        <time>2009-10-18T10:07:59Z</time>
      </trkpt>
      <trkpt lat="44.96513" lon="4.91603">
        <ele>160.47300720215</ele>
        <time>2009-10-18T10:08:01Z</time>
      </trkpt>
      <trkpt lat="44.9643" lon="4.91566">
        <ele>159.44299316406</ele>
        <time>2009-10-18T10:08:09Z</time>
      </trkpt>
      <trkpt lat="44.96408" lon="4.91553">
        <ele>158.64700317383</ele>
        <time>2009-10-18T10:08:11Z</time>
      </trkpt>
      <trkpt lat="44.96363" lon="4.91534">
        <ele>157.78999328613</ele>
        <time>2009-10-18T10:08:15Z</time>
      </trkpt>
      <trkpt lat="44.96296" lon="4.91509">
        <ele>157.62899780273</ele>
        <time>2009-10-18T10:08:21Z</time>
      </trkpt>
      <trkpt lat="44.96267" lon="4.91484">
        <ele>159.33200073242</ele>
        <time>2009-10-18T10:08:24Z</time>
      </trkpt>
      <trkpt lat="44.96245" lon="4.91448">
        <ele>157.19599914551</ele>
        <time>2009-10-18T10:08:27Z</time>
      </trkpt>
      <trkpt lat="44.96236" lon="4.91438">
        <ele>157.03900146484</ele>
        <time>2009-10-18T10:08:28Z</time>
      </trkpt>
      <trkpt lat="44.96218" lon="4.91421">
        <ele>157.46200561523</ele>
        <time>2009-10-18T10:08:30Z</time>
      </trkpt>
      <trkpt lat="44.96188" lon="4.91374">
        <ele>157.10800170898</ele>
        <time>2009-10-18T10:08:34Z</time>
      </trkpt>
      <trkpt lat="44.96159" lon="4.91307">
        <ele>156.78799438477</ele>
        <time>2009-10-18T10:08:39Z</time>
      </trkpt>
      <trkpt lat="44.96125" lon="4.91224">
        <ele>155.42399597168</ele>
        <time>2009-10-18T10:08:45Z</time>
      </trkpt>
      <trkpt lat="44.96091" lon="4.91158">
        <ele>155.50399780273</ele>
        <time>2009-10-18T10:08:50Z</time>
      </trkpt>
      <trkpt lat="44.96048" lon="4.91066">
        <ele>155.97700500488</ele>
        <time>2009-10-18T10:08:57Z</time>
      </trkpt>
      <trkpt lat="44.96041" lon="4.91053">
        <ele>155.83200073242</ele>
        <time>2009-10-18T10:08:58Z</time>
      </trkpt>
      <trkpt lat="44.96037" lon="4.91011">
        <ele>157.35200500488</ele>
        <time>2009-10-18T10:09:01Z</time>
      </trkpt>
      <trkpt lat="44.96048" lon="4.90986">
        <ele>156.78500366211</ele>
        <time>2009-10-18T10:09:03Z</time>
      </trkpt>
      <trkpt lat="44.96064" lon="4.90969">
        <ele>155.70500183106</ele>
        <time>2009-10-18T10:09:05Z</time>
      </trkpt>
      <trkpt lat="44.96111" lon="4.90958">
        <ele>157.36099243164</ele>
        <time>2009-10-18T10:09:10Z</time>
      </trkpt>
      <trkpt lat="44.9612" lon="4.90959">
        <ele>157.11999511719</ele>
        <time>2009-10-18T10:09:11Z</time>
      </trkpt>
      <trkpt lat="44.96137" lon="4.90964">
        <ele>155.92799377441</ele>
        <time>2009-10-18T10:09:13Z</time>
      </trkpt>
      <trkpt lat="44.96199" lon="4.90978">
        <ele>155.7619934082</ele>
        <time>2009-10-18T10:09:21Z</time>
      </trkpt>
      <trkpt lat="44.96262" lon="4.90992">
        <ele>158.81500244141</ele>
        <time>2009-10-18T10:09:30Z</time>
      </trkpt>
      <trkpt lat="44.96311" lon="4.91003">
        <ele>158.88900756836</ele>
        <time>2009-10-18T10:09:38Z</time>
      </trkpt>
      <trkpt lat="44.96354" lon="4.91014">
        <ele>158.3809967041</ele>
        <time>2009-10-18T10:09:45Z</time>
      </trkpt>
      <trkpt lat="44.96396" lon="4.91027">
        <ele>158.47599792481</ele>
        <time>2009-10-18T10:09:52Z</time>
      </trkpt>
      <trkpt lat="44.9642" lon="4.91039">
        <ele>159.07099914551</ele>
        <time>2009-10-18T10:09:56Z</time>
      </trkpt>
      <trkpt lat="44.96442" lon="4.91058">
        <ele>160.00399780273</ele>
        <time>2009-10-18T10:10:00Z</time>
      </trkpt>
      <trkpt lat="44.96466" lon="4.91063">
        <ele>160.18800354004</ele>
        <time>2009-10-18T10:10:04Z</time>
      </trkpt>
      <trkpt lat="44.96513" lon="4.91053">
        <ele>160.65800476074</ele>
        <time>2009-10-18T10:10:11Z</time>
      </trkpt>
      <trkpt lat="44.96528" lon="4.91052">
        <ele>159.05900573731</ele>
        <time>2009-10-18T10:10:13Z</time>
      </trkpt>
      <trkpt lat="44.96543" lon="4.91052">
        <ele>158.86700439453</ele>
        <time>2009-10-18T10:10:15Z</time>
      </trkpt>
      <trkpt lat="44.96572" lon="4.91063">
        <ele>158.82299804688</ele>
        <time>2009-10-18T10:10:19Z</time>
      </trkpt>
      <trkpt lat="44.96594" lon="4.91072">
        <ele>159.42799377441</ele>
        <time>2009-10-18T10:10:22Z</time>
      </trkpt>
      <trkpt lat="44.96609" lon="4.91066">
        <ele>158.53799438477</ele>
        <time>2009-10-18T10:10:24Z</time>
      </trkpt>
      <trkpt lat="44.96624" lon="4.91058">
        <ele>157.83299255371</ele>
        <time>2009-10-18T10:10:26Z</time>
      </trkpt>
      <trkpt lat="44.96666" lon="4.9105">
        <ele>158.26499938965</ele>
        <time>2009-10-18T10:10:31Z</time>
      </trkpt>
      <trkpt lat="44.96707" lon="4.91051">
        <ele>157.82000732422</ele>
        <time>2009-10-18T10:10:36Z</time>
      </trkpt>
      <trkpt lat="44.9675" lon="4.91053">
        <ele>157.57699584961</ele>
        <time>2009-10-18T10:10:42Z</time>
      </trkpt>
      <trkpt lat="44.96756" lon="4.91053">
        <ele>157.37899780273</ele>
        <time>2009-10-18T10:10:43Z</time>
      </trkpt>
      <trkpt lat="44.96808" lon="4.91053">
        <ele>158.16999816894</ele>
        <time>2009-10-18T10:10:51Z</time>
      </trkpt>
      <trkpt lat="44.96847" lon="4.91038">
        <ele>161.04899597168</ele>
        <time>2009-10-18T10:10:57Z</time>
      </trkpt>
      <trkpt lat="44.96853" lon="4.91035">
        <ele>160.9049987793</ele>
        <time>2009-10-18T10:10:58Z</time>
      </trkpt>
      <trkpt lat="44.96906" lon="4.9101">
        <ele>159.85099792481</ele>
        <time>2009-10-18T10:11:06Z</time>
      </trkpt>
      <trkpt lat="44.9695" lon="4.90987">
        <ele>159.60200500488</ele>
        <time>2009-10-18T10:11:12Z</time>
      </trkpt>
      <trkpt lat="44.97002" lon="4.9096">
        <ele>159.67100524902</ele>
        <time>2009-10-18T10:11:19Z</time>
      </trkpt>
      <trkpt lat="44.97033" lon="4.90946">
        <ele>160.2200012207</ele>
        <time>2009-10-18T10:11:23Z</time>
      </trkpt>
      <trkpt lat="44.97065" lon="4.90947">
        <ele>161.47399902344</ele>
        <time>2009-10-18T10:11:27Z</time>
      </trkpt>
      <trkpt lat="44.97078" lon="4.90957">
        <ele>160.40699768066</ele>
        <time>2009-10-18T10:11:29Z</time>
      </trkpt>
      <trkpt lat="44.9711" lon="4.90989">
        <ele>158.2140045166</ele>
        <time>2009-10-18T10:11:34Z</time>
      </trkpt>
      <trkpt lat="44.97142" lon="4.90999">
        <ele>159.47700500488</ele>
        <time>2009-10-18T10:11:38Z</time>
      </trkpt>
      <trkpt lat="44.97166" lon="4.90983">
        <ele>158</ele>
        <time>2009-10-18T10:11:41Z</time>
      </trkpt>
      <trkpt lat="44.97178" lon="4.90967">
        <ele>157.63800048828</ele>
        <time>2009-10-18T10:11:43Z</time>
      </trkpt>
      <trkpt lat="44.97228" lon="4.90884">
        <ele>157.35800170898</ele>
        <time>2009-10-18T10:11:52Z</time>
      </trkpt>
      <trkpt lat="44.97276" lon="4.90805">
        <ele>158.68600463867</ele>
        <time>2009-10-18T10:12:01Z</time>
      </trkpt>
      <trkpt lat="44.97309" lon="4.9074">
        <ele>156.29600524902</ele>
        <time>2009-10-18T10:12:08Z</time>
      </trkpt>
      <trkpt lat="44.97341" lon="4.90674">
        <ele>155.78700256348</ele>
        <time>2009-10-18T10:12:15Z</time>
      </trkpt>
      <trkpt lat="44.9737" lon="4.90614">
        <ele>154.58500671387</ele>
        <time>2009-10-18T10:12:21Z</time>
      </trkpt>
      <trkpt lat="44.97392" lon="4.90573">
        <ele>154.29800415039</ele>
        <time>2009-10-18T10:12:25Z</time>
      </trkpt>
      <trkpt lat="44.97429" lon="4.90539">
        <ele>153.52200317383</ele>
        <time>2009-10-18T10:12:30Z</time>
      </trkpt>
      <trkpt lat="44.9748" lon="4.90505">
        <ele>154.28900146484</ele>
        <time>2009-10-18T10:12:37Z</time>
      </trkpt>
      <trkpt lat="44.97544" lon="4.90462">
        <ele>151.9640045166</ele>
        <time>2009-10-18T10:12:45Z</time>
      </trkpt>
      <trkpt lat="44.97609" lon="4.90418">
        <ele>150.29899597168</ele>
        <time>2009-10-18T10:12:52Z</time>
      </trkpt>
      <trkpt lat="44.97665" lon="4.90374">
        <ele>147.74699401856</ele>
        <time>2009-10-18T10:12:58Z</time>
      </trkpt>
      <trkpt lat="44.9772" lon="4.90303">
        <ele>144.10299682617</ele>
        <time>2009-10-18T10:13:05Z</time>
      </trkpt>
      <trkpt lat="44.97757" lon="4.90255">
        <ele>143.3630065918</ele>
        <time>2009-10-18T10:13:10Z</time>
      </trkpt>
      <trkpt lat="44.97804" lon="4.90198">
        <ele>144.38299560547</ele>
        <time>2009-10-18T10:13:17Z</time>
      </trkpt>
      <trkpt lat="44.97852" lon="4.90141">
        <ele>144.04299926758</ele>
        <time>2009-10-18T10:13:25Z</time>
      </trkpt>
      <trkpt lat="44.97864" lon="4.90129">
        <ele>143.82299804688</ele>
        <time>2009-10-18T10:13:27Z</time>
      </trkpt>
      <trkpt lat="44.97897" lon="4.90117">
        <ele>142.63400268555</ele>
        <time>2009-10-18T10:13:32Z</time>
      </trkpt>
      <trkpt lat="44.97904" lon="4.90117">
        <ele>141.97700500488</ele>
        <time>2009-10-18T10:13:33Z</time>
      </trkpt>
      <trkpt lat="44.97956" lon="4.90122">
        <ele>140.98399353027</ele>
        <time>2009-10-18T10:13:41Z</time>
      </trkpt>
      <trkpt lat="44.97997" lon="4.90127">
        <ele>141.625</ele>
        <time>2009-10-18T10:13:47Z</time>
      </trkpt>
      <trkpt lat="44.98009" lon="4.90127">
        <ele>142.35699462891</ele>
        <time>2009-10-18T10:13:49Z</time>
      </trkpt>
      <trkpt lat="44.98053" lon="4.90131">
        <ele>140.95100402832</ele>
        <time>2009-10-18T10:13:56Z</time>
      </trkpt>
      <trkpt lat="44.9811" lon="4.90136">
        <ele>140.58500671387</ele>
        <time>2009-10-18T10:14:05Z</time>
      </trkpt>
      <trkpt lat="44.98157" lon="4.90146">
        <ele>140.75799560547</ele>
        <time>2009-10-18T10:14:12Z</time>
      </trkpt>
      <trkpt lat="44.98207" lon="4.90161">
        <ele>140.82699584961</ele>
        <time>2009-10-18T10:14:20Z</time>
      </trkpt>
      <trkpt lat="44.98231" lon="4.90171">
        <ele>140.26100158691</ele>
        <time>2009-10-18T10:14:24Z</time>
      </trkpt>
      <trkpt lat="44.98252" lon="4.90162">
        <ele>141.59199523926</ele>
        <time>2009-10-18T10:14:28Z</time>
      </trkpt>
      <trkpt lat="44.98255" lon="4.90155">
        <ele>141.34700012207</ele>
        <time>2009-10-18T10:14:29Z</time>
      </trkpt>
      <trkpt lat="44.98272" lon="4.9008">
        <ele>140.12199401856</ele>
        <time>2009-10-18T10:14:37Z</time>
      </trkpt>
      <trkpt lat="44.98273" lon="4.9007">
        <ele>140.97599792481</ele>
        <time>2009-10-18T10:14:38Z</time>
      </trkpt>
      <trkpt lat="44.98293" lon="4.90026">
        <ele>141.02699279785</ele>
        <time>2009-10-18T10:14:43Z</time>
      </trkpt>
      <trkpt lat="44.98317" lon="4.90013">
        <ele>139.04200744629</ele>
        <time>2009-10-18T10:14:47Z</time>
      </trkpt>
      <trkpt lat="44.98336" lon="4.90025">
        <ele>139.19799804688</ele>
        <time>2009-10-18T10:14:50Z</time>
      </trkpt>
      <trkpt lat="44.98373" lon="4.90069">
        <ele>139.57800292969</ele>
        <time>2009-10-18T10:14:57Z</time>
      </trkpt>
      <trkpt lat="44.98413" lon="4.90123">
        <ele>139.53399658203</ele>
        <time>2009-10-18T10:15:05Z</time>
      </trkpt>
      <trkpt lat="44.98444" lon="4.90169">
        <ele>138.98500061035</ele>
        <time>2009-10-18T10:15:11Z</time>
      </trkpt>
      <trkpt lat="44.98478" lon="4.90219">
        <ele>139.67599487305</ele>
        <time>2009-10-18T10:15:18Z</time>
      </trkpt>
      <trkpt lat="44.98518" lon="4.90277">
        <ele>141.85099792481</ele>
        <time>2009-10-18T10:15:27Z</time>
      </trkpt>
      <trkpt lat="44.98522" lon="4.90283">
        <ele>141.56700134277</ele>
        <time>2009-10-18T10:15:28Z</time>
      </trkpt>
      <trkpt lat="44.98545" lon="4.90318">
        <ele>141.07600402832</ele>
        <time>2009-10-18T10:15:33Z</time>
      </trkpt>
      <trkpt lat="44.9859" lon="4.90384">
        <ele>141.73300170898</ele>
        <time>2009-10-18T10:15:42Z</time>
      </trkpt>
      <trkpt lat="44.98614" lon="4.90416">
        <ele>141.60200500488</ele>
        <time>2009-10-18T10:15:47Z</time>
      </trkpt>
      <trkpt lat="44.98645" lon="4.90455">
        <ele>142.03199768066</ele>
        <time>2009-10-18T10:15:53Z</time>
      </trkpt>
      <trkpt lat="44.98685" lon="4.90504">
        <ele>140.98599243164</ele>
        <time>2009-10-18T10:16:01Z</time>
      </trkpt>
      <trkpt lat="44.98738" lon="4.90568">
        <ele>142.12699890137</ele>
        <time>2009-10-18T10:16:12Z</time>
      </trkpt>
      <trkpt lat="44.98784" lon="4.90625">
        <ele>141.91499328613</ele>
        <time>2009-10-18T10:16:22Z</time>
      </trkpt>
      <trkpt lat="44.98802" lon="4.90648">
        <ele>146.10800170898</ele>
        <time>2009-10-18T10:16:26Z</time>
      </trkpt>
      <trkpt lat="44.98819" lon="4.9067">
        <ele>141.53799438477</ele>
        <time>2009-10-18T10:16:30Z</time>
      </trkpt>
      <trkpt lat="44.9886" lon="4.9072">
        <ele>140.24499511719</ele>
        <time>2009-10-18T10:16:39Z</time>
      </trkpt>
      <trkpt lat="44.98892" lon="4.90761">
        <ele>141.78999328613</ele>
        <time>2009-10-18T10:16:46Z</time>
      </trkpt>
      <trkpt lat="44.9893" lon="4.90812">
        <ele>143.49200439453</ele>
        <time>2009-10-18T10:16:54Z</time>
      </trkpt>
      <trkpt lat="44.98935" lon="4.90818">
        <ele>143.71000671387</ele>
        <time>2009-10-18T10:16:55Z</time>
      </trkpt>
      <trkpt lat="44.98968" lon="4.90863">
        <ele>141.54899597168</ele>
        <time>2009-10-18T10:17:02Z</time>
      </trkpt>
      <trkpt lat="44.99009" lon="4.90922">
        <ele>140.72200012207</ele>
        <time>2009-10-18T10:17:11Z</time>
      </trkpt>
      <trkpt lat="44.99054" lon="4.90983">
        <ele>140.85200500488</ele>
        <time>2009-10-18T10:17:21Z</time>
      </trkpt>
      <trkpt lat="44.9909" lon="4.91028">
        <ele>142.29299926758</ele>
        <time>2009-10-18T10:17:29Z</time>
      </trkpt>
      <trkpt lat="44.99124" lon="4.91069">
        <ele>142.66200256348</ele>
        <time>2009-10-18T10:17:36Z</time>
      </trkpt>
      <trkpt lat="44.99167" lon="4.91118">
        <ele>143.44700622559</ele>
        <time>2009-10-18T10:17:45Z</time>
      </trkpt>
      <trkpt lat="44.99176" lon="4.91144">
        <ele>143.38999938965</ele>
        <time>2009-10-18T10:17:49Z</time>
      </trkpt>
      <trkpt lat="44.99176" lon="4.91156">
        <ele>144.53799438477</ele>
        <time>2009-10-18T10:17:51Z</time>
      </trkpt>
      <trkpt lat="44.99184" lon="4.91198">
        <ele>146.64799499512</ele>
        <time>2009-10-18T10:17:59Z</time>
      </trkpt>
      <trkpt lat="44.9919" lon="4.91229">
        <ele>147.80499267578</ele>
        <time>2009-10-18T10:18:05Z</time>
      </trkpt>
      <trkpt lat="44.99198" lon="4.91263">
        <ele>149.67799377441</ele>
        <time>2009-10-18T10:18:12Z</time>
      </trkpt>
      <trkpt lat="44.99201" lon="4.91288">
        <ele>151.47300720215</ele>
        <time>2009-10-18T10:18:17Z</time>
      </trkpt>
      <trkpt lat="44.99202" lon="4.91321">
        <ele>152.86599731445</ele>
        <time>2009-10-18T10:18:24Z</time>
      </trkpt>
      <trkpt lat="44.99196" lon="4.91359">
        <ele>155.67399597168</ele>
        <time>2009-10-18T10:18:32Z</time>
      </trkpt>
      <trkpt lat="44.99189" lon="4.91398">
        <ele>157.80299377441</ele>
        <time>2009-10-18T10:18:40Z</time>
      </trkpt>
      <trkpt lat="44.99186" lon="4.91412">
        <ele>158.4700012207</ele>
        <time>2009-10-18T10:18:43Z</time>
      </trkpt>
      <trkpt lat="44.99181" lon="4.91431">
        <ele>159.93099975586</ele>
        <time>2009-10-18T10:18:47Z</time>
      </trkpt>
      <trkpt lat="44.99177" lon="4.91445">
        <ele>161.06300354004</ele>
        <time>2009-10-18T10:18:50Z</time>
      </trkpt>
      <trkpt lat="44.99167" lon="4.91484">
        <ele>162.60299682617</ele>
        <time>2009-10-18T10:18:58Z</time>
      </trkpt>
      <trkpt lat="44.99158" lon="4.9152">
        <ele>164.90699768066</ele>
        <time>2009-10-18T10:19:05Z</time>
      </trkpt>
      <trkpt lat="44.99155" lon="4.91556">
        <ele>166.41200256348</ele>
        <time>2009-10-18T10:19:12Z</time>
      </trkpt>
      <trkpt lat="44.99159" lon="4.91598">
        <ele>168.55299377441</ele>
        <time>2009-10-18T10:19:21Z</time>
      </trkpt>
      <trkpt lat="44.99163" lon="4.91624">
        <ele>169.73500061035</ele>
        <time>2009-10-18T10:19:27Z</time>
      </trkpt>
      <trkpt lat="44.99168" lon="4.91651">
        <ele>171.23100280762</ele>
        <time>2009-10-18T10:19:33Z</time>
      </trkpt>
      <trkpt lat="44.99179" lon="4.91682">
        <ele>173.79299926758</ele>
        <time>2009-10-18T10:19:40Z</time>
      </trkpt>
      <trkpt lat="44.99191" lon="4.91712">
        <ele>174.50399780273</ele>
        <time>2009-10-18T10:19:47Z</time>
      </trkpt>
      <trkpt lat="44.992" lon="4.91733">
        <ele>175.46499633789</ele>
        <time>2009-10-18T10:19:52Z</time>
      </trkpt>
      <trkpt lat="44.99213" lon="4.91755">
        <ele>176.46899414062</ele>
        <time>2009-10-18T10:19:58Z</time>
      </trkpt>
      <trkpt lat="44.99221" lon="4.9178">
        <ele>178.41499328613</ele>
        <time>2009-10-18T10:20:04Z</time>
      </trkpt>
      <trkpt lat="44.99218" lon="4.91803">
        <ele>180.62699890137</ele>
        <time>2009-10-18T10:20:10Z</time>
      </trkpt>
      <trkpt lat="44.9921" lon="4.91823">
        <ele>181.70899963379</ele>
        <time>2009-10-18T10:20:16Z</time>
      </trkpt>
      <trkpt lat="44.99199" lon="4.91845">
        <ele>183.70700073242</ele>
        <time>2009-10-18T10:20:21Z</time>
      </trkpt>
      <trkpt lat="44.9919" lon="4.91868">
        <ele>186.12899780273</ele>
        <time>2009-10-18T10:20:25Z</time>
      </trkpt>
      <trkpt lat="44.99173" lon="4.91921">
        <ele>190.00199890137</ele>
        <time>2009-10-18T10:20:35Z</time>
      </trkpt>
      <trkpt lat="44.99171" lon="4.91927">
        <ele>190.07200622559</ele>
        <time>2009-10-18T10:20:36Z</time>
      </trkpt>
      <trkpt lat="44.99157" lon="4.9197">
        <ele>190.75399780273</ele>
        <time>2009-10-18T10:20:43Z</time>
      </trkpt>
      <trkpt lat="44.99145" lon="4.92011">
        <ele>191.30299377441</ele>
        <time>2009-10-18T10:20:49Z</time>
      </trkpt>
      <trkpt lat="44.99149" lon="4.92036">
        <ele>193.32099914551</ele>
        <time>2009-10-18T10:20:53Z</time>
      </trkpt>
      <trkpt lat="44.9919" lon="4.92069">
        <ele>192.60699462891</ele>
        <time>2009-10-18T10:21:00Z</time>
      </trkpt>
      <trkpt lat="44.99225" lon="4.92098">
        <ele>192.96099853516</ele>
        <time>2009-10-18T10:21:06Z</time>
      </trkpt>
      <trkpt lat="44.99266" lon="4.92132">
        <ele>192.47099304199</ele>
        <time>2009-10-18T10:21:13Z</time>
      </trkpt>
      <trkpt lat="44.99325" lon="4.92181">
        <ele>191.25999450684</ele>
        <time>2009-10-18T10:21:22Z</time>
      </trkpt>
      <trkpt lat="44.99369" lon="4.92218">
        <ele>192.26600646973</ele>
        <time>2009-10-18T10:21:29Z</time>
      </trkpt>
      <trkpt lat="44.99409" lon="4.92252">
        <ele>193.26400756836</ele>
        <time>2009-10-18T10:21:36Z</time>
      </trkpt>
      <trkpt lat="44.9943" lon="4.92272">
        <ele>192.93899536133</ele>
        <time>2009-10-18T10:21:40Z</time>
      </trkpt>
      <trkpt lat="44.99436" lon="4.92296">
        <ele>192.4880065918</ele>
        <time>2009-10-18T10:21:43Z</time>
      </trkpt>
      <trkpt lat="44.99435" lon="4.92305">
        <ele>193.33299255371</ele>
        <time>2009-10-18T10:21:44Z</time>
      </trkpt>
      <trkpt lat="44.99421" lon="4.92372">
        <ele>193.64100646973</ele>
        <time>2009-10-18T10:21:51Z</time>
      </trkpt>
      <trkpt lat="44.99405" lon="4.92446">
        <ele>193.50399780273</ele>
        <time>2009-10-18T10:21:58Z</time>
      </trkpt>
      <trkpt lat="44.99385" lon="4.9253">
        <ele>192.44500732422</ele>
        <time>2009-10-18T10:22:06Z</time>
      </trkpt>
      <trkpt lat="44.99367" lon="4.92607">
        <ele>193.44200134277</ele>
        <time>2009-10-18T10:22:13Z</time>
      </trkpt>
      <trkpt lat="44.99348" lon="4.92688">
        <ele>194.24299621582</ele>
        <time>2009-10-18T10:22:20Z</time>
      </trkpt>
      <trkpt lat="44.99331" lon="4.92771">
        <ele>194.13900756836</ele>
        <time>2009-10-18T10:22:27Z</time>
      </trkpt>
      <trkpt lat="44.99304" lon="4.92876">
        <ele>193.44799804688</ele>
        <time>2009-10-18T10:22:36Z</time>
      </trkpt>
      <trkpt lat="44.9928" lon="4.92967">
        <ele>193.56199645996</ele>
        <time>2009-10-18T10:22:44Z</time>
      </trkpt>
      <trkpt lat="44.99255" lon="4.93059">
        <ele>194.6549987793</ele>
        <time>2009-10-18T10:22:52Z</time>
      </trkpt>
      <trkpt lat="44.99234" lon="4.93142">
        <ele>194.52699279785</ele>
        <time>2009-10-18T10:22:59Z</time>
      </trkpt>
      <trkpt lat="44.99231" lon="4.93204">
        <ele>194.45500183106</ele>
        <time>2009-10-18T10:23:04Z</time>
      </trkpt>
      <trkpt lat="44.99232" lon="4.93216">
        <ele>194.57299804688</ele>
        <time>2009-10-18T10:23:05Z</time>
      </trkpt>
      <trkpt lat="44.99224" lon="4.9325">
        <ele>193.93699645996</ele>
        <time>2009-10-18T10:23:09Z</time>
      </trkpt>
      <trkpt lat="44.99206" lon="4.93248">
        <ele>193.96000671387</ele>
        <time>2009-10-18T10:23:11Z</time>
      </trkpt>
      <trkpt lat="44.99197" lon="4.93247">
        <ele>193.70500183106</ele>
        <time>2009-10-18T10:23:12Z</time>
      </trkpt>
      <trkpt lat="44.9911" lon="4.93241">
        <ele>193.9700012207</ele>
        <time>2009-10-18T10:23:21Z</time>
      </trkpt>
      <trkpt lat="44.99029" lon="4.93236">
        <ele>193.60000610352</ele>
        <time>2009-10-18T10:23:29Z</time>
      </trkpt>
      <trkpt lat="44.98944" lon="4.9323">
        <ele>194.52299499512</ele>
        <time>2009-10-18T10:23:37Z</time>
      </trkpt>
      <trkpt lat="44.98901" lon="4.93229">
        <ele>194.99499511719</ele>
        <time>2009-10-18T10:23:41Z</time>
      </trkpt>
      <trkpt lat="44.9888" lon="4.93228">
        <ele>194.77699279785</ele>
        <time>2009-10-18T10:23:43Z</time>
      </trkpt>
      <trkpt lat="44.98819" lon="4.93207">
        <ele>194.83999633789</ele>
        <time>2009-10-18T10:23:49Z</time>
      </trkpt>
      <trkpt lat="44.98751" lon="4.93173">
        <ele>194.40199279785</ele>
        <time>2009-10-18T10:23:56Z</time>
      </trkpt>
      <trkpt lat="44.98671" lon="4.93134">
        <ele>193.69000244141</ele>
        <time>2009-10-18T10:24:04Z</time>
      </trkpt>
      <trkpt lat="44.98576" lon="4.9309">
        <ele>193.82299804688</ele>
        <time>2009-10-18T10:24:13Z</time>
      </trkpt>
      <trkpt lat="44.98514" lon="4.93056">
        <ele>194.39199829102</ele>
        <time>2009-10-18T10:24:19Z</time>
      </trkpt>
      <trkpt lat="44.98454" lon="4.93018">
        <ele>193.52400207519</ele>
        <time>2009-10-18T10:24:25Z</time>
      </trkpt>
      <trkpt lat="44.98416" lon="4.92964">
        <ele>192.93299865723</ele>
        <time>2009-10-18T10:24:30Z</time>
      </trkpt>
      <trkpt lat="44.98375" lon="4.92914">
        <ele>192.07000732422</ele>
        <time>2009-10-18T10:24:35Z</time>
      </trkpt>
      <trkpt lat="44.98342" lon="4.92855">
        <ele>193.97099304199</ele>
        <time>2009-10-18T10:24:40Z</time>
      </trkpt>
      <trkpt lat="44.98322" lon="4.92803">
        <ele>193.45799255371</ele>
        <time>2009-10-18T10:24:44Z</time>
      </trkpt>
      <trkpt lat="44.98301" lon="4.92749">
        <ele>194.42900085449</ele>
        <time>2009-10-18T10:24:48Z</time>
      </trkpt>
      <trkpt lat="44.98266" lon="4.92693">
        <ele>194.58700561523</ele>
        <time>2009-10-18T10:24:53Z</time>
      </trkpt>
      <trkpt lat="44.98199" lon="4.92602">
        <ele>192.53300476074</ele>
        <time>2009-10-18T10:25:02Z</time>
      </trkpt>
      <trkpt lat="44.98191" lon="4.92592">
        <ele>192.26400756836</ele>
        <time>2009-10-18T10:25:03Z</time>
      </trkpt>
      <trkpt lat="44.98146" lon="4.92563">
        <ele>191.92999267578</ele>
        <time>2009-10-18T10:25:08Z</time>
      </trkpt>
      <trkpt lat="44.98098" lon="4.92536">
        <ele>191.94000244141</ele>
        <time>2009-10-18T10:25:13Z</time>
      </trkpt>
      <trkpt lat="44.98045" lon="4.92487">
        <ele>191.82800292969</ele>
        <time>2009-10-18T10:25:19Z</time>
      </trkpt>
      <trkpt lat="44.97977" lon="4.92414">
        <ele>192.01600646973</ele>
        <time>2009-10-18T10:25:27Z</time>
      </trkpt>
      <trkpt lat="44.97908" lon="4.92341">
        <ele>192.27099609375</ele>
        <time>2009-10-18T10:25:35Z</time>
      </trkpt>
      <trkpt lat="44.97881" lon="4.92277">
        <ele>192.09800720215</ele>
        <time>2009-10-18T10:25:40Z</time>
      </trkpt>
      <trkpt lat="44.97852" lon="4.92194">
        <ele>190.34100341797</ele>
        <time>2009-10-18T10:25:46Z</time>
      </trkpt>
      <trkpt lat="44.97812" lon="4.92078">
        <ele>190.0359954834</ele>
        <time>2009-10-18T10:25:54Z</time>
      </trkpt>
      <trkpt lat="44.97778" lon="4.91972">
        <ele>189.66799926758</ele>
        <time>2009-10-18T10:26:01Z</time>
      </trkpt>
      <trkpt lat="44.97749" lon="4.91902">
        <ele>189.04100036621</ele>
        <time>2009-10-18T10:26:06Z</time>
      </trkpt>
      <trkpt lat="44.97722" lon="4.91849">
        <ele>187.06700134277</ele>
        <time>2009-10-18T10:26:10Z</time>
      </trkpt>
      <trkpt lat="44.97697" lon="4.91789">
        <ele>182.75500488281</ele>
        <time>2009-10-18T10:26:14Z</time>
      </trkpt>
      <trkpt lat="44.97657" lon="4.91742">
        <ele>178.81199645996</ele>
        <time>2009-10-18T10:26:18Z</time>
      </trkpt>
      <trkpt lat="44.97629" lon="4.91731">
        <ele>176.44099426269</ele>
        <time>2009-10-18T10:26:20Z</time>
      </trkpt>
      <trkpt lat="44.97547" lon="4.91701">
        <ele>171.39300537109</ele>
        <time>2009-10-18T10:26:26Z</time>
      </trkpt>
      <trkpt lat="44.9752" lon="4.9169">
        <ele>168.95500183106</ele>
        <time>2009-10-18T10:26:28Z</time>
      </trkpt>
      <trkpt lat="44.97455" lon="4.91663">
        <ele>167.00199890137</ele>
        <time>2009-10-18T10:26:33Z</time>
      </trkpt>
      <trkpt lat="44.97394" lon="4.91637">
        <ele>166.10899353027</ele>
        <time>2009-10-18T10:26:38Z</time>
      </trkpt>
      <trkpt lat="44.97359" lon="4.91619">
        <ele>164.39700317383</ele>
        <time>2009-10-18T10:26:41Z</time>
      </trkpt>
      <trkpt lat="44.97337" lon="4.91602">
        <ele>163.25</ele>
        <time>2009-10-18T10:26:43Z</time>
      </trkpt>
      <trkpt lat="44.97298" lon="4.91554">
        <ele>161.40400695801</ele>
        <time>2009-10-18T10:26:47Z</time>
      </trkpt>
      <trkpt lat="44.9725" lon="4.91527">
        <ele>159.66999816894</ele>
        <time>2009-10-18T10:26:51Z</time>
      </trkpt>
      <trkpt lat="44.97152" lon="4.91496">
        <ele>155.80000305176</ele>
        <time>2009-10-18T10:26:59Z</time>
      </trkpt>
      <trkpt lat="44.9714" lon="4.91494">
        <ele>155.53999328613</ele>
        <time>2009-10-18T10:27:00Z</time>
      </trkpt>
      <trkpt lat="44.97092" lon="4.91495">
        <ele>155.08500671387</ele>
        <time>2009-10-18T10:27:04Z</time>
      </trkpt>
      <trkpt lat="44.97034" lon="4.91489">
        <ele>157.0950012207</ele>
        <time>2009-10-18T10:27:09Z</time>
      </trkpt>
      <trkpt lat="44.96991" lon="4.9149">
        <ele>161.08000183106</ele>
        <time>2009-10-18T10:27:13Z</time>
      </trkpt>
      <trkpt lat="44.96982" lon="4.91492">
        <ele>160.93800354004</ele>
        <time>2009-10-18T10:27:14Z</time>
      </trkpt>
      <trkpt lat="44.96937" lon="4.91505">
        <ele>162.68099975586</ele>
        <time>2009-10-18T10:27:19Z</time>
      </trkpt>
      <trkpt lat="44.96887" lon="4.91511">
        <ele>158.83999633789</ele>
        <time>2009-10-18T10:27:24Z</time>
      </trkpt>
      <trkpt lat="44.96819" lon="4.91522">
        <ele>157.58000183106</ele>
        <time>2009-10-18T10:27:30Z</time>
      </trkpt>
      <trkpt lat="44.96743" lon="4.91547">
        <ele>156.63999938965</ele>
        <time>2009-10-18T10:27:37Z</time>
      </trkpt>
      <trkpt lat="44.96671" lon="4.91567">
        <ele>156.51600646973</ele>
        <time>2009-10-18T10:27:44Z</time>
      </trkpt>
      <trkpt lat="44.96618" lon="4.91592">
        <ele>156.48899841309</ele>
        <time>2009-10-18T10:27:49Z</time>
      </trkpt>
      <trkpt lat="44.96577" lon="4.9161">
        <ele>156.12300109863</ele>
        <time>2009-10-18T10:27:53Z</time>
      </trkpt>
      <trkpt lat="44.96525" lon="4.91612">
        <ele>158.07699584961</ele>
        <time>2009-10-18T10:27:58Z</time>
      </trkpt>
      <trkpt lat="44.9647" lon="4.9159">
        <ele>159.52799987793</ele>
        <time>2009-10-18T10:28:04Z</time>
      </trkpt>
      <trkpt lat="44.96419" lon="4.91564">
        <ele>157.37899780273</ele>
        <time>2009-10-18T10:28:09Z</time>
      </trkpt>
      <trkpt lat="44.96396" lon="4.91551">
        <ele>156.38999938965</ele>
        <time>2009-10-18T10:28:11Z</time>
      </trkpt>
      <trkpt lat="44.9635" lon="4.91532">
        <ele>156.05599975586</ele>
        <time>2009-10-18T10:28:15Z</time>
      </trkpt>
      <trkpt lat="44.96293" lon="4.91513">
        <ele>156.03700256348</ele>
        <time>2009-10-18T10:28:20Z</time>
      </trkpt>
      <trkpt lat="44.96257" lon="4.91473">
        <ele>157.3690032959</ele>
        <time>2009-10-18T10:28:24Z</time>
      </trkpt>
      <trkpt lat="44.96233" lon="4.91439">
        <ele>156.64500427246</ele>
        <time>2009-10-18T10:28:27Z</time>
      </trkpt>
      <trkpt lat="44.96215" lon="4.91421">
        <ele>155.91700744629</ele>
        <time>2009-10-18T10:28:29Z</time>
      </trkpt>
      <trkpt lat="44.96186" lon="4.91374">
        <ele>155.83999633789</ele>
        <time>2009-10-18T10:28:33Z</time>
      </trkpt>
      <trkpt lat="44.96144" lon="4.91277">
        <ele>155.88900756836</ele>
        <time>2009-10-18T10:28:40Z</time>
      </trkpt>
      <trkpt lat="44.96114" lon="4.91204">
        <ele>154.86199951172</ele>
        <time>2009-10-18T10:28:45Z</time>
      </trkpt>
      <trkpt lat="44.96061" lon="4.91095">
        <ele>156.09700012207</ele>
        <time>2009-10-18T10:28:53Z</time>
      </trkpt>
      <trkpt lat="44.96042" lon="4.91056">
        <ele>154.78399658203</ele>
        <time>2009-10-18T10:28:56Z</time>
      </trkpt>
      <trkpt lat="44.96034" lon="4.91011">
        <ele>155.97300720215</ele>
        <time>2009-10-18T10:28:59Z</time>
      </trkpt>
      <trkpt lat="44.9604" lon="4.90982">
        <ele>154.49299621582</ele>
        <time>2009-10-18T10:29:01Z</time>
      </trkpt>
      <trkpt lat="44.96035" lon="4.90957">
        <ele>153.5299987793</ele>
        <time>2009-10-18T10:29:03Z</time>
      </trkpt>
      <trkpt lat="44.96017" lon="4.90943">
        <ele>153.04100036621</ele>
        <time>2009-10-18T10:29:05Z</time>
      </trkpt>
      <trkpt lat="44.95997" lon="4.90943">
        <ele>152.79899597168</ele>
        <time>2009-10-18T10:29:07Z</time>
      </trkpt>
      <trkpt lat="44.9598" lon="4.90929">
        <ele>153.47599792481</ele>
        <time>2009-10-18T10:29:09Z</time>
      </trkpt>
      <trkpt lat="44.95966" lon="4.90906">
        <ele>152.72300720215</ele>
        <time>2009-10-18T10:29:11Z</time>
      </trkpt>
      <trkpt lat="44.95914" lon="4.90814">
        <ele>152.54100036621</ele>
        <time>2009-10-18T10:29:18Z</time>
      </trkpt>
      <trkpt lat="44.95869" lon="4.90731">
        <ele>153.52600097656</ele>
        <time>2009-10-18T10:29:24Z</time>
      </trkpt>
      <trkpt lat="44.95862" lon="4.90717">
        <ele>153.41499328613</ele>
        <time>2009-10-18T10:29:25Z</time>
      </trkpt>
      <trkpt lat="44.95836" lon="4.90688">
        <ele>152.49800109863</ele>
        <time>2009-10-18T10:29:28Z</time>
      </trkpt>
      <trkpt lat="44.95779" lon="4.90648">
        <ele>151.05599975586</ele>
        <time>2009-10-18T10:29:34Z</time>
      </trkpt>
      <trkpt lat="44.95754" lon="4.90634">
        <ele>148.79600524902</ele>
        <time>2009-10-18T10:29:37Z</time>
      </trkpt>
      <trkpt lat="44.95739" lon="4.90631">
        <ele>147.82099914551</ele>
        <time>2009-10-18T10:29:39Z</time>
      </trkpt>
      <trkpt lat="44.9572" lon="4.9062">
        <ele>147.17500305176</ele>
        <time>2009-10-18T10:29:42Z</time>
      </trkpt>
      <trkpt lat="44.95707" lon="4.90633">
        <ele>146.67399597168</ele>
        <time>2009-10-18T10:29:45Z</time>
      </trkpt>
      <trkpt lat="44.95705" lon="4.90652">
        <ele>146.8450012207</ele>
        <time>2009-10-18T10:29:47Z</time>
      </trkpt>
      <trkpt lat="44.95706" lon="4.90683">
        <ele>146.93499755859</ele>
        <time>2009-10-18T10:29:51Z</time>
      </trkpt>
      <trkpt lat="44.95704" lon="4.90703">
        <ele>146.85800170898</ele>
        <time>2009-10-18T10:29:54Z</time>
      </trkpt>
      <trkpt lat="44.957" lon="4.90733">
        <ele>147.48699951172</ele>
        <time>2009-10-18T10:29:59Z</time>
      </trkpt>
      <trkpt lat="44.95693" lon="4.90781">
        <ele>147.97799682617</ele>
        <time>2009-10-18T10:30:08Z</time>
      </trkpt>
      <trkpt lat="44.95685" lon="4.90816">
        <ele>147.88800048828</ele>
        <time>2009-10-18T10:30:15Z</time>
      </trkpt>
      <trkpt lat="44.95675" lon="4.90848">
        <ele>148.64999389648</ele>
        <time>2009-10-18T10:30:22Z</time>
      </trkpt>
      <trkpt lat="44.95671" lon="4.90865">
        <ele>148.95899963379</ele>
        <time>2009-10-18T10:30:27Z</time>
      </trkpt>
      <trkpt lat="44.95681" lon="4.90877">
        <ele>148.89399719238</ele>
        <time>2009-10-18T10:30:32Z</time>
      </trkpt>
      <trkpt lat="44.95692" lon="4.90873">
        <ele>149.56300354004</ele>
        <time>2009-10-18T10:30:35Z</time>
      </trkpt>
      <trkpt lat="44.95696" lon="4.90857">
        <ele>149.34199523926</ele>
        <time>2009-10-18T10:30:38Z</time>
      </trkpt>
      <trkpt lat="44.95697" lon="4.90844">
        <ele>149.48599243164</ele>
        <time>2009-10-18T10:30:40Z</time>
      </trkpt>
      <trkpt lat="44.95702" lon="4.90802">
        <ele>148.66499328613</ele>
        <time>2009-10-18T10:30:46Z</time>
      </trkpt>
      <trkpt lat="44.95705" lon="4.90756">
        <ele>147.52900695801</ele>
        <time>2009-10-18T10:30:52Z</time>
      </trkpt>
      <trkpt lat="44.9571" lon="4.90688">
        <ele>147.36799621582</ele>
        <time>2009-10-18T10:31:01Z</time>
      </trkpt>
      <trkpt lat="44.9571" lon="4.90681">
        <ele>147.18099975586</ele>
        <time>2009-10-18T10:31:02Z</time>
      </trkpt>
      <trkpt lat="44.95718" lon="4.90661">
        <ele>147.50700378418</ele>
        <time>2009-10-18T10:31:06Z</time>
      </trkpt>
      <trkpt lat="44.95734" lon="4.90649">
        <ele>147.37899780273</ele>
        <time>2009-10-18T10:31:10Z</time>
      </trkpt>
      <trkpt lat="44.95749" lon="4.90647">
        <ele>148.19299316406</ele>
        <time>2009-10-18T10:31:14Z</time>
      </trkpt>
      <trkpt lat="44.95774" lon="4.90659">
        <ele>149.14799499512</ele>
        <time>2009-10-18T10:31:21Z</time>
      </trkpt>
      <trkpt lat="44.95791" lon="4.9067">
        <ele>150.42199707031</ele>
        <time>2009-10-18T10:31:26Z</time>
      </trkpt>
      <trkpt lat="44.95822" lon="4.90688">
        <ele>151.99699401856</ele>
        <time>2009-10-18T10:31:35Z</time>
      </trkpt>
      <trkpt lat="44.95846" lon="4.90706">
        <ele>152.2559967041</ele>
        <time>2009-10-18T10:31:42Z</time>
      </trkpt>
      <trkpt lat="44.95863" lon="4.90737">
        <ele>152.13200378418</ele>
        <time>2009-10-18T10:31:49Z</time>
      </trkpt>
      <trkpt lat="44.95866" lon="4.90742">
        <ele>152.22799682617</ele>
        <time>2009-10-18T10:31:50Z</time>
      </trkpt>
      <trkpt lat="44.95882" lon="4.90756">
        <ele>152.13900756836</ele>
        <time>2009-10-18T10:31:55Z</time>
      </trkpt>
      <trkpt lat="44.95885" lon="4.90755">
        <ele>152.32099914551</ele>
        <time>2009-10-18T10:31:57Z</time>
      </trkpt>
      <trkpt lat="44.95886" lon="4.90753">
        <ele>151.78900146484</ele>
        <time>2009-10-18T10:32:02Z</time>
      </trkpt>
      <trkpt lat="44.95886" lon="4.90753">
        <ele>151.73699951172</ele>
        <time>2009-10-18T10:32:05Z</time>
      </trkpt>
      <trkpt lat="44.95887" lon="4.90752">
        <ele>151.79400634766</ele>
        <time>2009-10-18T10:32:20Z</time>
      </trkpt>
      <trkpt lat="44.95887" lon="4.90752">
        <ele>151.83999633789</ele>
        <time>2009-10-18T10:32:26Z</time>
      </trkpt>
      <trkpt lat="44.95887" lon="4.90752">
        <ele>152.14300537109</ele>
        <time>2009-10-18T10:32:34Z</time>
      </trkpt>
      <trkpt lat="44.95885" lon="4.9075">
        <ele>151.77200317383</ele>
        <time>2009-10-18T10:33:00Z</time>
      </trkpt>
      <trkpt lat="44.95885" lon="4.90751">
        <ele>151.80000305176</ele>
        <time>2009-10-18T10:33:08Z</time>
      </trkpt>
      <trkpt lat="44.95889" lon="4.90752">
        <ele>151.88400268555</ele>
        <time>2009-10-18T10:33:31Z</time>
      </trkpt>
      <trkpt lat="44.95894" lon="4.90756">
        <ele>151.13499450684</ele>
        <time>2009-10-18T10:33:38Z</time>
      </trkpt>
      <trkpt lat="44.95895" lon="4.90758">
        <ele>151.65699768066</ele>
        <time>2009-10-18T10:33:45Z</time>
      </trkpt>
      <trkpt lat="44.95897" lon="4.90757">
        <ele>151.3630065918</ele>
        <time>2009-10-18T10:34:06Z</time>
      </trkpt>
      <trkpt lat="44.95898" lon="4.90766">
        <ele>151.66600036621</ele>
        <time>2009-10-18T10:34:13Z</time>
      </trkpt>
      <trkpt lat="44.95897" lon="4.90765">
        <ele>151.42500305176</ele>
        <time>2009-10-18T10:34:33Z</time>
      </trkpt>
      <trkpt lat="44.95894" lon="4.90758">
        <ele>151.74600219727</ele>
        <time>2009-10-18T10:34:56Z</time>
      </trkpt>
      <trkpt lat="44.95894" lon="4.90758">
        <ele>151.60800170898</ele>
        <time>2009-10-18T10:34:58Z</time>
      </trkpt>
      <trkpt lat="44.95894" lon="4.90757">
        <ele>151.80099487305</ele>
        <time>2009-10-18T10:35:10Z</time>
      </trkpt>
      <trkpt lat="44.95894" lon="4.90757">
        <ele>151.81199645996</ele>
        <time>2009-10-18T10:35:17Z</time>
      </trkpt>
    </trkseg>
  </trk>
</gpx>